[[{"header":{"parameterUnit":"m.s-1","parameterCategory":1,"la1":30.6,"la2":29.2853,"lo1":-89.7004,"lo2":-87.6739,"dy":0.0162,"dx":0.0183,"nx":112,"ny":82,"refTime":"2023-06-26T06:00:00:Z","depth":0,"parameterNumber":2,"parameterNumberName":"U-component_of_WINDS"},"data":[0.0,0.0,0.0,0.0,0.0,0.0,0.0,0.0,0.0,0.0,0.0,0.0,0.0,0.0,0.0,0.0,0.0,0.0,0.0,0.0,0.0,0.0,0.0,0.0,0.0,0.0,0.0,0.0,0.0,0.0,0.0,0.0,0.0,0.0,0.0,0.0,0.0,0.0,0.0,0.0,0.0,0.0,0.0,0.0,0.0,0.0,0.0,0.0,0.0,0.0,0.0,0.0,0.0,0.0,0.0,0.0,0.0,0.0,0.0,0.0,0.0,0.0,0.0,0.0,0.0,0.0,0.0,0.0,0.0,0.0,0.0,0.0,0.0,0.0,0.0,0.0,0.0,0.0,0.0,0.0,0.0,0.0,0.0,0.0,0.0,0.0,0.0,0.0,0.0,0.0,-2.5441,-2.6692,-2.7656,-2.8701,-2.9939,-2.9373,-2.8847,-2.8604,0.0,0.0,0.0,0.0,0.0,0.0,0.0,0.0,0.0,0.0,0.0,0.0,0.0,0.0,0.0,0.0,0.0,0.0,0.0,0.0,0.0,0.0,0.0,0.0,0.0,0.0,0.0,0.0,0.0,0.0,0.0,0.0,0.0,0.0,0.0,0.0,0.0,0.0,0.0,0.0,0.0,0.0,0.0,0.0,0.0,0.0,0.0,0.0,0.0,0.0,0.0,0.0,0.0,0.0,0.0,0.0,0.0,0.0,0.0,0.0,0.0,0.0,0.0,0.0,0.0,0.0,0.0,0.0,0.0,0.0,0.0,0.0,0.0,0.0,0.0,0.0,0.0,0.0,0.0,0.0,0.0,0.0,0.0,0.0,0.0,0.0,0.0,0.0,0.0,0.0,0.0,0.0,0.0,0.0,0.0,0.0,0.0,0.0,0.0,0.0,0.0,0.0,0.0,0.0,-2.67,-2.8542,-2.8867,-2.9471,-3.0974,-3.0522,-2.9847,-2.9043,0.0,0.0,0.0,0.0,0.0,0.0,0.0,0.0,0.0,0.0,0.0,0.0,0.0,0.0,0.0,0.0,0.0,0.0,0.0,0.0,0.0,0.0,0.0,0.0,0.0,0.0,0.0,0.0,0.0,0.0,0.0,0.0,0.0,0.0,0.0,0.0,0.0,0.0,0.0,0.0,0.0,0.0,0.0,0.0,0.0,0.0,0.0,0.0,0.0,0.0,0.0,0.0,0.0,0.0,0.0,0.0,0.0,0.0,0.0,0.0,0.0,0.0,0.0,0.0,0.0,0.0,0.0,0.0,0.0,0.0,0.0,0.0,0.0,0.0,0.0,0.0,0.0,0.0,0.0,0.0,0.0,0.0,0.0,0.0,0.0,0.0,0.0,0.0,0.0,0.0,0.0,0.0,0.0,0.0,0.0,0.0,0.0,0.0,0.0,0.0,0.0,0.0,0.0,-2.686,-2.7387,-2.8959,-2.92,-2.9721,-3.0922,-3.0453,-2.9665,-2.854,-2.6299,0.0,0.0,0.0,0.0,0.0,0.0,0.0,0.0,0.0,0.0,0.0,0.0,0.0,0.0,0.0,0.0,0.0,0.0,0.0,0.0,0.0,0.0,0.0,0.0,0.0,0.0,0.0,0.0,0.0,0.0,0.0,0.0,0.0,0.0,0.0,0.0,0.0,0.0,0.0,0.0,0.0,0.0,0.0,0.0,0.0,0.0,0.0,0.0,0.0,0.0,0.0,0.0,0.0,0.0,0.0,0.0,0.0,0.0,0.0,0.0,0.0,0.0,0.0,0.0,0.0,0.0,0.0,0.0,0.0,0.0,0.0,0.0,0.0,0.0,0.0,0.0,0.0,0.0,0.0,0.0,0.0,0.0,0.0,0.0,0.0,0.0,0.0,0.0,0.0,0.0,0.0,0.0,0.0,0.0,0.0,0.0,0.0,0.0,0.0,0.0,0.0,0.0,-2.7543,-2.7944,-2.9084,-2.9501,-2.9982,-3.0715,-3.0025,-2.9112,-2.7909,-2.5869,0.0,0.0,0.0,0.0,0.0,0.0,0.0,0.0,0.0,0.0,0.0,0.0,0.0,0.0,0.0,0.0,0.0,0.0,0.0,0.0,0.0,0.0,0.0,0.0,0.0,0.0,0.0,0.0,0.0,0.0,0.0,0.0,0.0,0.0,0.0,0.0,0.0,0.0,0.0,0.0,0.0,0.0,0.0,0.0,0.0,0.0,0.0,0.0,0.0,0.0,0.0,0.0,0.0,0.0,0.0,0.0,0.0,0.0,0.0,0.0,0.0,0.0,0.0,0.0,0.0,0.0,0.0,0.0,0.0,0.0,0.0,0.0,0.0,0.0,0.0,0.0,0.0,0.0,0.0,0.0,0.0,0.0,0.0,0.0,0.0,0.0,0.0,0.0,0.0,0.0,0.0,0.0,0.0,0.0,0.0,0.0,0.0,0.0,0.0,0.0,0.0,0.0,-2.7646,-2.837,-2.9298,-3.0189,-3.0726,-3.0574,-2.9758,-2.8622,-2.7231,-2.5192,0.0,0.0,0.0,0.0,0.0,0.0,0.0,0.0,0.0,0.0,0.0,0.0,0.0,0.0,0.0,0.0,0.0,0.0,0.0,0.0,0.0,0.0,0.0,0.0,0.0,0.0,0.0,0.0,0.0,0.0,0.0,0.0,0.0,0.0,0.0,0.0,0.0,0.0,0.0,0.0,0.0,0.0,0.0,0.0,0.0,0.0,0.0,0.0,0.0,0.0,0.0,0.0,0.0,0.0,0.0,0.0,0.0,0.0,0.0,0.0,0.0,0.0,0.0,0.0,0.0,0.0,0.0,0.0,0.0,0.0,0.0,0.0,0.0,0.0,0.0,0.0,0.0,0.0,0.0,0.0,0.0,0.0,0.0,0.0,0.0,0.0,0.0,0.0,0.0,0.0,0.0,0.0,0.0,0.0,0.0,0.0,0.0,0.0,0.0,0.0,0.0,0.0,-2.7984,-2.8431,0.0,-3.0025,-3.0273,-3.0496,-2.9806,-2.8545,-2.6744,0.0,0.0,0.0,0.0,0.0,0.0,0.0,0.0,0.0,0.0,0.0,0.0,0.0,0.0,0.0,0.0,0.0,0.0,0.0,0.0,0.0,0.0,0.0,0.0,0.0,0.0,0.0,0.0,0.0,0.0,0.0,0.0,0.0,0.0,0.0,0.0,0.0,0.0,0.0,0.0,0.0,0.0,0.0,0.0,0.0,0.0,0.0,0.0,0.0,0.0,0.0,0.0,0.0,0.0,0.0,0.0,0.0,0.0,0.0,0.0,0.0,0.0,0.0,0.0,0.0,0.0,0.0,0.0,0.0,0.0,0.0,0.0,0.0,0.0,0.0,0.0,0.0,0.0,0.0,0.0,0.0,0.0,0.0,0.0,0.0,0.0,0.0,0.0,0.0,0.0,0.0,0.0,0.0,0.0,0.0,0.0,0.0,0.0,0.0,0.0,0.0,0.0,-2.7704,-2.7999,-2.844,0.0,-2.9803,-3.0058,-3.0107,-2.94,-2.8417,-2.6855,0.0,0.0,0.0,0.0,0.0,0.0,0.0,0.0,0.0,0.0,0.0,0.0,0.0,0.0,0.0,0.0,0.0,0.0,0.0,0.0,0.0,0.0,0.0,0.0,0.0,0.0,0.0,0.0,0.0,0.0,0.0,0.0,0.0,0.0,0.0,0.0,0.0,0.0,0.0,0.0,0.0,0.0,0.0,0.0,0.0,0.0,0.0,0.0,0.0,0.0,0.0,0.0,0.0,0.0,0.0,0.0,0.0,0.0,0.0,0.0,0.0,0.0,0.0,0.0,0.0,0.0,0.0,0.0,0.0,0.0,0.0,0.0,0.0,0.0,0.0,0.0,0.0,0.0,0.0,0.0,0.0,0.0,0.0,0.0,0.0,0.0,0.0,0.0,0.0,0.0,0.0,0.0,0.0,0.0,0.0,0.0,0.0,0.0,0.0,0.0,0.0,0.0,-2.6844,-2.7872,-2.8374,-2.8063,-2.951,-3.0266,-2.9609,-2.8718,-2.8004,0.0,0.0,0.0,0.0,0.0,0.0,0.0,0.0,0.0,0.0,0.0,0.0,0.0,0.0,0.0,0.0,0.0,0.0,0.0,0.0,0.0,0.0,0.0,0.0,0.0,0.0,0.0,0.0,0.0,0.0,0.0,0.0,0.0,0.0,0.0,0.0,0.0,0.0,0.0,0.0,0.0,0.0,0.0,0.0,0.0,0.0,0.0,0.0,0.0,0.0,0.0,0.0,0.0,0.0,0.0,0.0,0.0,0.0,0.0,0.0,0.0,0.0,0.0,0.0,0.0,0.0,0.0,0.0,0.0,0.0,0.0,0.0,0.0,0.0,0.0,0.0,0.0,0.0,0.0,0.0,0.0,0.0,0.0,0.0,0.0,0.0,0.0,0.0,0.0,0.0,0.0,0.0,0.0,0.0,0.0,0.0,0.0,0.0,0.0,0.0,0.0,0.0,0.0,-2.7846,-2.7964,-2.8327,-2.9447,-2.9582,-2.9594,-2.9451,-2.8606,-2.7668,-2.6564,0.0,0.0,0.0,0.0,0.0,0.0,0.0,0.0,0.0,0.0,0.0,0.0,0.0,0.0,0.0,0.0,0.0,0.0,0.0,0.0,0.0,0.0,0.0,0.0,0.0,0.0,0.0,0.0,0.0,0.0,0.0,0.0,0.0,0.0,0.0,0.0,0.0,0.0,0.0,0.0,0.0,0.0,0.0,0.0,0.0,0.0,0.0,0.0,0.0,0.0,0.0,0.0,0.0,0.0,0.0,0.0,0.0,0.0,0.0,0.0,0.0,0.0,0.0,0.0,0.0,0.0,0.0,0.0,0.0,0.0,0.0,0.0,0.0,0.0,0.0,0.0,0.0,0.0,0.0,0.0,0.0,0.0,0.0,0.0,0.0,0.0,0.0,0.0,0.0,0.0,0.0,0.0,0.0,0.0,0.0,0.0,0.0,0.0,0.0,0.0,0.0,0.0,-2.7767,-2.8004,-2.8515,-2.9505,-2.9631,-2.9507,-2.9203,-2.8589,-2.7902,-2.6825,0.0,0.0,0.0,0.0,0.0,0.0,0.0,0.0,0.0,0.0,0.0,0.0,0.0,0.0,0.0,0.0,0.0,0.0,0.0,0.0,0.0,0.0,0.0,0.0,0.0,0.0,0.0,0.0,0.0,0.0,0.0,0.0,0.0,0.0,0.0,0.0,0.0,0.0,0.0,0.0,0.0,0.0,0.0,0.0,0.0,0.0,0.0,0.0,0.0,0.0,0.0,0.0,0.0,0.0,0.0,0.0,0.0,0.0,0.0,0.0,0.0,0.0,0.0,0.0,0.0,0.0,0.0,0.0,0.0,0.0,0.0,0.0,0.0,0.0,0.0,0.0,0.0,0.0,0.0,0.0,0.0,0.0,0.0,0.0,0.0,0.0,0.0,0.0,0.0,0.0,0.0,0.0,0.0,0.0,0.0,0.0,0.0,0.0,0.0,0.0,0.0,0.0,-2.7303,-2.8281,-2.8901,-2.8748,-2.9474,-2.974,-2.8957,-2.8445,-2.8109,-2.7863,0.0,0.0,0.0,0.0,0.0,0.0,0.0,0.0,0.0,0.0,0.0,0.0,0.0,0.0,0.0,0.0,0.0,0.0,0.0,0.0,0.0,0.0,0.0,0.0,0.0,0.0,0.0,0.0,0.0,0.0,0.0,0.0,0.0,0.0,0.0,0.0,0.0,0.0,0.0,0.0,0.0,0.0,0.0,0.0,0.0,0.0,0.0,0.0,0.0,0.0,0.0,0.0,0.0,0.0,0.0,0.0,0.0,0.0,0.0,0.0,-1.9668,0.0,0.0,0.0,0.0,0.0,0.0,0.0,0.0,0.0,0.0,0.0,0.0,0.0,0.0,0.0,0.0,0.0,0.0,0.0,0.0,0.0,0.0,0.0,0.0,0.0,0.0,0.0,0.0,0.0,0.0,0.0,0.0,0.0,0.0,0.0,0.0,0.0,0.0,0.0,0.0,0.0,-2.8906,-2.8956,-2.9235,-2.9891,-2.9549,-2.882,-2.7812,-2.7186,-2.6875,-2.6946,-2.5986,0.0,0.0,0.0,0.0,0.0,0.0,0.0,0.0,0.0,0.0,0.0,0.0,0.0,0.0,0.0,0.0,0.0,0.0,0.0,0.0,0.0,0.0,0.0,0.0,0.0,0.0,0.0,0.0,0.0,0.0,0.0,0.0,0.0,0.0,0.0,0.0,0.0,0.0,0.0,0.0,0.0,0.0,0.0,0.0,0.0,0.0,0.0,0.0,0.0,0.0,0.0,0.0,0.0,0.0,0.0,0.0,0.0,0.0,0.0,0.0,-1.8705,0.0,0.0,0.0,0.0,0.0,0.0,0.0,0.0,0.0,0.0,0.0,0.0,0.0,0.0,0.0,0.0,0.0,0.0,0.0,0.0,0.0,0.0,0.0,0.0,0.0,0.0,0.0,0.0,0.0,0.0,0.0,0.0,0.0,0.0,0.0,0.0,0.0,0.0,0.0,0.0,-2.9373,-2.9379,-2.9517,-3.0159,-2.9058,-2.8117,-2.7633,-2.7265,-2.7213,-2.7395,-2.7285,0.0,0.0,0.0,0.0,0.0,0.0,0.0,0.0,0.0,0.0,0.0,0.0,0.0,0.0,0.0,0.0,0.0,0.0,0.0,0.0,0.0,0.0,0.0,0.0,0.0,0.0,0.0,0.0,0.0,0.0,0.0,0.0,0.0,0.0,0.0,0.0,0.0,0.0,0.0,0.0,0.0,0.0,0.0,0.0,0.0,0.0,0.0,0.0,0.0,0.0,0.0,0.0,0.0,-1.8043,-1.8333,-1.8102,-1.8464,-1.8689,-1.8618,-1.8275,-1.8095,-1.8024,-1.7644,0.0,0.0,0.0,0.0,0.0,0.0,0.0,0.0,0.0,0.0,0.0,0.0,0.0,0.0,0.0,0.0,0.0,0.0,0.0,0.0,0.0,0.0,0.0,0.0,-2.0672,-2.1179,-2.3141,0.0,0.0,0.0,0.0,0.0,0.0,0.0,0.0,0.0,0.0,0.0,-2.9468,-2.9738,-2.9828,-2.9837,-2.8523,-2.7722,-2.7632,-2.7755,-2.8101,-2.8468,-2.9099,-2.9252,0.0,0.0,0.0,0.0,0.0,0.0,0.0,0.0,0.0,0.0,0.0,0.0,0.0,0.0,0.0,0.0,0.0,0.0,0.0,0.0,0.0,0.0,0.0,0.0,0.0,0.0,0.0,0.0,0.0,0.0,0.0,0.0,-1.1542,-1.2058,0.0,0.0,0.0,0.0,0.0,0.0,0.0,0.0,0.0,0.0,0.0,0.0,0.0,-1.2609,-1.4072,-1.4667,-1.5815,-1.7488,-1.7395,-1.7849,-1.8728,-1.8769,-1.868,-1.846,-1.7816,0.0,-1.6783,-1.6546,0.0,0.0,0.0,0.0,0.0,0.0,0.0,0.0,0.0,0.0,0.0,0.0,0.0,0.0,0.0,0.0,0.0,0.0,0.0,0.0,0.0,0.0,-1.9248,-2.0078,-2.05,-2.1118,0.0,-2.3971,-2.418,-2.431,-2.409,0.0,0.0,0.0,0.0,0.0,0.0,0.0,-2.9915,-3.0299,-3.0178,-2.9493,-2.8507,-2.7823,-2.7591,-2.7481,-2.8047,-2.9403,-2.9521,-2.9695,-3.0008,-2.9162,0.0,0.0,0.0,0.0,0.0,0.0,0.0,0.0,0.0,0.0,0.0,0.0,0.0,0.0,0.0,0.0,0.0,0.0,0.0,0.0,0.0,0.0,0.0,0.0,0.0,0.0,0.0,0.0,0.0,-1.1384,-1.1951,-1.2095,-1.2795,-1.3613,0.0,0.0,0.0,0.0,0.0,0.0,0.0,0.0,0.0,-1.0645,-1.097,-1.187,-1.3529,-1.4201,-1.5238,-1.6541,-1.6735,-1.7229,-1.7811,-1.797,-1.7905,-1.7701,-1.7346,-1.6615,-1.5899,-1.5524,-1.4885,-1.402,0.0,0.0,0.0,0.0,-1.5038,-1.5261,-1.4892,-1.471,-1.4658,-1.5153,0.0,0.0,0.0,0.0,0.0,0.0,0.0,0.0,0.0,0.0,-1.8525,-1.9416,-2.016,-2.1011,-2.2406,-2.3621,-2.4836,0.0,-2.5343,-2.4849,-2.6272,0.0,0.0,0.0,0.0,-2.8317,-2.9482,-2.9863,-2.9633,-2.8769,-2.8147,-2.7566,-2.703,-2.8054,-2.9235,-3.0058,-3.0512,-3.0717,-3.0873,-2.9751,-2.88,0.0,0.0,0.0,0.0,0.0,0.0,0.0,0.0,0.0,0.0,0.0,0.0,0.0,0.0,0.0,0.0,0.0,0.0,0.0,0.0,0.0,0.0,0.0,0.0,0.0,0.0,0.0,0.0,-1.1903,-1.2288,-1.2111,-1.2674,-1.3368,0.0,0.0,0.0,0.0,0.0,0.0,-1.1228,-0.9915,-0.9347,-0.9761,-1.0225,-1.1253,-1.2899,-1.3891,-1.476,-1.5606,-1.6211,-1.665,-1.6842,-1.7155,-1.715,-1.7035,-1.6661,-1.5994,-1.5187,-1.4861,-1.4286,-1.3512,-1.3332,-1.3355,-1.3428,-1.3378,-1.3526,-1.3661,-1.3305,-1.3118,-1.329,-1.3627,-1.4061,-1.4516,-1.5462,0.0,0.0,0.0,0.0,-1.7266,-1.7626,-1.7744,-1.796,-1.8896,-1.9537,-2.0375,-2.1376,-2.2726,-2.4454,0.0,-2.5963,-2.5469,-2.732,0.0,0.0,0.0,0.0,-2.8468,-2.9119,-2.9186,-2.8781,-2.7715,-2.7531,-2.7395,-2.6945,-2.8621,-2.997,-3.0762,-3.1151,-3.1387,-3.1689,-3.0873,-3.0349,-3.0356,0.0,0.0,0.0,0.0,0.0,0.0,0.0,0.0,0.0,0.0,0.0,0.0,0.0,0.0,0.0,0.0,0.0,0.0,0.0,0.0,0.0,0.0,0.0,0.0,0.0,0.0,0.0,0.0,0.0,-1.2395,-1.2845,0.0,0.0,0.0,0.0,-1.4767,-1.3928,-1.2726,-1.1036,-0.9644,-0.9003,-0.9271,-0.9604,-1.0574,-1.2273,-1.3361,-1.4391,-1.5192,-1.5803,-1.6292,-1.652,-1.6532,-1.6561,-1.6436,-1.5693,-1.5324,-1.4925,-1.4597,-1.3676,-1.2534,-1.2299,-1.1811,-1.1315,-1.1559,-1.1918,-1.2128,-1.2321,-1.2854,-1.3433,-1.3154,-1.3619,-1.4291,-1.4498,-1.4982,0.0,0.0,-1.6751,-1.6946,-1.8062,-1.8063,-1.7943,-1.8751,-1.8706,-1.8786,-1.9928,-2.0723,-2.1966,0.0,-2.4786,-2.5122,-2.6382,0.0,-2.5436,-2.8327,-2.8518,-2.8415,-2.8819,-2.873,-2.7974,-2.6336,-2.6718,-2.7344,-2.7949,-2.8701,-2.9837,-3.1379,-3.118,-3.1223,-3.2012,-3.2393,-3.2458,-3.2127,-3.1942,0.0,0.0,0.0,0.0,0.0,0.0,0.0,0.0,0.0,0.0,0.0,0.0,0.0,0.0,0.0,0.0,0.0,0.0,0.0,0.0,0.0,0.0,0.0,0.0,0.0,0.0,0.0,0.0,-1.2553,-1.2764,0.0,-1.401,-1.4301,-1.4485,-1.4517,-1.3613,-1.2643,-1.1515,-0.9774,-0.9161,-0.9471,-0.9878,-1.0758,-1.2299,-1.3462,-1.4167,-1.4725,-1.5215,-1.5382,-1.5587,-1.573,-1.5556,-1.5277,-1.5037,-1.4489,-1.3822,-1.3681,-1.316,-1.241,-1.1764,-1.1169,-1.0871,-1.0847,-1.0947,-1.1223,-1.1777,-1.2296,-1.2828,-1.3052,-1.354,-1.3859,-1.3934,-1.4595,-1.5559,-1.6048,-1.6663,-1.7179,-1.7518,-1.747,-1.7427,-1.7532,-1.7675,-1.7945,-1.8296,-1.9227,-2.0655,-2.2369,-2.302,-2.3776,-2.5339,-2.3863,-2.2929,-2.4172,-2.46,-2.516,-2.6215,-2.6923,-2.7198,-2.7141,-2.8136,-2.8916,-2.9155,-2.9883,-3.0888,-3.2139,-3.1629,-3.1861,-3.3256,-3.3345,-3.3412,-3.3379,-3.3843,-3.3718,0.0,0.0,0.0,0.0,0.0,0.0,0.0,0.0,0.0,0.0,0.0,0.0,0.0,0.0,0.0,0.0,0.0,0.0,0.0,0.0,0.0,0.0,0.0,0.0,0.0,0.0,-1.2723,-1.2729,-1.283,-1.3025,-1.367,-1.4047,-1.4232,-1.4382,-1.4015,-1.3236,-1.202,-1.0546,-0.9693,-0.9761,-0.9896,-1.0589,-1.1999,-1.2982,-1.3572,-1.3945,-1.4256,-1.4469,-1.4597,-1.4734,-1.4576,-1.4332,-1.4214,-1.3798,-1.3014,-1.2854,-1.2566,-1.2261,-1.1459,-1.1069,-1.0763,-1.0678,-1.0897,-1.1206,-1.1895,-1.2226,-1.2282,-1.3165,-1.3501,-1.3549,-1.3938,-1.4558,-1.5336,-1.6135,-1.6659,-1.7187,-1.7539,-1.7423,-1.7223,-1.6845,-1.6969,-1.7177,-1.7657,-1.8507,-1.9559,-2.1407,-2.2271,-2.3328,-2.5137,-2.4242,-2.335,-2.3721,-2.4199,-2.4923,-2.5749,-2.6589,-2.7306,-2.7769,-2.9155,-3.0184,-3.0409,-3.1274,-3.2396,-3.3629,-3.2891,-3.3185,-3.4896,-3.4741,-3.492,-3.5534,-3.5874,-3.6227,-3.6515,0.0,0.0,0.0,0.0,0.0,0.0,0.0,0.0,0.0,0.0,0.0,0.0,0.0,0.0,0.0,0.0,0.0,0.0,0.0,0.0,0.0,0.0,0.0,-1.1504,-1.2151,-1.2723,-1.2859,-1.2864,-1.3043,-1.3667,-1.4184,-1.4468,-1.4568,-1.4982,-1.4455,-1.2716,-1.1752,-1.077,-0.9763,-0.9652,-1.0193,-1.1129,-1.2015,-1.2568,-1.2822,-1.3016,-1.3304,-1.3681,-1.3685,-1.3638,-1.3604,-1.3363,-1.3141,-1.2928,-1.2233,-1.1956,-1.1931,-1.1632,-1.1229,-1.0921,-1.1055,-1.1401,-1.195,-1.2775,-1.2608,-1.2252,-1.3257,-1.3401,-1.3306,-1.4338,-1.4723,-1.5074,-1.6559,-1.6955,-1.7282,-1.8207,-1.7856,-1.7238,-1.7005,-1.6433,-1.6617,-1.8339,-1.8485,-1.8899,-2.1404,-2.2503,-2.3818,-2.5945,-2.636,-2.6729,-2.7486,-2.7525,0.0,-2.77,-2.7949,-2.8073,-2.78,-2.9613,-3.1148,-3.1779,-3.2806,-3.4063,-3.5683,-3.4778,-3.5003,-3.6791,-3.6415,-3.6991,-3.8871,-3.8191,-3.8414,-3.9482,0.0,0.0,0.0,0.0,0.0,0.0,0.0,0.0,0.0,0.0,0.0,0.0,0.0,0.0,0.0,0.0,0.0,0.0,0.0,0.0,0.0,0.0,-1.2086,-1.1362,-1.1958,-1.2529,-1.2677,-1.3088,-1.349,-1.373,-1.4463,-1.5016,-1.52,-1.5424,-1.5095,-1.4048,-1.2996,-1.2118,-1.1312,-1.0994,-1.09,-1.1176,-1.1691,-1.195,-1.1571,-1.231,-1.2611,-1.2483,-1.2999,-1.3001,-1.2704,-1.27,-1.264,-1.2481,-1.2326,-1.2444,-1.2536,-1.1463,-1.1018,-1.0695,-1.0628,-1.0997,-1.1865,-1.2319,-1.2682,-1.303,-1.3399,-1.3366,-1.3439,-1.3947,-1.452,-1.5217,-1.642,-1.7135,-1.7559,-1.8178,-1.7914,-1.7287,-1.6778,-1.6187,-1.5999,-1.6718,-1.7188,-1.7837,-1.9661,-2.1003,-2.216,-2.2955,-2.3358,-2.355,-2.3769,-2.4503,0.0,-2.6722,-2.7627,-2.8812,-3.0558,-3.146,-3.2483,-3.3621,-3.3495,-3.4123,-3.5788,-3.5139,-3.5313,-3.6574,-3.6931,-3.7768,-3.9275,-3.9265,-3.9396,0.0,0.0,0.0,0.0,0.0,0.0,0.0,0.0,0.0,0.0,0.0,0.0,0.0,0.0,0.0,0.0,0.0,0.0,0.0,0.0,0.0,0.0,-1.3387,-1.3522,-1.3002,-1.2876,-1.2969,-1.3277,-1.3622,-1.3894,-1.3999,-1.4659,-1.5268,-1.5638,-1.61,-1.6183,-1.5756,-1.4678,-1.3638,-1.2771,-1.1891,-1.1185,-1.0978,-1.1165,-1.108,-1.0723,-1.1175,-1.1297,-1.1239,-1.1892,-1.1984,-1.2014,-1.2377,-1.2558,-1.265,-1.2889,-1.3032,0.0,0.0,0.0,0.0,0.0,-1.1934,-1.219,-1.261,-1.3029,-1.3312,-1.3452,-1.349,-1.3522,-1.4014,-1.4582,-1.5151,-1.6205,-1.6776,-1.7464,-1.7882,-1.7639,-1.722,-1.6671,-1.6211,-1.6169,-1.7147,-1.7536,-1.8202,-2.0255,-2.1426,0.0,-2.2362,-2.2859,-2.3263,-2.3665,-2.4716,-2.6039,-2.7519,-2.921,-3.0885,-3.263,-3.3535,-3.4432,-3.5687,-3.5603,0.0,0.0,0.0,-3.7013,-3.7569,-3.8549,0.0,0.0,0.0,-4.0926,-4.1132,-3.9986,0.0,0.0,-3.8228,-3.8143,0.0,0.0,0.0,0.0,0.0,0.0,0.0,0.0,0.0,0.0,0.0,0.0,0.0,0.0,0.0,0.0,-1.488,-1.5421,-1.5563,-1.4569,-1.3978,-1.4277,-1.428,-1.4293,-1.4548,-1.5142,-1.568,-1.6038,-1.7028,-1.7462,-1.7348,0.0,0.0,0.0,0.0,-1.1664,-1.0989,-1.0568,-1.0134,-1.0119,-0.9997,-0.994,-1.0212,-1.0595,-1.1066,-1.1475,-1.2262,-1.2854,-1.3177,-1.3616,-1.3887,-1.3916,-1.3051,-1.2802,-1.3194,-1.3475,-1.322,-1.29,-1.3205,0.0,0.0,-1.3785,-1.3717,-1.3763,-1.4462,-1.4771,-1.5068,-1.5953,-1.6545,-1.6937,-1.7751,-1.7488,-1.6945,-1.6663,-1.6269,-1.6574,-1.8584,-1.8772,-1.9282,-2.2096,-2.2721,-2.3021,-2.3447,-2.4224,-2.4902,-2.5562,-2.6886,-2.8205,-2.9265,-3.1532,-3.334,-3.4152,0.0,0.0,-3.7601,-3.8045,-3.8702,-3.9756,-3.951,-3.9182,-3.9071,-4.0535,-4.1304,-4.1107,-4.1827,-4.2281,-4.26,-4.1901,-4.2012,-4.2794,-3.9035,-3.8423,0.0,0.0,0.0,0.0,0.0,0.0,0.0,0.0,0.0,0.0,0.0,0.0,0.0,0.0,0.0,-1.5714,-1.5801,-1.6008,-1.6396,-1.6109,-1.579,-1.5356,-1.5099,-1.5187,-1.5373,-1.6389,-1.6969,-1.6915,-1.784,-1.8459,-1.8495,-1.757,-1.677,-1.6338,-1.4525,-1.3236,-1.2276,-1.1132,-1.0224,-0.9839,0.0,0.0,-0.9946,-1.1038,-1.147,-1.1614,-1.2406,-1.3206,-1.3834,-1.4675,-1.5093,-1.4983,-1.3794,-1.3077,-1.2663,-1.263,-1.2698,-1.2772,-1.3054,-1.3539,-1.3978,-1.4123,-1.4215,-1.4563,-1.4884,-1.5294,0.0,-1.6599,-1.7174,-1.7679,-1.8161,-1.7954,-1.7657,-1.7798,-1.6869,-1.6612,-1.9145,-1.9036,-1.921,-2.2,-2.2981,-2.3605,-2.4481,-2.5022,-2.5569,-2.6241,-2.7833,-2.9421,-3.0334,-3.1699,-3.3299,-3.5047,-3.5838,-3.6729,-3.7848,-3.7895,-3.813,-3.8842,-3.8764,-3.9028,-3.9887,-4.0258,-4.0609,-4.0958,-4.1177,-4.1583,-4.2176,-4.1034,-4.1255,-4.278,-4.345,-4.3627,0.0,0.0,0.0,0.0,0.0,0.0,0.0,0.0,0.0,0.0,0.0,-1.5301,0.0,0.0,-1.6361,-1.685,-1.7229,-1.7512,-1.7489,-1.7421,-1.7,-1.6145,-1.5877,-1.59,-1.6247,-1.7007,-1.7472,-1.7246,-1.8348,-1.9096,-1.9199,-1.854,-1.7961,-1.7424,-1.5564,-1.3986,-1.2888,-1.1533,-1.0671,-1.017,-1.0398,-1.0225,-1.0088,-1.089,-1.1404,-1.161,-1.2632,-1.369,-1.4614,-1.5603,-1.5836,-1.547,-1.4787,-1.3676,-1.2742,-1.3122,-1.3099,-1.2902,-1.322,-1.3865,-1.4306,-1.4306,-1.4533,-1.4707,-1.4962,-1.5397,-1.5873,-1.6433,-1.6912,-1.7353,-1.7927,-1.8036,-1.7895,-1.7622,-1.766,-1.8057,-1.9112,-1.9657,-2.0626,-2.2461,-2.343,-2.4353,-2.542,-2.636,-2.7035,-2.7576,-2.8888,-3.0074,-3.0991,-3.2206,-3.3778,-3.5998,-3.6559,-3.7444,-3.9333,-3.9221,-3.9221,-3.9712,-3.9567,-3.9949,-4.094,-4.1255,-4.1614,-4.2114,-4.222,-4.2471,-4.2998,-4.1751,-4.1754,-4.3104,-4.416,-4.4423,0.0,0.0,0.0,0.0,0.0,0.0,0.0,0.0,-1.5293,-1.5684,-1.5828,-1.6015,-1.6296,-1.6905,-1.7477,-1.7912,-1.8512,-1.89,-1.8608,-1.857,-1.8137,-1.7196,-1.6765,-1.6655,-1.6944,-1.7463,-1.7727,-1.764,-1.8655,-1.9322,-1.934,-1.9163,-1.8641,-1.7867,-1.6162,-1.4697,-1.3364,-1.2205,-1.126,-1.0697,-1.0455,-1.0269,-1.0132,-1.0679,-1.1023,-1.1424,-1.2771,-1.3953,-1.5096,-1.5915,-1.5997,-1.5259,-1.51,-1.4054,-1.2779,-1.3672,-1.3594,-1.3029,-1.364,-1.414,-1.458,-1.458,-1.475,-1.5,-1.5105,-1.547,-1.5891,-1.632,-1.6598,-1.7142,-1.7809,-1.8074,-1.8067,-1.7787,-1.8799,-1.9692,-1.986,-2.1005,-2.2288,-2.342,-2.4292,-2.5172,-2.6375,-2.7576,-2.851,-2.8905,-2.9805,-3.0611,-3.1358,-3.257,-3.4258,-3.6686,-3.7262,-3.842,-4.0591,-4.0512,-4.032,-4.0051,-4.0173,-4.0421,-4.1099,-4.1667,-4.2068,-4.2453,-4.2819,-4.2939,-4.3029,-4.2335,-4.2426,-4.3114,-4.3342,-4.3443,-1.6359,-1.5958,-1.5741,-1.5835,-1.5986,-1.6243,0.0,0.0,-1.6851,-1.6948,-1.7218,-1.741,-1.744,-1.781,-1.8216,-1.8658,-1.9132,-1.9336,-1.922,-1.9171,-1.9075,-1.8709,-1.7899,-1.751,-1.7774,-1.8198,-1.8383,-1.789,-1.8681,-1.9049,-1.8735,-1.8742,-1.8489,-1.789,-1.6712,-1.5606,-1.4413,-1.2988,-1.175,-1.084,-1.0688,-1.0399,-0.9976,-1.0558,-1.0776,-1.0917,-1.2429,-1.369,-1.4871,-1.4984,-1.4736,-1.4334,-1.3885,-1.3195,-1.2356,-1.3382,-1.3444,-1.3029,-1.3633,-1.4284,-1.488,-1.488,-1.5345,-1.5732,-1.596,-1.6315,-1.6593,-1.7021,-1.7444,-1.7814,-1.8446,-1.8512,-1.8902,-2.0125,-2.0185,-2.0575,-2.2484,-2.2968,-2.3545,-2.4968,-2.5665,-2.6375,-2.7708,-2.8378,-2.8905,-2.9176,-3.0091,-3.1126,-3.1891,-3.2366,-3.3714,-3.6597,-3.7842,-3.9001,-4.0475,-4.0682,-3.9893,-3.7752,-3.8449,-3.8966,-3.8823,-3.9269,-3.9735,-4.0145,-4.0388,-4.025,-3.9875,-4.0967,-4.1874,-4.2597,-4.2258,-4.2316,-1.7162,-1.684,0.0,0.0,-1.6842,-1.7231,-1.7373,-1.7705,-1.7889,-1.7903,-1.8123,-1.8453,-1.8635,-1.8762,-1.8937,0.0,-1.9683,-1.9794,-1.9546,-1.9834,-1.9959,-1.9686,-1.9591,-1.9197,-1.8681,-1.9048,-1.8996,-1.8523,-1.897,-1.8907,-1.8171,-1.8339,-1.8206,-1.7433,-1.6395,-1.5315,-1.4432,-1.3096,-1.201,-1.1189,-1.054,-1.0152,-0.9879,-1.0111,-1.0224,-1.051,-1.3399,-1.3774,-1.2485,-1.4629,-1.4232,-1.2223,-1.2143,-1.188,-1.1616,-1.2687,-1.3066,-1.316,-1.3818,-1.4498,-1.5011,-1.5345,-1.5831,-1.6299,-1.6377,-1.6739,-1.7163,-1.7585,-1.7866,-1.8266,-1.8727,-1.8838,-1.9115,-2.0071,-2.0955,-2.1735,-2.3253,-2.4254,-2.523,-2.6215,-2.6749,-2.7302,-2.837,-2.9168,-2.9822,-3.0222,-3.0929,-3.1799,-3.2506,-3.3367,-3.4779,-3.7343,-3.8034,-3.8981,-4.0375,-3.9825,-3.9245,-3.9034,-3.9196,-3.9541,-4.0201,-4.0123,-4.0496,-4.1342,-4.1275,-4.1466,-4.178,-4.1497,-4.1636,-4.2292,-4.1046,-4.0755,-1.769,0.0,0.0,-1.7138,-1.7576,-1.7955,-1.7922,-1.8176,-1.851,-1.8597,-1.8715,-1.9027,-1.9326,-1.938,-1.9448,-1.9666,-1.9898,-2.002,-1.9863,-2.0303,-2.0644,-2.0475,-2.1041,-2.0961,-1.9861,-1.9855,-1.9691,-1.8766,-1.8862,-1.8647,-1.7757,-1.7884,-1.7711,-1.6902,-1.5933,-1.5032,-1.4181,-1.2965,-1.1915,-1.1067,-1.0325,-0.9831,-0.9451,-0.9992,-1.0526,-1.1221,-1.3965,-1.3625,-1.1086,-1.3858,-1.369,-1.1797,-1.1368,-1.1543,-1.2029,-1.237,-1.2753,-1.3156,-1.3794,-1.4595,-1.5225,-1.5672,-1.616,-1.6506,-1.692,-1.7298,-1.7585,-1.7866,-1.8147,-1.8433,-1.8714,-1.8848,-1.9267,-2.0231,-2.126,-2.2415,-2.3728,-2.5034,-2.6322,-2.7184,-2.7833,-2.8519,-2.9321,-2.9943,-3.0539,-3.0942,-3.152,-3.2258,-3.3096,-3.4322,-3.5676,-3.7277,-3.7953,-3.8696,-4.0061,-3.9487,-3.9282,-3.9676,-3.9797,-4.0112,-4.072,-4.0748,-4.1093,-4.2027,-4.1761,-4.2013,-4.2673,-4.1657,-4.1354,-4.1558,-4.041,-3.9866,0.0,0.0,-1.7547,-1.7754,-1.7891,-1.811,-1.8397,-1.8477,-1.8571,-1.8851,-1.8911,-1.8998,-1.9299,-1.9352,-1.9359,-1.9366,-1.9619,-1.9913,-2.0194,-2.0494,-2.092,-2.1447,-2.2118,-2.2117,0.0,-2.073,-2.0089,-1.8753,-1.8427,-1.8079,-1.7209,-1.7333,-1.6947,-1.6094,-1.5798,-1.5022,-1.3896,-1.293,-1.1821,-1.0433,-0.9979,-0.9216,-0.8146,-1.043,-1.222,-1.3559,-1.3885,-1.314,-1.1837,-1.2279,-1.3294,-1.4417,-1.2381,-1.2742,-1.4169,-1.2492,-1.2415,-1.3029,-1.3637,-1.4469,-1.5338,-1.5772,-1.6205,-1.688,-1.7585,-1.7861,-1.7861,-1.7861,-1.8147,-1.8433,-1.8433,-1.8714,-1.9407,-2.0792,-2.1418,-2.2243,-2.4036,-2.5286,-2.636,-2.7523,-2.8793,-3.0114,-3.0796,-3.0693,-3.0666,-3.1361,-3.1524,-3.2031,-3.3558,-3.5018,-3.5918,-3.5985,-3.7206,-3.8444,-3.9583,-4.0344,-3.9942,-3.8252,-3.9614,-3.9947,-3.9168,-3.976,-4.0427,-4.0707,-4.0668,-4.0619,-4.0558,-4.0737,-4.0647,-4.0268,-4.0268,-4.0279,0.0,0.0,-1.7782,-1.7888,-1.811,-1.8417,-1.8711,-1.8931,-1.9098,-1.9199,-1.9219,-1.9361,-1.957,-1.9422,-1.9469,-1.9897,-2.0068,-2.0132,-2.055,-2.1019,-2.1373,-2.1594,-2.223,0.0,0.0,0.0,0.0,-1.9837,-1.9393,-1.8823,-1.7857,-1.7195,-1.6322,-1.5625,-1.4514,-1.3796,-1.3178,-1.199,-1.0903,-0.9631,-0.8525,-0.7729,-0.7239,-0.9615,-1.0376,-0.9826,-1.4228,-1.3843,-1.0164,-1.2659,-1.2969,-1.1799,-1.0885,-1.1593,-1.2902,-1.2098,-1.2711,-1.3889,-1.4237,-1.4945,-1.5745,-1.6044,-1.6372,-1.6729,-1.7012,-1.7298,-1.7585,-1.7866,-1.8147,-1.8573,-1.9128,-1.9128,-1.9407,-2.1207,-2.1685,-2.2183,-2.4101,-2.5142,-2.5914,-2.6827,-2.7884,-2.8917,-2.9454,-3.0181,-3.1204,-3.2413,-3.2411,-3.2802,-3.4574,-3.5113,-3.5549,-3.6209,-3.6364,-3.6959,-3.8761,-3.8418,-3.8593,-3.9741,-4.0281,-4.0473,-4.0476,-4.1071,-4.1294,-4.1384,-4.1358,-4.1161,-4.102,-4.0605,-4.0398,-4.0268,-3.9997,-3.9997,-1.8141,-1.8267,-1.8212,-1.8,-1.834,-1.8675,-1.8971,-1.93,-1.9469,-1.9686,-1.9625,-1.9543,-1.9766,-1.9494,-1.9419,-1.9846,-1.9904,-2.001,-2.0415,-2.0924,-2.1368,-2.1713,-2.223,-2.2307,0.0,0.0,0.0,-2.0622,-1.9855,-1.9122,-1.8627,-1.7405,-1.6336,-1.5425,-1.4382,-1.342,-1.2667,-1.1774,-1.055,-0.9435,-0.7887,-0.8143,-0.981,-1.0762,-1.1287,-1.1699,-1.5575,-1.4838,-1.1045,-1.3513,-1.3756,-1.2528,-1.1374,-1.207,-1.377,-1.2593,-1.3014,-1.438,-1.4438,-1.4996,-1.5646,-1.6084,-1.632,-1.6598,-1.6875,-1.7163,-1.7585,-1.7585,-1.8012,-1.8573,-1.8988,-1.9128,-1.9407,-2.1075,-2.1339,-2.1929,-2.3791,-2.4918,-2.5637,-2.6796,-2.8019,-2.8959,-2.9497,-3.0625,-3.1607,-3.2258,-3.2432,-3.2927,-3.4415,-3.4727,-3.5068,-3.5624,-3.5672,-3.6455,-3.8411,-3.8248,-3.8697,-4.0773,-4.1054,-4.1445,-4.1837,-4.217,-4.2239,-4.2114,-4.1968,-4.1618,-4.1175,-4.0658,-4.0388,-4.0127,-3.9997,-3.9997,-1.8203,-1.8564,-1.8716,-1.8185,-1.8469,-1.8974,-1.9275,-1.935,-1.9539,-2.0165,-1.999,-1.978,0.0,0.0,-1.9323,-1.9357,-1.9381,-1.9663,-2.0127,-2.0476,-2.1066,0.0,0.0,0.0,0.0,0.0,0.0,-2.0956,0.0,-1.9197,-1.9402,-1.7904,-1.6692,-1.5786,-1.5237,-1.4141,-1.2674,-1.2103,-1.1001,-0.965,-0.8004,-0.9991,-1.4927,-1.3286,-1.4746,-1.8158,-1.7451,-1.6094,-1.4235,-1.4819,-1.5647,-1.602,-1.3574,-1.4186,-1.6344,-1.3675,-1.3455,-1.45,-1.4235,-1.4474,-1.519,-1.59,-1.6183,-1.632,-1.7026,-1.7585,-1.7721,-1.7449,-1.7872,-1.8433,-1.8433,-1.8714,-1.9407,-2.0527,-2.0804,-2.1352,-2.34,-2.4481,-2.5547,-2.7302,-2.881,-3.0018,-3.0828,-3.1626,-3.1833,-3.1143,-3.1692,-3.2386,-3.3076,-3.4186,-3.4749,-3.4434,-3.548,-3.6936,-3.8793,-3.9675,-4.0383,-4.1108,-4.1917,-4.2568,-4.3,-4.32,-4.3128,-4.2805,-4.2382,-4.1761,-4.0766,-4.0766,-4.0377,-3.9713,-4.0138,-4.0279,-1.8145,-1.8297,-1.8323,-1.8652,-1.8846,-1.8979,-1.9285,-1.9355,-1.9375,-1.9563,-1.9514,-1.9458,0.0,0.0,0.0,-1.9977,-1.9885,0.0,-2.0524,-2.0887,0.0,0.0,0.0,-2.1769,-2.13,-2.1409,0.0,0.0,-2.071,-2.0195,-2.0005,-1.8622,-1.7816,-1.7349,-1.6239,-1.5202,-1.3965,-1.2361,-1.0992,-1.012,-0.8892,-0.8984,-1.0289,-1.2371,-1.3202,-1.3224,-1.6765,-1.7033,-1.5144,-1.6147,-1.6071,-1.5171,-1.445,-1.4566,-1.5089,-1.3902,-1.4403,-1.5598,-1.522,-1.5247,-1.5465,-1.6037,-1.6183,-1.632,-1.6734,-1.6875,-1.7157,-1.758,-1.7861,-1.8288,-1.9128,-1.9547,-2.011,-2.1214,-2.1904,-2.2585,-2.3672,-2.4488,-2.5172,-2.5988,-2.7549,-2.9256,-3.1157,-3.1571,-3.1982,-3.2553,-3.2832,-3.3121,-3.326,-3.3807,-3.4121,-3.4371,-3.5883,-3.7213,-3.8087,-3.9589,-4.0753,-4.1365,-4.2096,-4.2533,-4.2655,-4.3225,-4.3255,-4.2404,-4.2259,-4.1772,-4.0766,-4.0257,-4.0007,-4.0138,-4.0268,-4.0398,-1.7991,-1.8231,-1.833,-1.833,-1.8695,-1.9163,-1.9227,-1.9477,-1.9722,-1.9647,-1.9569,0.0,0.0,0.0,0.0,0.0,0.0,0.0,-2.0413,-2.0554,-2.0517,0.0,-2.0767,0.0,-2.0922,-2.0949,-2.0973,0.0,-2.0882,-2.0541,-2.0416,-1.9209,-1.8421,-1.8232,-1.7206,-1.6174,-1.4992,-1.3224,-1.204,-1.1549,-1.0058,-0.984,-1.0755,-1.2455,-1.3427,-1.3806,0.0,-1.7404,-1.6089,-1.6683,-1.6294,-1.5221,-1.4589,-1.4668,-1.5084,-1.4352,-1.4855,-1.5886,-1.591,-1.5867,-1.6037,-1.6182,-1.6249,-1.6325,-1.6739,-1.7157,-1.7298,-1.8007,-1.8288,-1.8563,-1.9547,-2.011,-2.0665,-2.1766,-2.2585,-2.3406,-2.4224,-2.4902,-2.5749,-2.6861,-2.8277,-2.9801,-3.1365,-3.2018,-3.2553,-3.3391,-3.3678,-3.3826,-3.3955,-3.4232,-3.4435,-3.5038,-3.667,-3.8076,-3.8668,-4.0334,-4.1529,-4.1997,-4.2408,-4.2805,-4.313,-4.3072,-4.2897,-4.227,-4.1926,-4.1298,-4.0257,-4.0268,-4.0138,-4.0018,-4.0528,-4.0788,-1.7801,-1.8225,-1.8505,-1.786,-1.8419,-1.9251,-1.9251,-1.9568,-1.9955,-1.9923,0.0,-1.924,-1.8809,0.0,-1.8863,-1.9178,0.0,-1.9453,-2.0179,-1.9949,-1.9833,-2.0087,-2.018,-2.0321,-2.0541,-2.0605,-2.0598,-2.0655,-2.0508,-2.0516,-2.0662,-1.9699,-1.9048,-1.8741,-1.8096,-1.713,-1.5971,-1.4637,-1.3829,-1.339,-1.1382,-1.1667,-1.3492,-1.3066,-1.4156,-1.6364,-1.7035,-1.7223,-1.6879,-1.6587,-1.6212,-1.5737,-1.4647,-1.464,-1.5442,-1.492,-1.5133,-1.5784,-1.6325,-1.6586,-1.6476,-1.6506,-1.6385,-1.6423,-1.7122,-1.7679,-1.7965,-1.8422,-1.8848,-1.9267,-1.9976,-2.0527,-2.1081,-2.2173,-2.2996,-2.3952,-2.4909,-2.5704,-2.6878,-2.8599,-2.9784,-3.0703,-3.1633,-3.2583,-3.3548,-3.3955,-3.4232,-3.4646,-3.5059,-3.5059,-3.5192,-3.598,-3.756,-3.8857,-3.9534,-4.1006,-4.2007,-4.243,-4.2818,-4.3064,-4.347,-4.2721,-4.2239,-4.2182,-4.1363,-4.0639,-3.9757,-4.0388,-4.0388,-3.9888,-4.0788,-4.1002,-1.7743,-1.7896,-1.8043,-1.8459,-1.86,-1.8887,-1.9079,-1.8917,0.0,0.0,0.0,-1.7959,-1.7858,-1.796,0.0,-1.8654,0.0,0.0,0.0,0.0,-1.9795,0.0,0.0,0.0,0.0,0.0,0.0,0.0,0.0,-2.0329,-2.0503,-2.0101,-1.9878,-1.9713,-1.9052,-1.828,-1.7556,-1.6387,-1.5373,-1.4794,-1.3163,-1.2521,-1.2723,-1.2726,-1.3024,-1.3907,-1.5386,0.0,-1.6377,-1.6656,-1.6215,-1.5292,-1.5756,-1.5629,-1.5142,-1.5578,-1.6141,-1.6496,-1.6368,-1.6665,-1.7123,-1.6636,-1.6716,-1.7041,-1.7723,-1.7994,-1.8308,-1.9206,-1.9401,-1.9686,-2.0388,-2.1081,-2.1904,-2.2996,-2.3952,-2.4909,-2.5727,-2.6658,-2.7947,-2.9387,-3.0181,-3.0967,-3.2165,-3.3119,-3.3955,-3.4637,-3.4774,-3.5059,-3.5743,-3.5616,-3.5499,-3.5986,-3.753,-3.8736,-3.9095,-4.0265,-4.131,-4.1615,-4.1656,-4.185,-4.2159,-4.1945,-4.1601,-4.1275,-4.1055,-4.076,-4.0149,-4.0279,-4.0528,-4.0647,-4.0777,-4.0567,-1.7274,-1.7537,-1.7801,-1.8067,-1.852,-1.8789,-1.8812,0.0,0.0,0.0,0.0,-1.7225,-1.6773,0.0,0.0,0.0,0.0,0.0,0.0,0.0,0.0,0.0,0.0,0.0,0.0,0.0,0.0,0.0,0.0,-2.0335,-2.0241,-2.0373,-2.0308,-2.0017,-1.9701,-1.9205,-1.8518,-1.7536,-1.6625,-1.6044,-1.4455,-1.362,-1.3336,-1.3567,-1.3809,-1.3901,-1.5524,-1.6412,-1.6688,-1.6545,-1.627,-1.6069,-1.6079,-1.5812,-1.5486,-1.6022,-1.6354,-1.6661,-1.6923,-1.7265,-1.7626,-1.7351,-1.7465,-1.7764,-1.8297,-1.8522,-1.8918,-1.9731,-2.0004,-2.0382,-2.1075,-2.1766,-2.2585,-2.34,-2.4895,-2.6391,-2.7067,-2.7857,-2.8883,-2.9929,-3.0854,-3.1646,-3.2702,-3.3532,-3.437,-3.5059,-3.5196,-3.5333,-3.5879,-3.5879,-3.5879,-3.6268,-3.7608,-3.8604,-3.8646,-4.0142,-4.113,-4.1048,-4.1347,-4.1629,-4.1776,-4.1455,-4.1229,-4.1011,-4.076,-4.0509,-4.0279,-4.0279,-4.0279,-4.0257,-3.9995,-3.9626,-1.6733,-1.7172,-1.7602,-1.7619,-1.8125,-1.866,-1.8333,-1.8425,0.0,0.0,-1.6964,-1.6491,-1.5873,0.0,0.0,0.0,0.0,0.0,0.0,0.0,0.0,0.0,0.0,0.0,0.0,0.0,0.0,0.0,0.0,0.0,-2.0028,-2.0434,-2.0527,-1.997,-2.0129,-1.9787,-1.8633,-1.7867,-1.7206,-1.6476,-1.4915,-1.4022,-1.4115,-1.4279,-1.4316,-1.4463,-1.5822,-1.65,-1.6908,-1.6226,-1.6255,-1.6765,-1.6105,-1.5994,-1.6104,-1.6499,-1.6758,-1.6758,-1.74,-1.7911,-1.8171,-1.8231,-1.8347,-1.8457,-1.8852,-1.9165,-1.964,-2.0189,-2.0692,-2.1063,-2.1827,-2.2539,-2.3406,-2.4353,-2.5981,-2.7467,-2.8395,-2.8914,-2.9656,-3.0355,-3.1336,-3.2304,-3.301,-3.3889,-3.4784,-3.5343,-3.5616,-3.5753,-3.6025,-3.6016,-3.6142,-3.6519,-3.7656,-3.8411,-3.833,-3.9992,-4.087,-4.0656,-4.1072,-4.1412,-4.1546,-4.1098,-4.0847,-4.0847,-4.0476,-4.0279,-4.0149,-4.0051,-3.9866,-3.9323,-3.897,-3.8434,-1.6338,-1.6832,-1.7198,-1.7151,-1.7602,-1.7951,-1.7617,0.0,0.0,-1.6641,-1.6012,-1.5564,-1.5438,-1.5671,0.0,0.0,0.0,0.0,0.0,0.0,0.0,0.0,0.0,0.0,0.0,0.0,0.0,0.0,0.0,0.0,-2.0177,-2.0503,-2.0382,-1.9535,-1.9815,-1.9096,-1.7365,-1.6774,-1.6048,-1.5031,-1.3495,-1.3249,-1.3933,-1.3278,-1.3511,-1.4458,-1.4857,-1.5512,0.0,-1.5768,-1.5889,-1.653,-1.64,-1.639,-1.6499,-1.7147,-1.7405,-1.7405,-1.7781,-1.8442,-1.898,-1.8956,-1.8883,-1.8851,-1.9376,-1.9826,-2.0312,-2.0705,-2.1217,-2.1846,-2.2262,-2.3059,-2.4353,-2.6383,-2.7318,-2.7973,-2.9045,-2.9561,-2.9952,-3.0656,-3.1547,-3.2347,-3.3053,-3.4111,-3.5059,-3.5479,-3.5753,-3.6025,-3.6016,-3.6016,-3.6287,-3.6944,-3.7521,-3.8077,-3.8718,-3.9309,-3.9992,-4.0498,-4.0231,-4.0399,-4.1066,-4.0607,-4.0345,-4.0345,-4.0301,-4.0149,-3.9757,-3.9336,-3.8852,-3.8161,-3.7708,-3.7011,-1.5786,-1.6518,-1.7151,-1.7102,-1.7435,-1.7722,-1.7125,0.0,0.0,-1.5493,-1.4966,-1.4618,-1.4353,-1.4377,-1.4714,0.0,0.0,0.0,0.0,0.0,0.0,0.0,0.0,0.0,0.0,0.0,0.0,0.0,0.0,0.0,-1.9022,-1.9121,-1.9117,-1.8832,-1.8503,-1.785,-1.6857,-1.6292,-1.5519,-1.4823,-1.4549,-1.4459,-1.4679,-1.479,-1.4922,-1.5318,-1.5448,-1.6099,0.0,-1.6478,-1.6877,-1.7793,-1.7529,-1.7394,-1.7394,-1.7653,-1.7781,-1.791,-1.8425,-1.8816,-1.9206,-1.959,-1.9792,-1.9905,-2.0073,-2.0567,-2.1053,-2.1449,-2.161,-2.203,-2.258,-2.3834,-2.5323,-2.6879,-2.799,-2.8905,-2.943,-3.0083,-3.0602,-3.112,-3.1906,-3.2597,-3.3397,-3.4227,-3.5059,-3.5753,-3.5879,-3.6016,-3.6016,-3.6016,-3.6287,-3.7079,-3.7481,-3.7915,-3.8336,-3.9,-3.9406,-3.9393,-3.9603,-3.9773,-3.9894,-3.9715,-3.9596,-3.9615,-3.9056,-3.8777,-3.8654,-3.8069,-3.7322,-3.6633,-3.6065,-3.5386,-1.4809,-1.5695,-1.6428,-1.6329,-1.68,-1.7046,0.0,0.0,0.0,-1.4528,-1.4115,-1.3862,-1.3404,-1.3416,-1.3872,0.0,0.0,-1.6329,0.0,0.0,0.0,0.0,0.0,0.0,0.0,0.0,0.0,0.0,0.0,0.0,-1.7444,-1.759,-1.7778,-1.8131,-1.757,-1.6866,-1.5881,-1.5456,-1.4934,-1.4314,-1.4676,-1.5027,-1.5367,-1.5677,-1.6058,-1.6518,-1.6328,-1.692,0.0,-1.7334,-1.7742,-1.8587,-1.8139,-1.8033,-1.8033,-1.8168,-1.8296,-1.8425,-1.9066,-1.9328,-1.959,-2.0106,-2.054,-2.09,-2.0844,-2.1056,-2.1505,-2.1772,-2.1899,-2.2317,-2.3196,-2.4606,-2.606,-2.711,-2.8435,-2.9569,-2.9952,-3.0473,-3.1129,-3.1377,-3.1946,-3.2726,-3.3378,-3.4249,-3.5043,-3.5724,-3.5889,-3.6016,-3.6016,-3.6016,-3.6287,-3.6809,-3.736,-3.7702,-3.8212,-3.8739,-3.8904,-3.8702,-3.9078,-3.9288,-3.9008,-3.8969,-3.8884,-3.8664,-3.8028,-3.7592,-3.7379,-3.668,-3.5942,-3.5132,-3.4329,-3.3691,-1.3216,-1.4216,-1.494,-1.4616,-1.5245,-1.5723,0.0,0.0,0.0,-1.4075,-1.3614,-1.3109,-1.2833,-1.3147,-1.3688,-1.4315,-1.4862,-1.5499,-1.6666,0.0,0.0,0.0,0.0,0.0,0.0,0.0,0.0,0.0,0.0,0.0,-1.5766,-1.5909,-1.638,-1.7298,-1.7293,-1.6155,-1.39,-1.4319,-1.4077,-1.3056,-1.3169,-1.4222,-1.5628,-1.5541,-1.6224,-1.7553,-1.7161,-1.7621,0.0,-1.7833,-1.7896,-1.8578,-1.8198,-1.8033,-1.8039,-1.8442,-1.8828,-1.92,-1.945,-2.0094,-2.0609,-2.0609,-2.1054,-2.155,-2.155,-2.1557,-2.1563,-2.1563,-2.2073,-2.2914,-2.4265,-2.5367,-2.6407,-2.745,-2.8756,-2.9952,-3.0369,-3.0879,-3.1377,-3.1377,-3.1726,-3.227,-3.3075,-3.3869,-3.4555,-3.5412,-3.5753,-3.6016,-3.6016,-3.6016,-3.6142,-3.6519,-3.6809,-3.7368,-3.8181,-3.8191,-3.8314,-3.8681,-3.8681,-3.8603,-3.8529,-3.8508,-3.8166,-3.7455,-3.7434,-3.6912,-3.585,-3.5255,-3.4558,-3.3546,-3.271,-3.1816,-1.213,-1.2797,-1.3279,-1.2916,-1.3242,-1.3656,-1.3454,0.0,0.0,-1.3114,-1.2866,-1.2573,-1.2135,-1.2132,-1.257,-1.3538,-1.3912,-1.441,0.0,0.0,0.0,0.0,0.0,0.0,0.0,0.0,0.0,0.0,0.0,0.0,-1.6639,-1.7339,-1.7338,-1.6598,-1.631,-1.5603,-1.4332,-1.4057,-1.362,-1.3169,-1.3938,-1.4681,-1.5541,-1.6254,-1.6834,-1.7546,-1.7103,-1.7718,-1.8939,-1.8157,-1.8406,-1.9337,-1.8969,-1.8938,-1.9066,-1.9194,-1.9462,-1.9851,-2.0221,-2.0475,-2.0609,-2.0856,-2.1049,-2.1289,-2.1747,-2.195,-2.1941,-2.1991,-2.2598,-2.3429,-2.4057,-2.5062,-2.6163,-2.7425,-2.855,-2.9569,-2.9952,-3.0352,-3.075,-3.075,-3.1213,-3.1875,-3.2666,-3.3485,-3.4167,-3.4992,-3.5196,-3.5333,-3.5616,-3.5616,-3.587,-3.6384,-3.6395,-3.6747,-3.7739,-3.776,-3.776,-3.7583,-3.7563,-3.7225,-3.6633,-3.6295,-3.6085,-3.602,-3.5157,-3.4467,-3.3979,-3.3136,-3.2017,-3.0619,-3.0393,-2.9616,0.0,-1.168,-1.2017,-1.1825,-1.2091,0.0,0.0,0.0,0.0,0.0,-1.1956,-1.1708,-1.1368,-1.1572,-1.208,-1.2841,-1.3213,-1.3646,-1.4545,0.0,0.0,0.0,0.0,0.0,0.0,0.0,0.0,0.0,0.0,0.0,-1.755,-1.8107,-1.7935,-1.7007,-1.6593,-1.6131,-1.5207,-1.4798,-1.4466,-1.4209,-1.4893,-1.5517,-1.6224,-1.6877,-1.7474,-1.7908,-1.7479,-1.8088,0.0,-1.854,-1.8794,-1.9593,-1.923,-1.9328,-1.9577,-1.9577,-1.9966,-2.0482,-2.0736,-2.0982,-2.1235,-2.1362,-2.1488,-2.1522,-2.1961,-2.21,-2.2298,-2.2371,-2.2964,-2.3659,-2.4179,-2.5207,-2.6324,-2.7146,-2.8279,-2.9307,-2.9421,-2.9822,-3.01,-2.997,-3.0022,-3.0478,-3.1819,-3.225,-3.2866,-3.4277,-3.4637,-3.4784,-3.5205,-3.5189,-3.522,-3.5752,-3.5628,-3.5746,-3.6423,-3.6718,-3.68,-3.6567,-3.6406,-3.5982,-3.5142,-3.4705,-3.4468,-3.4209,-3.3309,-3.2568,-3.1893,-3.1011,-2.9924,-2.868,-2.8699,-2.8086,0.0,0.0,0.0,0.0,0.0,0.0,0.0,0.0,0.0,0.0,0.0,0.0,0.0,-1.1367,-1.2097,-1.2334,-1.2592,-1.2926,0.0,0.0,0.0,0.0,0.0,0.0,0.0,0.0,0.0,0.0,0.0,0.0,-1.8217,-1.8379,-1.833,-1.8535,-1.8277,-1.7607,-1.6402,-1.6382,-1.6172,-1.5771,-1.6027,-1.6702,-1.7658,-1.7535,-1.8047,0.0,-1.8314,-1.877,-1.9704,-1.9,-1.9054,-1.9587,-1.9224,-1.9328,-1.9577,-1.9705,-2.0342,-2.1109,-2.1109,-2.1607,-2.2111,-2.2111,-2.2111,-2.2111,-2.2111,-2.2328,-2.2701,-2.2957,-2.3355,-2.3833,-2.4424,-2.5651,-2.6684,-2.67,-2.8007,-2.9176,-2.8774,-2.929,-2.9552,-2.9307,-2.8353,-2.8444,-3.0563,-3.0378,-3.0754,-3.3255,-3.3928,-3.4324,-3.4737,-3.4359,-3.423,-3.4653,-3.4667,-3.4556,-3.4585,-3.5371,-3.5661,-3.5766,-3.5287,-3.4733,-3.3914,-3.3589,-3.3001,-3.2256,-3.1845,-3.0984,-2.9551,-2.8939,-2.823,-2.7335,-2.759,-2.7017,-0.9855,0.0,-1.004,-0.9697,-0.9884,0.0,0.0,0.0,0.0,0.0,0.0,0.0,0.0,0.0,-1.1227,-1.1256,-1.1622,-1.2033,-1.2582,0.0,0.0,0.0,0.0,0.0,0.0,0.0,0.0,0.0,0.0,-1.8782,-1.9026,-1.9596,-1.9699,-1.9239,-1.982,-1.8999,-1.6822,-1.6656,-1.6705,-1.6949,-1.6645,-1.7185,-1.8688,-1.8437,-1.8914,-1.9732,-1.9668,-1.9764,-2.0113,-1.9821,-1.9543,-1.9199,-1.9472,-1.9711,-2.01,-2.0602,-2.1102,-2.1481,-2.1734,-2.1985,-2.2111,-2.2111,-2.2237,-2.2487,-2.2487,-2.2708,-2.2957,-2.3085,-2.3643,-2.4431,-2.4897,-2.5697,-2.6477,-2.7018,-2.7527,-2.8114,-2.8386,-2.8527,-2.8518,-2.8114,-2.8362,-2.8868,-2.9621,-3.0012,-3.0797,-3.2272,-3.214,-3.2085,-3.3066,-3.2702,-3.2457,-3.3128,-3.2888,-3.2767,-3.3217,-3.4313,-3.4609,-3.3844,-3.3357,-3.286,-3.205,-3.1212,-3.0755,-3.0825,-2.9664,-2.8545,-2.7486,-2.7283,-2.6453,-2.4968,-2.5431,-2.5003,-0.9626,-0.9726,-0.98,-0.9805,-0.9747,-0.973,0.0,0.0,0.0,0.0,0.0,0.0,0.0,0.0,0.0,-1.1939,-1.1859,0.0,0.0,0.0,0.0,0.0,0.0,0.0,0.0,0.0,0.0,0.0,0.0,-1.9253,-1.9664,-1.982,-1.9875,-1.974,-2.0281,-1.9667,-1.7769,-1.8047,-1.794,-1.7576,-1.7832,-1.8413,-1.9328,-1.945,-1.9826,-2.0329,-2.0716,-2.0504,-2.0129,-2.0271,-1.9859,-1.912,-1.9515,-1.9839,-2.0234,-2.0856,-2.1362,-2.1859,-2.223,-2.2487,-2.2613,-2.2613,-2.2738,-2.3113,-2.3113,-2.323,-2.3561,-2.3735,-2.4471,-2.5115,-2.5468,-2.6121,-2.6698,-2.6886,-2.7318,-2.7708,-2.7592,-2.7998,-2.813,-2.7584,-2.7838,-2.8398,-2.9382,-2.9614,-3.0123,-3.1652,-3.1392,-3.1193,-3.185,-3.1217,-3.0971,-3.163,-3.1271,-3.0987,-3.1069,-3.2019,-3.2404,-3.2105,-3.1547,-3.0947,-3.0213,-2.9318,-2.8751,-2.8373,-2.7388,-2.671,-2.6221,-2.589,-2.5076,-2.3835,-2.3873,-2.3493,-0.9501,-0.9633,-0.9938,-1.0539,-1.0238,-0.9976,0.0,0.0,0.0,0.0,0.0,0.0,0.0,0.0,0.0,0.0,0.0,0.0,0.0,0.0,0.0,0.0,0.0,0.0,0.0,0.0,0.0,0.0,0.0,-1.9199,-1.9862,-1.9601,-1.9597,-1.9875,-2.0233,-1.9816,-1.8881,-1.9614,-1.9405,-1.8412,-1.9267,-1.9895,-2.0017,-2.0602,-2.0829,-2.0956,0.0,0.0,-2.0329,-2.0583,-2.0081,-1.92,-1.9577,-1.9966,-2.0361,-2.0982,-2.1607,-2.2237,-2.2613,-2.2863,-2.3113,-2.3113,-2.3355,-2.3611,-2.3611,-2.386,-2.4237,-2.4615,-2.5221,-2.5817,-2.6096,-2.6674,-2.72,-2.6926,-2.7185,-2.7451,-2.6926,-2.7467,-2.7998,-2.7334,-2.7288,-2.7725,-2.934,-2.9224,-2.9437,-3.1055,-3.0995,-3.0694,-3.0793,-3.0144,-2.9903,-3.016,-2.9874,-2.9552,-2.9282,-2.9361,-2.9743,-3.0346,-2.9839,-2.9108,-2.8335,-2.7711,-2.6971,-2.5738,-2.5233,-2.5099,-2.5211,-2.4672,-2.403,-2.3268,-2.2737,-2.2215,-0.9603,-0.9649,-0.9695,-0.9992,-1.018,-1.0267,0.0,0.0,0.0,0.0,0.0,0.0,0.0,0.0,0.0,0.0,0.0,0.0,0.0,0.0,0.0,0.0,0.0,0.0,0.0,0.0,0.0,0.0,0.0,-1.8812,-1.9203,-1.934,-1.9597,-1.9875,-2.019,-2.0074,-1.94,-1.9971,-2.0307,-2.0542,-2.0415,-2.0948,-2.2105,-2.1724,-2.1853,-2.2731,0.0,-2.1859,-2.0982,-2.1355,-2.0722,-1.9577,-2.0221,-2.0602,-2.0982,-2.1734,-2.223,-2.2606,-2.2863,-2.3113,-2.3106,-2.3487,-2.3611,-2.3611,-2.3984,-2.4232,-2.4564,-2.4967,-2.53,-2.5817,-2.6487,-2.6934,-2.72,-2.7443,-2.7459,-2.7326,-2.7443,-2.7459,-2.7334,-2.72,-2.7499,-2.7769,-2.8402,-2.866,-2.908,-3.0079,-2.9579,-2.9362,-2.9984,-2.9384,-2.9147,-2.9393,-2.9219,-2.893,-2.893,-2.8113,-2.7695,-2.7752,-2.8245,-2.7564,-2.5786,-2.5874,-2.5313,-2.365,-2.3732,-2.3605,-2.3126,-2.3208,-2.2684,-2.1429,-2.1676,-2.1276,-0.9233,-0.9269,-0.9408,-0.9485,-0.9806,-1.023,-1.0555,0.0,0.0,0.0,0.0,0.0,0.0,0.0,0.0,0.0,0.0,0.0,0.0,0.0,0.0,0.0,0.0,0.0,0.0,0.0,0.0,0.0,0.0,0.0,-1.8994,-1.9,-1.919,-1.9701,-1.9979,-2.026,-2.0247,-2.0642,-2.0901,-2.0747,-2.1235,-2.1806,-2.2574,-2.2426,-2.2606,-2.3106,0.0,-2.2362,-2.1362,-2.1488,-2.0982,-1.9973,-2.0602,-2.0982,-2.1235,-2.2111,-2.2613,-2.2856,-2.3106,-2.3106,-2.3113,-2.3238,-2.3611,-2.386,-2.4108,-2.4487,-2.4936,-2.529,-2.5502,-2.5746,-2.6241,-2.6498,-2.6759,-2.6881,-2.6493,-2.6098,-2.6238,-2.6518,-2.6651,-2.6651,-2.7737,-2.8735,-2.8766,-2.9235,-2.9767,-2.9885,-2.9463,-2.9144,-2.935,-2.8635,-2.8254,-2.8378,-2.813,-2.766,-2.707,-2.7034,-2.6857,-2.6665,-2.6541,-2.6002,-2.4856,-2.46,-2.3998,-2.287,-2.3001,-2.2882,-2.2362,-2.2487,-2.2111,-2.1109,-2.0849,-2.0342,-0.885,-0.8942,-0.9078,-0.9136,0.0,-1.0267,-1.0923,0.0,0.0,0.0,0.0,0.0,0.0,0.0,0.0,0.0,0.0,0.0,0.0,0.0,0.0,0.0,0.0,0.0,0.0,0.0,0.0,0.0,0.0,0.0,-1.9078,-1.8956,-1.9206,-1.9711,-2.0052,-2.0424,-2.0935,-2.1143,-2.1234,-2.106,-2.1871,-2.2468,-2.2839,-2.3017,-2.3113,-2.2988,-2.2856,-2.2362,-2.1355,-2.1481,-2.0982,-2.0234,-2.0982,-2.1355,-2.1601,-2.2277,-2.2747,-2.2996,-2.2996,-2.2996,-2.3003,-2.3208,-2.3604,-2.3984,-2.4108,-2.461,-2.5043,-2.5437,-2.5516,-2.5612,-2.6033,-2.6144,-2.6272,-2.6272,-2.588,-2.5464,-2.5619,-2.595,-2.6283,-2.6494,-2.7737,-2.8843,-2.9069,-2.9581,-2.9809,-2.9537,-2.9361,-2.9118,-2.8709,-2.8122,-2.7808,-2.7595,-2.733,-2.6643,-2.5428,-2.5911,-2.5982,-2.5549,-2.5114,-2.4713,-2.4119,-2.3596,-2.3062,-2.2237,-2.2237,-2.2111,-2.1734,-2.1734,-2.1355,-2.0602,-2.0081,-1.945,-0.8837,-0.8769,-0.8792,-0.8968,-0.9837,0.0,-1.0725,0.0,0.0,0.0,0.0,0.0,0.0,0.0,0.0,0.0,0.0,0.0,0.0,0.0,0.0,0.0,0.0,0.0,0.0,0.0,0.0,0.0,0.0,0.0,-1.9078,-1.9717,-1.9979,-2.0106,-2.038,-2.0641,-2.0641,-2.0909,-2.1551,-2.2311,-2.2549,-2.2922,-2.3552,-2.3245,-2.2988,-2.2606,-2.2362,-2.1607,-2.0736,-2.0982,-2.0862,-2.0609,-2.1362,-2.1985,-2.2445,-2.2523,-2.2659,-2.2659,-2.2659,-2.2659,-2.271,-2.3383,-2.3611,-2.3736,-2.4363,-2.461,-2.4741,-2.502,-2.5151,-2.5302,-2.5969,-2.6144,-2.6272,-2.6536,-2.6681,-2.6668,-2.6937,-2.6831,-2.6803,-2.7511,-2.721,-2.7245,-2.8246,-2.8461,-2.8469,-2.8444,-2.8709,-2.87,-2.8403,-2.8263,-2.7991,-2.7377,-2.6961,-2.6178,-2.4749,-2.4688,-2.4413,-2.352,-2.3836,-2.3674,-2.2715,-2.2701,-2.2171,-2.1242,-2.1235,-2.0982,-2.0736,-2.0736,-2.0227,-1.92,-1.92,-1.881,-0.8678,-0.8593,-0.854,-0.8645,0.0,0.0,0.0,0.0,0.0,0.0,0.0,0.0,0.0,0.0,0.0,0.0,0.0,0.0,0.0,0.0,0.0,0.0,0.0,0.0,0.0,0.0,0.0,0.0,0.0,0.0,-1.9077,-1.9618,-1.9966,-2.0354,-2.0482,-2.0736,-2.0862,-2.1235,-2.1724,-2.2198,-2.2342,-2.2539,-2.303,-2.2711,-2.2443,-2.2312,-2.1498,-2.1156,-2.0967,-2.0842,-2.0949,-2.1215,-2.1776,-2.2082,-2.2399,-2.2396,-2.2352,-2.2352,-2.2352,-2.2465,-2.263,-2.2948,-2.3297,-2.371,-2.3915,-2.4232,-2.461,-2.4734,-2.498,-2.5167,-2.5429,-2.55,-2.55,-2.5633,-2.5383,-2.5114,-2.5506,-2.5412,-2.5467,-2.5989,-2.6482,-2.6847,-2.7245,-2.7711,-2.7981,-2.7981,-2.8056,-2.8046,-2.7646,-2.7198,-2.6745,-2.6342,-2.5502,-2.4886,-2.4642,-2.3792,-2.323,-2.2911,-2.3289,-2.308,-2.2388,-2.2055,-2.185,-2.1362,-2.0982,-2.0736,-2.0609,-2.0221,-1.9711,-1.9072,-1.8688,-1.8033,-0.8305,-0.8306,-0.8305,0.0,0.0,0.0,0.0,0.0,0.0,0.0,0.0,0.0,0.0,0.0,0.0,0.0,0.0,0.0,0.0,0.0,0.0,0.0,0.0,0.0,0.0,0.0,0.0,0.0,0.0,0.0,0.0,-1.9732,-2.0258,-2.0729,-2.0736,-2.0856,-2.1109,-2.1362,-2.1481,-2.1607,-2.1666,-2.2047,-2.2598,-2.2391,-2.2167,-2.1782,-2.1107,-2.0856,-2.0922,-2.0799,-2.1091,-2.1832,-2.1885,-2.2133,-2.2301,-2.2103,-2.203,-2.203,-2.2142,-2.226,-2.2424,-2.2623,-2.2968,-2.3248,-2.3352,-2.3787,-2.4184,-2.4416,-2.4692,-2.4968,-2.4956,-2.498,-2.5111,-2.5111,-2.4742,-2.4611,-2.4872,-2.4922,-2.4985,-2.5358,-2.574,-2.6123,-2.6364,-2.67,-2.6843,-2.6719,-2.6775,-2.6745,-2.6493,-2.59,-2.5334,-2.4962,-2.4015,-2.3532,-2.368,-2.2716,-2.2079,-2.1897,-2.2036,-2.2114,-2.1909,-2.1479,-2.126,-2.1229,-2.0602,-2.0227,-2.01,-1.9584,-1.8944,-1.8425,-1.7831,-1.7317,-0.7771,-0.7818,0.0,0.0,0.0,0.0,0.0,0.0,0.0,0.0,0.0,0.0,0.0,0.0,0.0,0.0,0.0,0.0,0.0,0.0,0.0,0.0,0.0,0.0,0.0,0.0,0.0,0.0,0.0,0.0,0.0,-2.0551,-2.0808,-2.1096,-2.1109,-2.1109,-2.1109,-2.1109,-2.0982,-2.0602,-2.0637,-2.1394,-2.2606,-2.2591,-2.1971,-2.1076,-2.1162,-2.0792,-2.0185,-2.0557,-2.1216,-2.2076,-2.1761,-2.2003,-2.2535,-2.1928,-2.1693,-2.1693,-2.2037,-2.2146,-2.2199,-2.2535,-2.2647,-2.264,-2.2982,-2.3093,-2.3288,-2.3875,-2.4338,-2.4545,-2.4648,-2.4857,-2.5111,-2.5111,-2.5373,-2.5635,-2.5635,-2.5635,-2.5731,-2.6072,-2.535,-2.4853,-2.5592,-2.5373,-2.5107,-2.4742,-2.4986,-2.5107,-2.4735,-2.4346,-2.3962,-2.3114,-2.2546,-2.1985,-2.1684,-2.1417,-2.0917,-2.0247,-2.0119,-2.0524,-2.1163,-2.0531,-2.0296,-2.0596,-1.996,-1.945,-1.9072,-1.8693,-1.805,-1.6996,-1.677,-1.6408,-0.7723,0.0,0.0,0.0,0.0,0.0,0.0,0.0,0.0,0.0,0.0,0.0,0.0,0.0,0.0,0.0,0.0,0.0,0.0,0.0,0.0,0.0,0.0,0.0,0.0,0.0,0.0,0.0,0.0,0.0,0.0,-1.9889,-2.0255,-2.0795,-2.0808,-2.0902,-2.1109,-2.1362,-2.1362,-2.1355,-2.1555,-2.1445,-2.0886,-2.0502,-2.0213,-1.9919,-1.9389,-1.938,-1.9659,-2.0559,-2.1159,-2.1403,-2.1561,-2.1633,-2.1594,-2.1414,-2.1314,-2.1357,-2.1465,-2.158,-2.1862,-2.1965,-2.2068,-2.226,-2.2706,-2.2961,-2.3157,-2.3618,-2.3955,-2.4232,-2.4209,-2.4355,-2.4487,-2.498,-2.4936,-2.489,-2.489,-2.4758,-2.454,-2.4641,-2.452,-2.4269,-2.4494,-2.4706,-2.4727,-2.4605,-2.4532,-2.4164,-2.3301,-2.2765,-2.2229,-2.2131,-2.1662,-2.124,-2.1073,-2.0862,-2.0309,-1.9367,-1.8972,-1.9,-1.9504,-1.9324,-1.9125,-1.9007,-1.8566,-1.8283,-1.841,-1.7825,-1.7183,-1.6764,-1.6095,-1.5569,-0.7416,0.0,0.0,0.0,0.0,0.0,0.0,0.0,0.0,0.0,0.0,0.0,0.0,0.0,0.0,0.0,0.0,0.0,0.0,0.0,0.0,0.0,0.0,0.0,0.0,0.0,0.0,0.0,0.0,0.0,0.0,-1.9601,-1.9958,-2.0494,-2.0501,-2.0588,-2.0762,-2.0886,-2.1004,-2.0886,-2.1012,-2.0496,-1.9447,-1.976,-1.9787,-1.9481,-1.8947,-1.9006,-1.9581,-2.0421,-2.0902,-2.1078,-2.1328,-2.1348,-2.1389,-2.1274,-2.114,-2.1211,-2.1325,-2.1554,-2.1698,-2.1669,-2.1933,-2.2104,-2.2371,-2.2578,-2.2998,-2.3335,-2.3663,-2.394,-2.3946,-2.3984,-2.4232,-2.461,-2.461,-2.4355,-2.4355,-2.4232,-2.4108,-2.4108,-2.4026,-2.391,-2.3784,-2.371,-2.3508,-2.3254,-2.3087,-2.2767,-2.2075,-2.1539,-2.1235,-2.1235,-2.075,-2.019,-1.9911,-1.9683,-1.9136,-1.8394,-1.7907,-1.7503,-1.7503,-1.7661,-1.7843,-1.7772,-1.7185,-1.6937,-1.741,-1.6669,-1.6157,-1.59,-1.5396,-1.4742,0.0,0.0,0.0,0.0,0.0,0.0,0.0,0.0,0.0,0.0,0.0,0.0,0.0,0.0,0.0,0.0,0.0,0.0,0.0,0.0,0.0,0.0,0.0,0.0,0.0,0.0,0.0,0.0,0.0,0.0,0.0,-1.976,-1.9893,-2.0187,-2.0194,-2.0194,-2.0194,-2.0221,-1.9978,-1.9709,-1.9542,-1.9076,-1.8507,-1.9807,-2.0143,-1.9562,-1.921,-1.9246,-1.9623,-2.0009,-2.0421,-2.1002,-2.0977,-2.1296,-2.1596,-2.1206,-2.114,-2.1203,-2.1554,-2.1668,-2.1668,-2.1668,-2.187,-2.1992,-2.203,-2.2245,-2.2557,-2.2922,-2.3247,-2.3559,-2.3522,-2.3736,-2.3976,-2.3946,-2.3961,-2.4108,-2.3984,-2.3961,-2.3938,-2.3938,-2.3668,-2.3398,-2.3025,-2.2537,-2.1989,-2.1403,-2.1286,-2.1163,-2.1156,-2.075,-2.0537,-2.0569,-1.9701,-1.8951,-1.8711,-1.8234,-1.7714,-1.7288,-1.6701,-1.6084,-1.5424,-1.6056,-1.6403,-1.6585,-1.5758,-1.5508,-1.5986,-1.5376,-1.4875,-1.4619,-1.4505,-1.4121,0.0,0.0,0.0,0.0,0.0,0.0,0.0,0.0,0.0,0.0,0.0,0.0,0.0,0.0,0.0,0.0,0.0,0.0,0.0,0.0,0.0,0.0,0.0,0.0,0.0,0.0,0.0,0.0,0.0,0.0,-1.9089,-1.9089,-1.9344,-1.988,-1.9893,-2.0006,-2.0237,-2.0234,-1.9993,-1.9648,-1.9516,-1.9134,-1.8835,-1.8634,-1.8336,-1.8021,-1.7877,-1.8125,-1.8682,-1.9261,-1.9756,-2.006,-2.0354,-2.0502,-2.0593,-2.076,-2.0762,-2.0845,-2.1203,-2.1325,-2.1325,-2.1325,-2.1369,-2.1472,-2.1737,-2.1862,-2.2031,-2.259,-2.2752,-2.2818,-2.3149,-2.3238,-2.3171,-2.2675,-2.3177,-2.3611,-2.3355,-2.3155,-2.2725,-2.2371,-2.242,-2.2374,-2.2118,-2.2074,-2.2118,-2.1982,-2.1779,-2.1533,-2.1163,-2.0275,-1.9651,-1.9882,-1.8961,-1.8268,-1.7839,-1.7719,-1.7052,-1.5867,-1.5878,-1.5447,-1.413,-1.4872,-1.5024,-1.442,-1.4343,-1.4409,-1.4751,-1.4402,-1.4102,-1.3855,-1.3743,-1.321,0.0,0.0,0.0,0.0,0.0,0.0,0.0,0.0,0.0,0.0,0.0,0.0,0.0,0.0,0.0,0.0,0.0,0.0,0.0,0.0,0.0,0.0,0.0,0.0,0.0,0.0,0.0,0.0,0.0,-1.8249,-1.8249,-1.8477,-1.8663,-1.8929,-1.9057,-1.9165,-1.9158,-1.9319,-1.9203,-1.8705,-1.8698,-1.8583,-1.8121,-1.7993,-1.7781,-1.7446,-1.7577,-1.7956,-1.8458,-1.9075,-1.9383,-1.9633,-1.9991,-2.0294,-2.0385,-2.0614,-2.0646,-2.0723,-2.0845,-2.1089,-2.1096,-2.0859,-2.0953,-2.1227,-2.1284,-2.1317,-2.151,-2.1818,-2.1911,-2.1947,-2.2112,-2.2162,-2.2119,-2.1833,-2.2277,-2.2842,-2.2559,-2.227,-2.2154,-2.1933,-2.2161,-2.2268,-2.1776,-2.154,-2.1432,-2.1425,-2.1188,-2.0951,-2.0944,-1.995,-1.9261,-1.9412,-1.8548,-1.7662,-1.7163,-1.7053,-1.6396,-1.516,-1.5122,-1.4581,-1.3501,-1.3839,-1.3797,-1.3355,-1.3206,-1.3354,-1.3806,-1.3361,-1.3071,-1.3084,-1.2878,-1.2517,0.0,0.0,0.0,0.0,0.0,0.0,0.0,0.0,0.0,0.0,0.0,0.0,0.0,0.0,0.0,0.0,0.0,0.0,0.0,0.0,0.0,0.0,0.0,0.0,0.0,0.0,0.0,0.0,0.0,-1.7483,-1.7483,-1.7811,-1.8033,-1.8144,-1.8373,-1.8353,-1.8183,-1.8346,-1.8125,-1.7636,-1.7792,-1.7563,-1.6975,-1.7479,-1.762,-1.7392,-1.7619,-1.7895,-1.827,-1.8822,-1.9191,-1.935,-1.9839,-2.0053,-2.0192,-2.042,-2.048,-2.0608,-2.0601,-2.0845,-2.0974,-2.0507,-2.0677,-2.1,-2.0772,-2.0837,-2.104,-2.1096,-2.111,-2.1124,-2.1173,-2.1194,-2.118,-2.1124,-2.1469,-2.1882,-2.1676,-2.1711,-2.1697,-2.1889,-2.2168,-2.2054,-2.1565,-2.1129,-2.0835,-2.0828,-2.0551,-2.0307,-2.0551,-1.9685,-1.892,-1.8963,-1.8101,-1.7245,-1.6657,-1.627,-1.5659,-1.462,-1.4364,-1.3843,-1.3178,-1.2935,-1.2754,-1.2871,-1.2217,-1.2287,-1.2969,-1.2226,-1.2075,-1.2267,-1.2123,-1.1791,0.0,0.0,0.0,0.0,0.0,0.0,0.0,0.0,0.0,0.0,0.0,0.0,0.0,0.0,0.0,0.0,0.0,0.0,0.0,0.0,0.0,0.0,0.0,0.0,0.0,0.0,0.0,0.0,-1.7142,-1.7254,-1.7254,-1.7477,-1.7817,-1.8144,-1.8373,-1.8474,-1.8428,-1.824,-1.802,-1.7553,-1.7141,-1.6573,-1.6026,-1.6552,-1.6948,-1.708,-1.6837,-1.7223,-1.8059,-1.8159,-1.8429,-1.8992,-1.9356,-1.9459,-1.9542,-1.9877,-1.9958,-1.9924,-2.027,-2.0385,-2.0385,-2.027,-2.0298,-2.0449,-2.0333,-2.0361,-2.0452,-2.0718,-2.0795,-2.0858,-2.1124,-2.1194,-2.1124,-2.0509,-2.0674,-2.0956,-2.1176,-2.1505,-2.1513,-2.106,-2.0923,-2.1008,-2.125,-2.1352,-2.1389,-2.1101,-2.0855,-2.0498,-2.025,-1.9235,-1.844,-1.8416,-1.7713,-1.706,-1.625,-1.5782,-1.5153,-1.4212,-1.3815,-1.3484,-1.2943,-1.2813,-1.2619,-1.2102,-1.1964,-1.1845,-1.1751,-1.1645,-1.1414,-1.1153,-1.1038,-1.0652,0.0,0.0,0.0,0.0,0.0,0.0,0.0,0.0,0.0,0.0,0.0,0.0,0.0,0.0,0.0,0.0,0.0,0.0,0.0,0.0,0.0,0.0,0.0,0.0,0.0,0.0,0.0,0.0,-1.635,-1.6568,-1.6683,-1.6798,-1.7118,-1.7551,-1.7666,-1.7822,-1.7796,-1.7593,-1.7378,-1.7135,-1.6627,-1.6398,-1.6288,-1.6679,-1.6839,-1.6637,-1.6744,-1.7151,-1.7489,-1.7817,-1.8294,-1.8651,-1.8937,-1.9226,-1.9354,-1.9639,-1.9821,-1.9811,-2.0207,-2.0387,-2.0501,-2.0336,-2.027,-2.027,-2.0046,-1.9931,-1.985,-1.998,-2.0021,-2.0048,-2.0185,-2.0219,-2.0067,-1.9821,-1.9999,-2.0294,-2.0361,-2.0812,-2.1157,-2.1224,-2.0795,-2.0578,-2.1033,-2.0953,-2.0605,-2.0067,-1.9917,-1.961,-1.9211,-1.8619,-1.8066,-1.7661,-1.7292,-1.6816,-1.5895,-1.5589,-1.5024,-1.3761,-1.3622,-1.3068,-1.2216,-1.2216,-1.1988,-1.1534,-1.1637,-1.1588,-1.1527,-1.1232,-1.1129,-1.1215,-1.0658,-1.0306,0.0,0.0,0.0,0.0,0.0,0.0,0.0,0.0,0.0,0.0,0.0,0.0,0.0,0.0,0.0,0.0,0.0,0.0,0.0,0.0,0.0,0.0,0.0,0.0,0.0,0.0,0.0,0.0,-1.5962,-1.6105,-1.6217,-1.643,-1.6749,-1.7067,-1.7173,-1.7279,-1.7279,-1.7279,-1.706,-1.673,-1.653,-1.653,-1.6736,-1.6959,-1.6733,-1.6372,-1.6888,-1.7179,-1.7346,-1.7721,-1.8079,-1.851,-1.8811,-1.9031,-1.9278,-1.9617,-1.9718,-1.9835,-1.9988,-2.0174,-2.043,-2.0207,-2.0046,-2.0046,-1.9815,-1.9591,-1.9366,-1.9366,-1.9366,-1.9366,-1.9366,-1.9366,-1.9366,-1.9243,-1.9529,-1.9753,-1.9746,-2.0147,-2.0537,-2.0992,-2.0557,-2.0235,-2.0664,-2.0303,-1.9776,-1.9311,-1.9022,-1.8799,-1.8149,-1.7912,-1.7537,-1.6859,-1.6756,-1.6434,-1.5453,-1.5306,-1.48,-1.3613,-1.3218,-1.2696,-1.178,-1.178,-1.1516,-1.1115,-1.1261,-1.133,-1.133,-1.0927,-1.0795,-1.0938,-1.0391,-1.0053,0.0,0.0,0.0,0.0,0.0,0.0,0.0,0.0,0.0,0.0,0.0,0.0,0.0,0.0,0.0,0.0,0.0,0.0,0.0,0.0,0.0,0.0,0.0,0.0,0.0,0.0,0.0,0.0,-1.5964,-1.6217,-1.5891,-1.6749,-1.7067,-1.673,-1.7265,-1.7582,-1.7582,-1.7279,-1.706,-1.673,-1.673,-1.673,-1.673,-1.6749,-1.6655,-1.6687,-1.6965,-1.745,-1.789,-1.7733,-1.8011,-1.8517,-1.8811,-1.8925,-1.8925,-1.9265,-1.9555,-1.9747,-1.948,-1.9562,-1.9795,-1.9475,-1.9482,-1.9482,-1.9482,-1.9366,-1.9366,-1.9366,-1.9366,-1.9366,-1.9366,-1.9366,-1.9366,-1.8997,-1.9083,-1.9404,-1.9674,-1.98,-1.9761,-1.9517,-1.96,-1.9779,-1.9805,-1.9657,-1.9571,-1.9182,-1.8804,-1.8326,-1.7421,-1.7141,-1.6719,-1.5762,-1.5878,-1.5813,-1.4977,-1.4571,-1.4272,-1.3875,-1.296,-1.2177,-1.178,-1.178,-1.1516,-1.0721,-1.1108,-1.1104,-1.0707,-1.0714,-1.0394,-0.9847,-0.9722,-0.9469,0.0,0.0,0.0,0.0,0.0,0.0,0.0,0.0,0.0,0.0,0.0,0.0,0.0,0.0,0.0,0.0,0.0,0.0,0.0,0.0,0.0,0.0,0.0,0.0,0.0,0.0,0.0,0.0,0.0,-1.5597,-1.5894,-1.5997,-1.6285,-1.6678,-1.6607,-1.6407,-1.6298,-1.6516,-1.6523,-1.6208,-1.649,-1.6684,-1.6691,-1.6871,-1.7067,-1.6961,-1.6844,-1.706,-1.7473,-1.7576,-1.7809,-1.8164,-1.8243,-1.8467,-1.8597,-1.8793,-1.8928,-1.9248,-1.9337,-1.9546,-1.9777,-1.9984,-1.9815,-1.9591,-1.9359,-1.9243,-1.9004,-1.8771,-1.8771,-1.8771,-1.8771,-1.8771,-1.8771,-1.8648,-1.8743,-1.8954,-1.8967,-1.9184,-1.9491,-1.9731,-1.9461,-1.9144,-1.9247,-1.8987,-1.8554,-1.7926,-1.7942,-1.7569,-1.6551,-1.6658,-1.6376,-1.5684,-1.5676,-1.551,-1.5037,-1.4636,-1.4141,-1.3613,-1.2964,-1.2309,-1.1516,-1.138,-1.1118,-1.0455,-1.0455,-1.0588,-1.0721,-1.0455,-1.0261,-1.0119,-0.9579,-0.9189,0.0,0.0,0.0,0.0,0.0,0.0,0.0,0.0,0.0,0.0,0.0,0.0,0.0,0.0,0.0,0.0,0.0,0.0,0.0,0.0,0.0,0.0,0.0,0.0,0.0,0.0,0.0,0.0,0.0,0.0,-1.5702,-1.5802,-1.6094,-1.6695,-1.6302,-1.6105,-1.5897,-1.6212,-1.6364,-1.6354,-1.6451,-1.6703,-1.6892,-1.6879,-1.6976,-1.7067,-1.6842,-1.6842,-1.7173,-1.7272,-1.7483,-1.7734,-1.7815,-1.8043,-1.8394,-1.8489,-1.8617,-1.8829,-1.9033,-1.9169,-1.9405,-1.9598,-1.9461,-1.9229,-1.912,-1.8881,-1.8648,-1.8415,-1.8421,-1.8421,-1.8421,-1.8305,-1.8311,-1.8311,-1.8214,-1.8245,-1.8224,-1.8694,-1.9092,-1.9125,-1.8778,-1.8493,-1.8512,-1.8168,-1.7661,-1.7152,-1.7038,-1.6663,-1.5915,-1.5966,-1.5863,-1.5057,-1.5029,-1.4952,-1.4534,-1.4253,-1.3853,-1.3392,-1.2931,-1.2173,-1.1247,-1.1247,-1.085,-1.0193,-1.0145,-1.0274,-1.0588,-1.0193,-0.9971,-0.9915,-0.9422,-0.9029,0.0,0.0,0.0,0.0,0.0,0.0,0.0,0.0,0.0,0.0,0.0,0.0,0.0,0.0,0.0,0.0,0.0,0.0,0.0,0.0,0.0,0.0,0.0,0.0,0.0,0.0,0.0,0.0,-1.5126,-1.5469,-1.5469,-1.5991,-1.6406,-1.6693,-1.67,-1.67,-1.6593,-1.6693,-1.684,-1.7121,-1.6544,-1.6619,-1.7153,-1.6561,-1.6475,-1.673,-1.673,-1.6849,-1.7173,-1.6842,-1.6842,-1.7205,-1.7479,-1.7698,-1.8029,-1.8353,-1.8421,-1.8444,-1.8353,-1.844,-1.8503,-1.8436,-1.8415,-1.8421,-1.8421,-1.8421,-1.8421,-1.8421,-1.8421,-1.8421,-1.8415,-1.8194,-1.7972,-1.7972,-1.7503,-1.7103,-1.7703,-1.8325,-1.8441,-1.7582,-1.7813,-1.7958,-1.7354,-1.707,-1.6985,-1.699,-1.6343,-1.5744,-1.5145,-1.5311,-1.5024,-1.3982,-1.4162,-1.411,-1.3348,-1.3414,-1.3291,-1.31,-1.2608,-1.1912,-1.1247,-1.1247,-1.085,-1.0193,-1.0048,-1.0045,-1.019,-0.9791,-0.9522,-0.9117,-0.9117,-0.872,-0.6362,0.0,0.0,0.0,0.0,0.0,0.0,0.0,0.0,0.0,0.0,0.0,0.0,0.0,0.0,0.0,0.0,0.0,0.0,0.0,0.0,0.0,0.0,0.0,0.0,0.0,0.0,0.0,-1.4576,-1.4807,-1.5208,-1.5705,-1.5914,-1.5808,-1.6002,-1.5814,-1.5221,-1.5611,-1.5742,-1.5719,-1.5953,-1.61,-1.6248,-1.6262,-1.6355,-1.6424,-1.6211,-1.6318,-1.6537,-1.663,-1.673,-1.6849,-1.6925,-1.6957,-1.7064,-1.7171,-1.7352,-1.7598,-1.7489,-1.7817,-1.8135,-1.8097,-1.8256,-1.8305,-1.82,-1.8083,-1.8077,-1.7837,-1.7719,-1.7719,-1.7491,-1.7373,-1.7262,-1.7015,-1.6918,-1.6949,-1.7132,-1.748,-1.7643,-1.7696,-1.742,-1.706,-1.6921,-1.6402,-1.6181,-1.61,-1.5722,-1.5342,-1.491,-1.4959,-1.4755,-1.4025,-1.413,-1.4078,-1.3712,-1.3299,-1.2947,-1.2898,-1.2281,-1.178,-1.1247,-1.1247,-1.085,-1.0193,-1.0048,-0.978,-0.9386,-0.9165,-0.9165,-0.9117,-0.8587,-0.8323,0.0,0.0,0.0,0.0,0.0,0.0,-0.6602,-0.6883,0.0,0.0,0.0,0.0,0.0,0.0,0.0,0.0,0.0,0.0,0.0,0.0,0.0,0.0,0.0,0.0,0.0,-1.3225,-1.3454,-1.4129,-1.4135,-1.438,-1.5077,-1.5621,-1.5712,-1.5506,-1.5667,-1.5484,-1.4844,-1.513,-1.5284,-1.5293,-1.5337,-1.557,-1.5747,-1.5811,-1.5836,-1.5946,-1.5949,-1.5998,-1.6111,-1.6311,-1.6418,-1.6524,-1.6524,-1.663,-1.673,-1.673,-1.6731,-1.6908,-1.7032,-1.7328,-1.7534,-1.7759,-1.794,-1.7954,-1.7726,-1.7614,-1.7497,-1.7132,-1.7126,-1.7009,-1.6897,-1.6779,-1.6779,-1.6537,-1.6533,-1.664,-1.6754,-1.6513,-1.6525,-1.6992,-1.6848,-1.6436,-1.6106,-1.5711,-1.5388,-1.5228,-1.5075,-1.4842,-1.4304,-1.4494,-1.4359,-1.3843,-1.3806,-1.374,-1.3513,-1.2878,-1.2541,-1.2465,-1.2003,-1.1648,-1.1247,-1.1247,-1.0986,-1.0455,-1.0048,-0.9493,-0.8778,-0.8839,-0.8867,-0.8851,-0.8323,-0.8058,0.0,0.0,0.0,0.0,0.0,0.0,-0.6073,-0.6143,-0.6298,0.0,0.0,0.0,0.0,0.0,0.0,0.0,0.0,0.0,0.0,0.0,0.0,0.0,0.0,0.0,-1.278,-1.278,-1.3146,-1.3845,-1.3863,-1.4247,-1.4975,-1.5455,-1.5569,-1.5445,-1.5445,-1.5274,-1.5032,-1.5038,-1.5158,-1.5398,-1.4952,-1.5004,-1.55,-1.5232,-1.5276,-1.5517,-1.5777,-1.5891,-1.5891,-1.5891,-1.5998,-1.6217,-1.6217,-1.6424,-1.6624,-1.6624,-1.6424,-1.6291,-1.6796,-1.6776,-1.6666,-1.7158,-1.7337,-1.7367,-1.702,-1.6903,-1.6903,-1.6537,-1.6537,-1.6537,-1.6419,-1.6419,-1.6419,-1.6419,-1.6194,-1.6076,-1.6307,-1.5591,-1.5178,-1.5745,-1.5969,-1.5813,-1.5131,-1.4775,-1.4591,-1.4515,-1.4369,-1.4057,-1.3607,-1.3978,-1.4001,-1.3389,-1.3449,-1.3369,-1.2826,-1.2483,-1.2203,-1.1895,-1.1773,-1.1468,-1.109,-1.1073,-1.0941,-1.0694,-0.9895,-0.9175,-0.8397,-0.8682,-0.875,-0.8587,-0.8189,-0.7791,0.0,0.0,0.0,0.0,0.0,0.0,-0.5826,-0.5974,-0.6336,0.0,0.0,0.0,0.0,0.0,0.0,0.0,0.0,0.0,0.0,0.0,0.0,0.0,0.0,0.0,-1.278,-1.2962,-1.3168,-1.3586,-1.3774,-1.4072,-1.4383,-1.4663,-1.4883,-1.5057,-1.507,-1.4992,-1.4734,-1.474,-1.4765,-1.4813,-1.4759,-1.4898,-1.5214,-1.5112,-1.5237,-1.5511,-1.5577,-1.5684,-1.5891,-1.5891,-1.5891,-1.5998,-1.5998,-1.5998,-1.6099,-1.6099,-1.5897,-1.5737,-1.5932,-1.6063,-1.6061,-1.6258,-1.6488,-1.6655,-1.6655,-1.6655,-1.6537,-1.6537,-1.6537,-1.6419,-1.6194,-1.62,-1.6076,-1.5472,-1.5353,-1.5235,-1.5007,-1.4888,-1.4665,-1.4585,-1.4766,-1.4779,-1.4612,-1.4156,-1.3711,-1.3747,-1.3577,-1.3336,-1.3256,-1.3593,-1.3756,-1.3432,-1.3367,-1.3221,-1.2813,-1.2114,-1.1641,-1.1479,-1.0859,-1.0548,-1.0661,-1.0555,-1.0548,-1.0534,-0.9745,-0.9163,-0.8654,-0.859,-0.8698,-0.8587,-0.7925,-0.7526,0.0,0.0,0.0,-0.5167,0.0,0.0,0.0,-0.5876,-0.614,0.0,0.0,0.0,0.0,0.0,0.0,0.0,0.0,0.0,0.0,0.0,0.0,0.0,0.0,0.0,-1.2557,-1.2441,-1.2626,-1.329,-1.3627,-1.3973,-1.405,-1.4321,-1.4455,-1.4465,-1.4477,-1.4266,-1.3927,-1.4052,-1.4022,-1.3925,-1.406,-1.419,-1.4325,-1.4605,-1.471,-1.4718,-1.5013,-1.5211,-1.5297,-1.5428,-1.5481,-1.5493,-1.563,-1.5684,-1.5684,-1.5464,-1.5363,-1.5296,-1.5545,-1.5683,-1.5818,-1.6086,-1.6337,-1.6537,-1.6307,-1.6188,-1.607,-1.607,-1.607,-1.607,-1.5839,-1.572,-1.5477,-1.5235,-1.4997,-1.4764,-1.4655,-1.4535,-1.4291,-1.4052,-1.3889,-1.384,-1.384,-1.3476,-1.3026,-1.3005,-1.2973,-1.2879,-1.2612,-1.2902,-1.312,-1.286,-1.2921,-1.2785,-1.2669,-1.1953,-1.1411,-1.1411,-1.077,-1.0453,-1.0599,-1.0463,-1.0256,-0.9867,-0.961,-0.9062,-0.8489,-0.8543,-0.8503,-0.8503,-0.7974,-0.774,0.0,0.0,0.0,0.0,0.0,-0.5458,0.0,0.0,0.0,0.0,0.0,0.0,0.0,0.0,0.0,0.0,0.0,0.0,0.0,0.0,0.0,0.0,0.0,0.0,-1.2105,-1.1855,-1.1984,-1.2765,-1.333,-1.3572,-1.3661,-1.3926,-1.4008,-1.3718,-1.3808,-1.3556,-1.315,-1.335,-1.3386,-1.3151,-1.3362,-1.3494,-1.3556,-1.3902,-1.4099,-1.3933,-1.4402,-1.4585,-1.4605,-1.4809,-1.5029,-1.5001,-1.5376,-1.5482,-1.5374,-1.5148,-1.4934,-1.4968,-1.5212,-1.5461,-1.571,-1.5971,-1.6104,-1.6307,-1.6081,-1.5844,-1.5601,-1.5601,-1.5596,-1.5477,-1.5477,-1.524,-1.4997,-1.4997,-1.4764,-1.453,-1.4416,-1.4291,-1.4052,-1.3688,-1.3324,-1.3084,-1.3084,-1.284,-1.2535,-1.2445,-1.2578,-1.2414,-1.2082,-1.2452,-1.2599,-1.2354,-1.2407,-1.2509,-1.2348,-1.1647,-1.1285,-1.125,-1.0746,-1.0432,-1.0585,-1.0367,-1.0003,-0.9252,-0.9334,-0.8951,-0.8236,-0.8312,-0.8372,-0.8418,-0.8018,-0.7936,0.0,0.0,0.0,0.0,-0.5544,0.0,0.0,0.0,-0.5939,-0.5959,0.0,0.0,0.0,0.0,0.0,0.0,0.0,0.0,0.0,0.0,0.0,0.0,0.0,0.0,0.0,-1.1558,-1.1739,-1.192,-1.2197,-1.2507,-1.2668,-1.3052,-1.3262,-1.3163,-1.3422,-1.3355,-1.2871,-1.3088,-1.3216,-1.3245,-1.318,-1.3317,-1.3454,-1.3529,-1.3734,-1.3922,-1.3999,-1.41,-1.4384,-1.4412,-1.4562,-1.4803,-1.5275,-1.5369,-1.5041,-1.5041,-1.4821,-1.4639,-1.49,-1.5027,-1.5037,-1.5286,-1.5525,-1.5715,-1.572,-1.5596,-1.5601,-1.5601,-1.5359,-1.5116,-1.5116,-1.4883,-1.465,-1.4411,-1.4291,-1.4172,-1.3928,-1.3808,-1.3688,-1.3324,-1.296,-1.2719,-1.2719,-1.2479,-1.2242,-1.2263,-1.2251,-1.2242,-1.2143,-1.2492,-1.2719,-1.2599,-1.2529,-1.2331,-1.1922,-1.1468,-1.0889,-1.0515,-1.0141,-0.9964,-1.012,-0.9852,-0.9643,-0.9249,-0.877,-0.8517,-0.8236,-0.8141,-0.8206,-0.8418,-0.8018,-0.7762,0.0,0.0,0.0,0.0,0.0,0.0,-0.5818,0.0,-0.5927,0.0,0.0,0.0,0.0,0.0,0.0,0.0,-0.7597,0.0,0.0,0.0,0.0,0.0,0.0,0.0,0.0,0.0,0.0,-1.1421,-1.1621,-1.1828,-1.191,-1.2363,-1.2628,-1.2644,-1.2795,-1.2744,-1.2563,-1.2563,-1.258,-1.2786,-1.2786,-1.2819,-1.3061,-1.3199,-1.3232,-1.3319,-1.3352,-1.3479,-1.3661,-1.3802,-1.4016,-1.4275,-1.4411,-1.459,-1.4713,-1.4617,-1.4509,-1.4418,-1.4522,-1.4487,-1.4494,-1.451,-1.474,-1.5045,-1.4923,-1.4923,-1.5045,-1.4923,-1.4682,-1.4682,-1.4682,-1.4548,-1.4296,-1.4172,-1.4052,-1.3813,-1.3444,-1.3449,-1.3204,-1.2719,-1.2479,-1.2359,-1.2247,-1.201,-1.201,-1.201,-1.201,-1.201,-1.201,-1.213,-1.2126,-1.1877,-1.1825,-1.1598,-1.1277,-1.0856,-1.058,-1.0578,-1.029,-1.0076,-0.9671,-0.9806,-0.9513,-0.8777,-0.874,-0.8526,-0.813,-0.8079,-0.8015,-0.8052,-0.7985,-0.789,-0.6056,0.0,0.0,0.0,0.0,0.0,0.0,0.0,0.0,0.0,0.0,0.0,0.0,0.0,0.0,0.0,0.0,-0.7475,0.0,0.0,0.0,0.0,0.0,0.0,0.0,0.0,-1.081,-1.0829,-1.1056,-1.1224,-1.1213,-1.1676,-1.2013,-1.2116,-1.2212,-1.225,-1.232,-1.2143,-1.2117,-1.2414,-1.2414,-1.2538,-1.277,-1.2931,-1.292,-1.277,-1.2937,-1.3013,-1.3066,-1.3237,-1.3457,-1.37,-1.3664,-1.3876,-1.421,-1.403,-1.3975,-1.3975,-1.3975,-1.4009,-1.4018,-1.4025,-1.4249,-1.4655,-1.4356,-1.4381,-1.465,-1.4356,-1.4104,-1.4114,-1.4174,-1.4079,-1.398,-1.4038,-1.3808,-1.3449,-1.3204,-1.3084,-1.284,-1.2359,-1.2234,-1.2118,-1.1897,-1.1776,-1.1776,-1.1776,-1.1776,-1.1776,-1.1776,-1.1776,-1.1651,-1.1394,-1.1273,-1.1152,-1.0668,-1.0425,-1.0404,-1.0513,-1.0249,-0.9898,-0.9326,-0.9582,-0.9261,-0.8476,-0.856,-0.8481,-0.8103,-0.7977,-0.7875,-0.7673,-0.7758,-0.7798,0.0,0.0,0.0,-0.6433,0.0,0.0,0.0,0.0,-0.6141,0.0,0.0,0.0,0.0,0.0,0.0,0.0,0.0,0.0,0.0,0.0,0.0,0.0,0.0,0.0,0.0,-0.9843,-0.9912,-0.9842,-1.0316,-1.0599,-1.0419,-1.115,-1.1542,-1.1599,-1.1864,-1.1985,-1.2048,-1.1965,-1.2117,-1.2414,-1.2414,-1.2538,-1.2764,-1.277,-1.277,-1.2764,-1.277,-1.277,-1.2764,-1.2867,-1.291,-1.3114,-1.3125,-1.318,-1.3143,-1.3265,-1.3315,-1.3315,-1.3315,-1.3462,-1.379,-1.3911,-1.4134,-1.427,-1.4058,-1.4144,-1.4265,-1.4058,-1.3769,-1.358,-1.3902,-1.362,-1.3447,-1.3641,-1.3449,-1.3204,-1.3204,-1.296,-1.2599,-1.2238,-1.2234,-1.2118,-1.1897,-1.1776,-1.1776,-1.1776,-1.1776,-1.1776,-1.1776,-1.1776,-1.1651,-1.1394,-1.1273,-1.1031,-1.0425,-1.0304,-1.0186,-0.9836,-0.9236,-0.9054,-0.943,-0.9061,-0.8742,-0.873,-0.8474,-0.8353,-0.8228,-0.784,-0.7658,-0.7564,-0.7566,-0.7316,0.0,0.0,-0.7522,-0.6903,0.0,0.0,0.0,0.0,0.0,0.0,0.0,0.0,0.0,0.0,0.0,0.0,0.0,0.0,0.0,0.0,0.0,0.0,0.0,0.0,0.0,0.0,0.0,-0.9398,-0.9799,-0.9982,-0.9858,-1.0296,-1.0802,-1.1377,-1.1352,-1.1725,-1.2462,-1.1888,-1.1956,-1.2641,-1.2323,-1.2377,-1.2764,-1.2764,-1.2764,-1.2764,-1.2764,-1.2764,-1.2764,-1.2764,-1.2801,-1.2804,-1.2615,-1.2653,-1.2786,-1.3193,-1.3301,-1.3108,-1.3043,-1.3143,-1.3108,-1.2961,-1.3238,-1.3512,-1.3228,-1.3365,-1.3512,-1.3223,-1.2979,-1.28,-1.3231,-1.3045,-1.2849,-1.3278,-1.3084,-1.284,-1.2599,-1.2479,-1.2238,-1.201,-1.1889,-1.1893,-1.1776,-1.1776,-1.1776,-1.1776,-1.1776,-1.1776,-1.1776,-1.1647,-1.1398,-1.1031,-1.0789,-1.0425,-0.97,-0.9549,-0.9357,-0.898,-0.898,-0.888,-0.8551,-0.8591,-0.8449,-0.8118,-0.7991,-0.7907,-0.7738,-0.7411,-0.7146,-0.6927,-0.6857,-0.686,-0.7913,-0.8062,0.0,-0.7385,-0.7496,0.0,-0.6773,0.0,-0.727,0.0,0.0,0.0,0.0,0.0,0.0,0.0,0.0,0.0,0.0,-0.7079,0.0,0.0,0.0,0.0,0.0,0.0,-0.9026,-0.9065,-0.9253,-0.937,0.0,-0.985,-1.0381,-1.0894,-1.0993,-1.1466,-1.2541,-1.1712,-1.1785,-1.2635,-1.2237,-1.2258,-1.2641,-1.2641,-1.2684,-1.2764,-1.2764,-1.2764,-1.2764,-1.2764,-1.2753,-1.2584,-1.2396,-1.2384,-1.2446,-1.2744,-1.28,-1.2689,-1.2695,-1.2772,-1.2659,-1.2441,-1.2583,-1.285,-1.2673,-1.2696,-1.2739,-1.2557,-1.2317,-1.2265,-1.2766,-1.2707,-1.2637,-1.314,-1.284,-1.2479,-1.2234,-1.2122,-1.2005,-1.1772,-1.1776,-1.1776,-1.1776,-1.1776,-1.1776,-1.1776,-1.1776,-1.1776,-1.1647,-1.1398,-1.1152,-1.0668,-1.0425,-1.0061,-0.9335,-0.9057,-0.8738,-0.8608,-0.8605,-0.8502,-0.8301,-0.8301,-0.8262,-0.7937,-0.7807,-0.7723,-0.7559,-0.7234,-0.6864,-0.6549,-0.6328,-0.6438]},{"header":{"parameterUnit":"m.s-1","parameterCategory":1,"la1":30.6,"la2":29.2853,"lo1":-89.7004,"lo2":-87.6739,"dy":0.0162,"dx":0.0183,"nx":112,"ny":82,"refTime":"2023-06-26T06:00:00:Z","depth":0,"parameterNumber":3,"parameterNumberName":"V-component_of_WINDS"},"data":[0.0,0.0,0.0,0.0,0.0,0.0,0.0,0.0,0.0,0.0,0.0,0.0,0.0,0.0,0.0,0.0,0.0,0.0,0.0,0.0,0.0,0.0,0.0,0.0,0.0,0.0,0.0,0.0,0.0,0.0,0.0,0.0,0.0,0.0,0.0,0.0,0.0,0.0,0.0,0.0,0.0,0.0,0.0,0.0,0.0,0.0,0.0,0.0,0.0,0.0,0.0,0.0,0.0,0.0,0.0,0.0,0.0,0.0,0.0,0.0,0.0,0.0,0.0,0.0,0.0,0.0,0.0,0.0,0.0,0.0,0.0,0.0,0.0,0.0,0.0,0.0,0.0,0.0,0.0,0.0,0.0,0.0,0.0,0.0,0.0,0.0,0.0,0.0,0.0,0.0,-3.2272,-3.4318,-3.8065,-4.099,-4.2363,-4.1949,-4.1197,-4.0101,0.0,0.0,0.0,0.0,0.0,0.0,0.0,0.0,0.0,0.0,0.0,0.0,0.0,0.0,0.0,0.0,0.0,0.0,0.0,0.0,0.0,0.0,0.0,0.0,0.0,0.0,0.0,0.0,0.0,0.0,0.0,0.0,0.0,0.0,0.0,0.0,0.0,0.0,0.0,0.0,0.0,0.0,0.0,0.0,0.0,0.0,0.0,0.0,0.0,0.0,0.0,0.0,0.0,0.0,0.0,0.0,0.0,0.0,0.0,0.0,0.0,0.0,0.0,0.0,0.0,0.0,0.0,0.0,0.0,0.0,0.0,0.0,0.0,0.0,0.0,0.0,0.0,0.0,0.0,0.0,0.0,0.0,0.0,0.0,0.0,0.0,0.0,0.0,0.0,0.0,0.0,0.0,0.0,0.0,0.0,0.0,0.0,0.0,0.0,0.0,0.0,0.0,0.0,0.0,-3.4953,-4.0385,-4.1612,-4.288,-4.4857,-4.4409,-4.3427,-4.206,0.0,0.0,0.0,0.0,0.0,0.0,0.0,0.0,0.0,0.0,0.0,0.0,0.0,0.0,0.0,0.0,0.0,0.0,0.0,0.0,0.0,0.0,0.0,0.0,0.0,0.0,0.0,0.0,0.0,0.0,0.0,0.0,0.0,0.0,0.0,0.0,0.0,0.0,0.0,0.0,0.0,0.0,0.0,0.0,0.0,0.0,0.0,0.0,0.0,0.0,0.0,0.0,0.0,0.0,0.0,0.0,0.0,0.0,0.0,0.0,0.0,0.0,0.0,0.0,0.0,0.0,0.0,0.0,0.0,0.0,0.0,0.0,0.0,0.0,0.0,0.0,0.0,0.0,0.0,0.0,0.0,0.0,0.0,0.0,0.0,0.0,0.0,0.0,0.0,0.0,0.0,0.0,0.0,0.0,0.0,0.0,0.0,0.0,0.0,0.0,0.0,0.0,0.0,-3.4534,-3.8042,-4.2733,-4.3701,-4.4691,-4.6497,-4.601,-4.5033,-4.3739,-4.0304,0.0,0.0,0.0,0.0,0.0,0.0,0.0,0.0,0.0,0.0,0.0,0.0,0.0,0.0,0.0,0.0,0.0,0.0,0.0,0.0,0.0,0.0,0.0,0.0,0.0,0.0,0.0,0.0,0.0,0.0,0.0,0.0,0.0,0.0,0.0,0.0,0.0,0.0,0.0,0.0,0.0,0.0,0.0,0.0,0.0,0.0,0.0,0.0,0.0,0.0,0.0,0.0,0.0,0.0,0.0,0.0,0.0,0.0,0.0,0.0,0.0,0.0,0.0,0.0,0.0,0.0,0.0,0.0,0.0,0.0,0.0,0.0,0.0,0.0,0.0,0.0,0.0,0.0,0.0,0.0,0.0,0.0,0.0,0.0,0.0,0.0,0.0,0.0,0.0,0.0,0.0,0.0,0.0,0.0,0.0,0.0,0.0,0.0,0.0,0.0,0.0,0.0,-3.7736,-4.0659,-4.3942,-4.5211,-4.6389,-4.7752,-4.7358,-4.6364,-4.4882,-4.2422,0.0,0.0,0.0,0.0,0.0,0.0,0.0,0.0,0.0,0.0,0.0,0.0,0.0,0.0,0.0,0.0,0.0,0.0,0.0,0.0,0.0,0.0,0.0,0.0,0.0,0.0,0.0,0.0,0.0,0.0,0.0,0.0,0.0,0.0,0.0,0.0,0.0,0.0,0.0,0.0,0.0,0.0,0.0,0.0,0.0,0.0,0.0,0.0,0.0,0.0,0.0,0.0,0.0,0.0,0.0,0.0,0.0,0.0,0.0,0.0,0.0,0.0,0.0,0.0,0.0,0.0,0.0,0.0,0.0,0.0,0.0,0.0,0.0,0.0,0.0,0.0,0.0,0.0,0.0,0.0,0.0,0.0,0.0,0.0,0.0,0.0,0.0,0.0,0.0,0.0,0.0,0.0,0.0,0.0,0.0,0.0,0.0,0.0,0.0,0.0,0.0,0.0,-3.8938,-4.2259,-4.49,-4.6487,-4.7768,-4.8928,-4.856,-4.74,-4.5319,-4.3415,0.0,0.0,0.0,0.0,0.0,0.0,0.0,0.0,0.0,0.0,0.0,0.0,0.0,0.0,0.0,0.0,0.0,0.0,0.0,0.0,0.0,0.0,0.0,0.0,0.0,0.0,0.0,0.0,0.0,0.0,0.0,0.0,0.0,0.0,0.0,0.0,0.0,0.0,0.0,0.0,0.0,0.0,0.0,0.0,0.0,0.0,0.0,0.0,0.0,0.0,0.0,0.0,0.0,0.0,0.0,0.0,0.0,0.0,0.0,0.0,0.0,0.0,0.0,0.0,0.0,0.0,0.0,0.0,0.0,0.0,0.0,0.0,0.0,0.0,0.0,0.0,0.0,0.0,0.0,0.0,0.0,0.0,0.0,0.0,0.0,0.0,0.0,0.0,0.0,0.0,0.0,0.0,0.0,0.0,0.0,0.0,0.0,0.0,0.0,0.0,0.0,0.0,-4.1294,-4.4414,0.0,-4.805,-4.9161,-5.0009,-4.9605,-4.8219,-4.563,0.0,0.0,0.0,0.0,0.0,0.0,0.0,0.0,0.0,0.0,0.0,0.0,0.0,0.0,0.0,0.0,0.0,0.0,0.0,0.0,0.0,0.0,0.0,0.0,0.0,0.0,0.0,0.0,0.0,0.0,0.0,0.0,0.0,0.0,0.0,0.0,0.0,0.0,0.0,0.0,0.0,0.0,0.0,0.0,0.0,0.0,0.0,0.0,0.0,0.0,0.0,0.0,0.0,0.0,0.0,0.0,0.0,0.0,0.0,0.0,0.0,0.0,0.0,0.0,0.0,0.0,0.0,0.0,0.0,0.0,0.0,0.0,0.0,0.0,0.0,0.0,0.0,0.0,0.0,0.0,0.0,0.0,0.0,0.0,0.0,0.0,0.0,0.0,0.0,0.0,0.0,0.0,0.0,0.0,0.0,0.0,0.0,0.0,0.0,0.0,0.0,0.0,-3.9566,-4.3321,-4.6184,0.0,-4.9356,-5.0524,-5.0858,-5.0413,-4.8973,-4.6515,0.0,0.0,0.0,0.0,0.0,0.0,0.0,0.0,0.0,0.0,0.0,0.0,0.0,0.0,0.0,0.0,0.0,0.0,0.0,0.0,0.0,0.0,0.0,0.0,0.0,0.0,0.0,0.0,0.0,0.0,0.0,0.0,0.0,0.0,0.0,0.0,0.0,0.0,0.0,0.0,0.0,0.0,0.0,0.0,0.0,0.0,0.0,0.0,0.0,0.0,0.0,0.0,0.0,0.0,0.0,0.0,0.0,0.0,0.0,0.0,0.0,0.0,0.0,0.0,0.0,0.0,0.0,0.0,0.0,0.0,0.0,0.0,0.0,0.0,0.0,0.0,0.0,0.0,0.0,0.0,0.0,0.0,0.0,0.0,0.0,0.0,0.0,0.0,0.0,0.0,0.0,0.0,0.0,0.0,0.0,0.0,0.0,0.0,0.0,0.0,0.0,0.0,-4.0365,-4.4605,-4.7457,-4.7642,-5.0349,-5.1898,-5.1285,-5.0759,-4.975,0.0,0.0,0.0,0.0,0.0,0.0,0.0,0.0,0.0,0.0,0.0,0.0,0.0,0.0,0.0,0.0,0.0,0.0,0.0,0.0,0.0,0.0,0.0,0.0,0.0,0.0,0.0,0.0,0.0,0.0,0.0,0.0,0.0,0.0,0.0,0.0,0.0,0.0,0.0,0.0,0.0,0.0,0.0,0.0,0.0,0.0,0.0,0.0,0.0,0.0,0.0,0.0,0.0,0.0,0.0,0.0,0.0,0.0,0.0,0.0,0.0,0.0,0.0,0.0,0.0,0.0,0.0,0.0,0.0,0.0,0.0,0.0,0.0,0.0,0.0,0.0,0.0,0.0,0.0,0.0,0.0,0.0,0.0,0.0,0.0,0.0,0.0,0.0,0.0,0.0,0.0,0.0,0.0,0.0,0.0,0.0,0.0,0.0,0.0,0.0,0.0,0.0,0.0,-4.2675,-4.5857,-4.8574,-5.0747,-5.2021,-5.2575,-5.232,-5.1873,-5.0695,-4.8672,0.0,0.0,0.0,0.0,0.0,0.0,0.0,0.0,0.0,0.0,0.0,0.0,0.0,0.0,0.0,0.0,0.0,0.0,0.0,0.0,0.0,0.0,0.0,0.0,0.0,0.0,0.0,0.0,0.0,0.0,0.0,0.0,0.0,0.0,0.0,0.0,0.0,0.0,0.0,0.0,0.0,0.0,0.0,0.0,0.0,0.0,0.0,0.0,0.0,0.0,0.0,0.0,0.0,0.0,0.0,0.0,0.0,0.0,0.0,0.0,0.0,0.0,0.0,0.0,0.0,0.0,0.0,0.0,0.0,0.0,0.0,0.0,0.0,0.0,0.0,0.0,0.0,0.0,0.0,0.0,0.0,0.0,0.0,0.0,0.0,0.0,0.0,0.0,0.0,0.0,0.0,0.0,0.0,0.0,0.0,0.0,0.0,0.0,0.0,0.0,0.0,0.0,-4.3586,-4.6837,-4.9639,-5.1885,-5.3181,-5.3785,-5.3506,-5.2929,-5.1657,-4.9664,0.0,0.0,0.0,0.0,0.0,0.0,0.0,0.0,0.0,0.0,0.0,0.0,0.0,0.0,0.0,0.0,0.0,0.0,0.0,0.0,0.0,0.0,0.0,0.0,0.0,0.0,0.0,0.0,0.0,0.0,0.0,0.0,0.0,0.0,0.0,0.0,0.0,0.0,0.0,0.0,0.0,0.0,0.0,0.0,0.0,0.0,0.0,0.0,0.0,0.0,0.0,0.0,0.0,0.0,0.0,0.0,0.0,0.0,0.0,0.0,0.0,0.0,0.0,0.0,0.0,0.0,0.0,0.0,0.0,0.0,0.0,0.0,0.0,0.0,0.0,0.0,0.0,0.0,0.0,0.0,0.0,0.0,0.0,0.0,0.0,0.0,0.0,0.0,0.0,0.0,0.0,0.0,0.0,0.0,0.0,0.0,0.0,0.0,0.0,0.0,0.0,0.0,-4.3694,-4.7536,-5.0566,-5.1862,-5.4004,-5.506,-5.446,-5.378,-5.2588,-5.0788,0.0,0.0,0.0,0.0,0.0,0.0,0.0,0.0,0.0,0.0,0.0,0.0,0.0,0.0,0.0,0.0,0.0,0.0,0.0,0.0,0.0,0.0,0.0,0.0,0.0,0.0,0.0,0.0,0.0,0.0,0.0,0.0,0.0,0.0,0.0,0.0,0.0,0.0,0.0,0.0,0.0,0.0,0.0,0.0,0.0,0.0,0.0,0.0,0.0,0.0,0.0,0.0,0.0,0.0,0.0,0.0,0.0,0.0,0.0,0.0,-3.6037,0.0,0.0,0.0,0.0,0.0,0.0,0.0,0.0,0.0,0.0,0.0,0.0,0.0,0.0,0.0,0.0,0.0,0.0,0.0,0.0,0.0,0.0,0.0,0.0,0.0,0.0,0.0,0.0,0.0,0.0,0.0,0.0,0.0,0.0,0.0,0.0,0.0,0.0,0.0,0.0,0.0,-4.5593,-4.843,-5.0892,-5.3103,-5.4141,-5.4488,-5.4001,-5.3356,-5.2462,-5.1215,-4.8872,0.0,0.0,0.0,0.0,0.0,0.0,0.0,0.0,0.0,0.0,0.0,0.0,0.0,0.0,0.0,0.0,0.0,0.0,0.0,0.0,0.0,0.0,0.0,0.0,0.0,0.0,0.0,0.0,0.0,0.0,0.0,0.0,0.0,0.0,0.0,0.0,0.0,0.0,0.0,0.0,0.0,0.0,0.0,0.0,0.0,0.0,0.0,0.0,0.0,0.0,0.0,0.0,0.0,0.0,0.0,0.0,0.0,0.0,0.0,0.0,-3.814,0.0,0.0,0.0,0.0,0.0,0.0,0.0,0.0,0.0,0.0,0.0,0.0,0.0,0.0,0.0,0.0,0.0,0.0,0.0,0.0,0.0,0.0,0.0,0.0,0.0,0.0,0.0,0.0,0.0,0.0,0.0,0.0,0.0,0.0,0.0,0.0,0.0,0.0,0.0,0.0,-4.5666,-4.8654,-5.1383,-5.3579,-5.4649,-5.5183,-5.5122,-5.4388,-5.3408,-5.2347,-4.9992,0.0,0.0,0.0,0.0,0.0,0.0,0.0,0.0,0.0,0.0,0.0,0.0,0.0,0.0,0.0,0.0,0.0,0.0,0.0,0.0,0.0,0.0,0.0,0.0,0.0,0.0,0.0,0.0,0.0,0.0,0.0,0.0,0.0,0.0,0.0,0.0,0.0,0.0,0.0,0.0,0.0,0.0,0.0,0.0,0.0,0.0,0.0,0.0,0.0,0.0,0.0,0.0,0.0,-4.4657,-4.6245,-4.7466,-4.8101,-4.837,-4.8188,-4.4393,-4.2372,-4.1701,-4.0823,0.0,0.0,0.0,0.0,0.0,0.0,0.0,0.0,0.0,0.0,0.0,0.0,0.0,0.0,0.0,0.0,0.0,0.0,0.0,0.0,0.0,0.0,0.0,0.0,-4.9298,-4.9593,-4.6667,0.0,0.0,0.0,0.0,0.0,0.0,0.0,0.0,0.0,0.0,0.0,-4.5814,-4.9007,-5.1925,-5.3827,-5.5085,-5.5906,-5.6343,-5.5366,-5.4269,-5.326,-5.1172,-4.9413,0.0,0.0,0.0,0.0,0.0,0.0,0.0,0.0,0.0,0.0,0.0,0.0,0.0,0.0,0.0,0.0,0.0,0.0,0.0,0.0,0.0,0.0,0.0,0.0,0.0,0.0,0.0,0.0,0.0,0.0,0.0,0.0,-3.0465,-3.3128,0.0,0.0,0.0,0.0,0.0,0.0,0.0,0.0,0.0,0.0,0.0,0.0,0.0,-4.1894,-4.299,-4.4809,-4.6258,-4.7404,-4.7792,-4.8708,-5.009,-5.02,-5.0295,-5.0376,-4.9965,0.0,-4.5187,-4.4254,0.0,0.0,0.0,0.0,0.0,0.0,0.0,0.0,0.0,0.0,0.0,0.0,0.0,0.0,0.0,0.0,0.0,0.0,0.0,0.0,0.0,0.0,-5.0143,-5.2649,-5.2717,-5.2599,0.0,-5.0541,-4.7456,-4.7456,-4.603,0.0,0.0,0.0,0.0,0.0,0.0,0.0,-4.8579,-5.0676,-5.2535,-5.4038,-5.4762,-5.5201,-5.5339,-5.452,-5.3593,-5.2772,-5.1651,-5.0919,-5.069,-5.0257,0.0,0.0,0.0,0.0,0.0,0.0,0.0,0.0,0.0,0.0,0.0,0.0,0.0,0.0,0.0,0.0,0.0,0.0,0.0,0.0,0.0,0.0,0.0,0.0,0.0,0.0,0.0,0.0,0.0,-3.1066,-3.3747,-3.5888,-3.5395,-3.5695,0.0,0.0,0.0,0.0,0.0,0.0,0.0,0.0,0.0,-4.6572,-4.6136,-4.6315,-4.7181,-4.8328,-4.9075,-4.9435,-5.0379,-5.112,-5.1726,-5.2188,-5.2747,-5.3289,-5.3385,-5.2696,-5.1202,-4.8863,-4.7569,-4.6955,0.0,0.0,0.0,0.0,-4.3985,-4.4321,-4.4508,-4.4939,-4.5449,-4.5286,0.0,0.0,0.0,0.0,0.0,0.0,0.0,0.0,0.0,0.0,-5.3422,-5.4828,-5.5016,-5.5094,-5.5807,-5.4325,-5.266,0.0,-5.0829,-4.9569,-4.8386,0.0,0.0,0.0,0.0,-4.9797,-5.1065,-5.2782,-5.4295,-5.5265,-5.554,-5.5592,-5.542,-5.447,-5.3845,-5.3949,-5.2319,-5.1631,-5.2152,-5.1271,-4.9632,0.0,0.0,0.0,0.0,0.0,0.0,0.0,0.0,0.0,0.0,0.0,0.0,0.0,0.0,0.0,0.0,0.0,0.0,0.0,0.0,0.0,0.0,0.0,0.0,0.0,0.0,0.0,0.0,-3.3847,-3.6461,-3.8122,-3.7877,-3.828,0.0,0.0,0.0,0.0,0.0,0.0,-4.9124,-4.9844,-5.043,-5.0809,-5.0259,-5.0239,-5.079,-5.0953,-5.1054,-5.1046,-5.2209,-5.2808,-5.3014,-5.3591,-5.4392,-5.5287,-5.5359,-5.5779,-5.6187,-5.3137,-5.1513,-5.0873,-5.0193,-4.9843,-4.9682,-4.9068,-4.919,-4.9679,-4.9655,-5.027,-5.0931,-5.0417,-5.0278,-5.0209,-4.9415,0.0,0.0,0.0,0.0,-5.1602,-5.3849,-5.5432,-5.6532,-5.6885,-5.7143,-5.714,-5.6794,-5.6604,-5.6241,0.0,-5.4741,-5.4002,-5.3046,0.0,0.0,0.0,0.0,-5.2705,-5.3352,-5.4891,-5.6182,-5.6824,-5.6761,-5.648,-5.6177,-5.5275,-5.4912,-5.5212,-5.3416,-5.2756,-5.353,-5.2152,-5.0509,-4.858,0.0,0.0,0.0,0.0,0.0,0.0,0.0,0.0,0.0,0.0,0.0,0.0,0.0,0.0,0.0,0.0,0.0,0.0,0.0,0.0,0.0,0.0,0.0,0.0,0.0,0.0,0.0,0.0,0.0,-3.9016,-4.043,0.0,0.0,0.0,0.0,-4.6132,-4.8976,-5.1518,-5.3642,-5.3334,-5.3803,-5.5401,-5.3778,-5.3158,-5.3693,-5.2607,-5.2335,-5.2982,-5.2925,-5.3288,-5.4035,-5.4072,-5.4594,-5.5488,-5.5642,-5.6696,-5.8235,-5.6444,-5.5367,-5.4836,-5.4909,-5.4976,-5.5,-5.497,-5.4893,-5.4707,-5.3903,-5.4059,-5.4381,-5.276,-5.2662,-5.3333,-5.4107,-5.3569,0.0,0.0,-5.5659,-5.5865,-5.9078,-6.0016,-6.0093,-5.9928,-5.9328,-5.8688,-5.8289,-5.7326,-5.6485,0.0,-5.6331,-5.6096,-5.5623,0.0,-5.4859,-5.4416,-5.4492,-5.4876,-5.5657,-5.669,-5.7675,-5.8463,-5.8289,-5.7977,-5.7622,-5.7252,-5.6712,-5.603,-5.5111,-5.4907,-5.5446,-5.3382,-5.2196,-5.2171,-5.1367,0.0,0.0,0.0,0.0,0.0,0.0,0.0,0.0,0.0,0.0,0.0,0.0,0.0,0.0,0.0,0.0,0.0,0.0,0.0,0.0,0.0,0.0,0.0,0.0,0.0,0.0,0.0,0.0,-4.2379,-4.3091,0.0,-4.4773,-4.5357,-4.665,-4.9008,-5.0805,-5.2664,-5.4759,-5.5434,-5.6251,-5.7368,-5.6744,-5.6663,-5.7248,-5.554,-5.478,-5.4956,-5.4863,-5.4999,-5.5266,-5.5773,-5.6572,-5.7517,-5.8145,-5.921,-6.0472,-6.0463,-5.9359,-5.7764,-5.8477,-5.8136,-5.7258,-5.7819,-5.7661,-5.7071,-5.662,-5.663,-5.6692,-5.5979,-5.5863,-5.6107,-5.641,-5.6948,-5.7563,-5.8361,-5.9082,-5.991,-6.1093,-6.1431,-6.1281,-6.0641,-6.0641,-6.0582,-5.9844,-6.0064,-6.0414,-6.0634,-5.9197,-5.8117,-5.8625,-5.8694,-5.8583,-5.8356,-5.8664,-5.8915,-5.8881,-5.9419,-5.9681,-5.9213,-5.866,-5.7996,-5.7219,-5.6798,-5.6302,-5.5666,-5.562,-5.5465,-5.5074,-5.3622,-5.2194,-5.0912,-4.9473,-4.7489,0.0,0.0,0.0,0.0,0.0,0.0,0.0,0.0,0.0,0.0,0.0,0.0,0.0,0.0,0.0,0.0,0.0,0.0,0.0,0.0,0.0,0.0,0.0,0.0,0.0,0.0,-4.3652,-4.5134,-4.5876,-4.6572,-4.7282,-4.7803,-4.8827,-5.0573,-5.185,-5.3585,-5.595,-5.6902,-5.7925,-5.9121,-5.9138,-5.9296,-5.9645,-5.7958,-5.708,-5.699,-5.6652,-5.6456,-5.6444,-5.6973,-5.7921,-5.9128,-5.9779,-6.0978,-6.2567,-6.3178,-6.2459,-6.0947,-6.1083,-6.046,-5.9523,-5.9796,-5.9518,-5.9024,-5.9128,-5.8781,-5.841,-5.8778,-5.8481,-5.8109,-5.8619,-5.9495,-6.0387,-6.0745,-6.1636,-6.2504,-6.2711,-6.2824,-6.2636,-6.1788,-6.224,-6.2466,-6.1073,-6.1983,-6.299,-6.2613,-6.119,-6.0377,-6.1443,-6.1151,-6.0828,-6.0999,-6.1042,-6.0919,-6.066,-6.0787,-6.0618,-5.9891,-5.912,-5.8293,-5.7492,-5.7004,-5.6396,-5.5693,-5.5837,-5.5504,-5.4514,-5.3242,-5.1528,-4.936,-4.7606,-4.5953,-4.4493,0.0,0.0,0.0,0.0,0.0,0.0,0.0,0.0,0.0,0.0,0.0,0.0,0.0,0.0,0.0,0.0,0.0,0.0,0.0,0.0,0.0,0.0,0.0,-4.0791,-4.3815,-4.6271,-4.7165,-4.8862,-4.9542,-4.8461,-4.9878,-5.0873,-5.0804,-5.225,-5.4421,-5.7357,-5.7762,-5.8827,-6.0783,-6.0939,-6.0911,-6.0786,-5.9721,-5.9128,-5.9054,-5.8111,-5.7625,-5.7536,-5.7555,-5.849,-6.0121,-6.0275,-6.1822,-6.4259,-6.4435,-6.4507,-6.4372,-6.2759,-6.2098,-6.1935,-6.1137,-6.0776,-6.077,-6.142,-6.0617,-5.9553,-6.1058,-6.0446,-5.9407,-6.0893,-6.1324,-6.16,-6.2896,-6.3276,-6.3389,-6.4024,-6.4386,-6.4332,-6.3464,-6.4119,-6.4253,-6.1911,-6.2907,-6.3803,-6.216,-6.2249,-6.2866,-6.3814,-6.2479,-6.1472,-6.2099,-6.1462,0.0,-6.0782,-6.0626,-6.0547,-6.0651,-5.9721,-5.8891,-5.853,-5.7984,-5.7254,-5.6282,-5.5928,-5.521,-5.4035,-5.2492,-5.045,-4.7789,-4.6124,-4.5376,-4.5619,0.0,0.0,0.0,0.0,0.0,0.0,0.0,0.0,0.0,0.0,0.0,0.0,0.0,0.0,0.0,0.0,0.0,0.0,0.0,0.0,0.0,0.0,-4.1804,-4.3542,-4.6656,-4.9332,-5.0846,-5.2494,-5.3118,-5.2149,-5.3509,-5.4148,-5.3447,-5.3789,-5.443,-5.5314,-5.7435,-5.8903,-5.958,-6.1565,-6.2613,-6.2584,-6.1576,-6.077,-6.0227,-5.9182,-5.87,-5.8727,-5.8635,-5.9254,-6.0417,-6.1056,-6.2126,-6.3472,-6.4159,-6.4772,-6.5252,-6.5013,-6.4119,-6.3064,-6.3511,-6.3171,-6.2497,-6.2648,-6.2336,-6.1965,-6.2366,-6.2213,-6.1898,-6.2266,-6.2275,-6.2189,-6.2367,-6.2316,-6.2259,-6.2366,-6.299,-6.3408,-6.2615,-6.3738,-6.4772,-6.4065,-6.4709,-6.5424,-6.5328,-6.4642,-6.3903,-6.3498,-6.2892,-6.257,-6.2738,-6.2203,0.0,-6.1091,-6.0622,-6.0068,-5.9331,-5.8858,-5.83,-5.7651,-5.7724,-5.7355,-5.6447,-5.6508,-5.6239,-5.552,-5.3987,-5.1745,-4.8718,-4.7212,-4.695,0.0,0.0,0.0,0.0,0.0,0.0,0.0,0.0,0.0,0.0,0.0,0.0,0.0,0.0,0.0,0.0,0.0,0.0,0.0,0.0,0.0,0.0,-4.1508,-4.4576,-4.6883,-4.9344,-5.1538,-5.3252,-5.4636,-5.5212,-5.4621,-5.5681,-5.6003,-5.4987,-5.4793,-5.5074,-5.5867,-5.727,-5.849,-5.9444,-6.1895,-6.3435,-6.3888,-6.332,-6.2839,-6.2406,-6.1036,-6.0219,-5.9912,-5.9786,-6.0245,-6.1095,-6.1521,-6.2421,-6.3598,-6.4068,-6.4776,0.0,0.0,0.0,0.0,0.0,-6.4392,-6.4205,-6.4123,-6.4039,-6.4001,-6.3972,-6.3465,-6.2939,-6.3211,-6.3163,-6.3109,-6.323,-6.3161,-6.2975,-6.2878,-6.3068,-6.3163,-6.2765,-6.3833,-6.485,-6.4558,-6.5445,-6.6195,-6.5739,-6.4976,0.0,-6.3149,-6.2805,-6.2636,-6.2464,-6.1951,-6.1343,-6.0736,-6.0223,-5.9646,-5.8866,-5.8378,-5.7876,-5.7111,-5.6702,0.0,0.0,0.0,-5.5393,-5.4663,-5.2335,0.0,0.0,0.0,-4.7288,-4.8373,-4.96,0.0,0.0,-4.9372,-4.9041,0.0,0.0,0.0,0.0,0.0,0.0,0.0,0.0,0.0,0.0,0.0,0.0,0.0,0.0,0.0,0.0,-4.4471,-4.746,-5.012,-5.1657,-5.3093,-5.4711,-5.5719,-5.628,-5.6255,-5.7008,-5.7024,-5.593,-5.5697,-5.6238,-5.7641,0.0,0.0,0.0,0.0,-6.3707,-6.4797,-6.4887,-6.4897,-6.4801,-6.3119,-6.1882,-6.1026,-6.0862,-6.1195,-6.1914,-6.1644,-6.248,-6.4049,-6.4057,-6.4638,-6.5471,-6.4872,-6.5101,-6.558,-6.4785,-6.4977,-6.5599,-6.5638,0.0,0.0,-6.5558,-6.4535,-6.3386,-6.3911,-6.3981,-6.3992,-6.4582,-6.4554,-6.4331,-6.401,-6.3596,-6.3238,-6.3292,-6.406,-6.4668,-6.4281,-6.5467,-6.6153,-6.4628,-6.4162,-6.3681,-6.2713,-6.2291,-6.2024,-6.1712,-6.1104,-6.0485,-6.0001,-5.9616,-5.923,-5.8856,0.0,0.0,-5.6808,-5.5615,-5.5016,-5.5225,-5.4632,-5.3929,-5.3042,-4.9834,-4.8148,-4.8343,-4.7695,-4.779,-4.8576,-5.038,-5.188,-5.3082,-5.2753,-5.2403,0.0,0.0,0.0,0.0,0.0,0.0,0.0,0.0,0.0,0.0,0.0,0.0,0.0,0.0,0.0,-4.3768,-4.5891,-4.8192,-5.0839,-5.269,-5.4171,-5.5371,-5.6352,-5.7177,-5.7876,-5.9098,-5.9178,-5.7566,-5.79,-5.7664,-5.6503,-5.7921,-5.897,-5.9416,-6.2294,-6.4336,-6.544,-6.5645,-6.5476,-6.4863,0.0,0.0,-6.1921,-6.1041,-6.114,-6.1908,-6.0977,-6.1468,-6.3051,-6.3562,-6.4728,-6.6216,-6.6315,-6.65,-6.6699,-6.6526,-6.6096,-6.5704,-6.6385,-6.6547,-6.6476,-6.6445,-6.6166,-6.569,-6.5117,-6.432,0.0,-6.3612,-6.2994,-6.2164,-6.1312,-6.1597,-6.2089,-6.2069,-6.2955,-6.4234,-6.5685,-6.5309,-6.4851,-6.5279,-6.4007,-6.2717,-6.2149,-6.1933,-6.173,-6.1448,-6.0722,-5.999,-5.9534,-5.8995,-5.8557,-5.8327,-5.7914,-5.7376,-5.6644,-5.6448,-5.6265,-5.5991,-5.5878,-5.548,-5.4648,-5.3912,-5.3404,-5.3137,-5.2942,-5.2748,-5.2551,-5.4454,-5.4996,-5.4267,-5.2012,-5.1762,0.0,0.0,0.0,0.0,0.0,0.0,0.0,0.0,0.0,0.0,0.0,-4.0653,0.0,0.0,-4.5258,-4.693,-4.8992,-5.0858,-5.2269,-5.4018,-5.5604,-5.6772,-5.774,-5.8826,-6.0109,-6.0811,-6.0435,-5.869,-5.9092,-5.8772,-5.7381,-5.8356,-5.9211,-5.9778,-6.2425,-6.4417,-6.5542,-6.625,-6.6433,-6.6077,-6.4736,-6.3657,-6.2808,-6.1762,-6.153,-6.1889,-6.0731,-6.1122,-6.2674,-6.3763,-6.5335,-6.7007,-6.6701,-6.6479,-6.6326,-6.673,-6.6615,-6.6375,-6.7228,-6.7397,-6.7305,-6.7305,-6.6936,-6.6338,-6.546,-6.4757,-6.426,-6.4119,-6.3671,-6.3107,-6.2519,-6.2386,-6.2407,-6.2484,-6.3143,-6.4026,-6.5043,-6.4799,-6.4435,-6.4771,-6.3511,-6.222,-6.175,-6.1354,-6.1081,-6.0861,-6.0227,-5.9666,-5.9217,-5.901,-5.8801,-5.8457,-5.8224,-5.7658,-5.6435,-5.6536,-5.6536,-5.6192,-5.6771,-5.6527,-5.5328,-5.4996,-5.4725,-5.4391,-5.4283,-5.436,-5.4543,-5.5405,-5.5915,-5.5921,-5.3809,-5.3413,0.0,0.0,0.0,0.0,0.0,0.0,0.0,0.0,-4.1177,-4.1949,-4.2333,-4.341,-4.6339,-4.7408,-4.8344,-4.989,-5.1915,-5.3373,-5.3662,-5.5099,-5.666,-5.8053,-5.8951,-6.0057,-6.1619,-6.192,-6.1317,-5.9552,-6.008,-5.991,-5.8651,-5.8977,-5.9573,-6.0319,-6.2495,-6.4299,-6.5685,-6.6665,-6.7287,-6.7537,-6.6013,-6.4836,-6.3968,-6.2968,-6.2512,-6.24,-6.1401,-6.1664,-6.2881,-6.4431,-6.5999,-6.7436,-6.6731,-6.612,-6.5742,-6.646,-6.6815,-6.7027,-6.7802,-6.7978,-6.7865,-6.7865,-6.7229,-6.6293,-6.5427,-6.5061,-6.4939,-6.4853,-6.4762,-6.4539,-6.4217,-6.3554,-6.3008,-6.3067,-6.3465,-6.391,-6.396,-6.4169,-6.4272,-6.391,-6.2873,-6.1914,-6.139,-6.0861,-6.045,-6.0262,-5.9779,-5.9436,-5.9288,-5.9367,-5.9336,-5.8996,-5.8773,-5.8046,-5.6645,-5.6534,-5.6527,-5.667,-5.7373,-5.746,-5.6568,-5.6053,-5.5826,-5.5829,-5.5302,-5.5456,-5.6077,-5.5673,-5.6046,-5.7215,-5.623,-5.5856,-3.7399,-3.8525,-3.9961,-3.9944,-4.1375,-4.3158,0.0,0.0,-4.537,-4.625,-4.7628,-4.8825,-4.9249,-4.9947,-5.0735,-5.1614,-5.2564,-5.3487,-5.4275,-5.5286,-5.6598,-5.8446,-5.9005,-5.959,-6.0489,-6.1932,-6.2061,-6.0394,-6.1584,-6.1349,-5.897,-6.036,-6.0949,-6.0394,-6.237,-6.4385,-6.6383,-6.6816,-6.75,-6.8444,-6.7479,-6.6595,-6.5771,-6.4829,-6.4397,-6.4374,-6.394,-6.3722,-6.3777,-6.5555,-6.6472,-6.672,-6.6755,-6.6337,-6.5863,-6.6519,-6.6825,-6.7027,-6.7763,-6.7928,-6.782,-6.782,-6.7136,-6.6163,-6.5224,-6.4834,-6.4743,-6.4652,-6.4539,-6.4236,-6.3284,-6.3,-6.2803,-6.2401,-6.3059,-6.3795,-6.3935,-6.397,-6.3823,-6.3385,-6.2346,-6.139,-6.08,-6.0512,-6.0262,-6.0153,-5.97,-5.9476,-5.9978,-5.9923,-5.9894,-6.0014,-5.94,-5.8645,-5.7804,-5.6772,-5.671,-5.8133,-5.7816,-5.8316,-6.0069,-5.9896,-6.0033,-6.0652,-5.9596,-5.8839,-5.8291,-5.7433,-5.6848,-5.6528,-5.7632,-5.7977,-3.9946,-4.0908,0.0,0.0,-4.4163,-4.6396,-4.7093,-4.7991,-4.8818,-4.9187,-4.9793,-5.0358,-5.0853,-5.1202,-5.1678,0.0,-5.3714,-5.4755,-5.5196,-5.6399,-5.7556,-5.8412,-5.898,-5.9971,-6.1584,-6.1819,-6.1651,-6.1061,-6.2048,-6.1842,-5.9902,-6.0933,-6.1462,-6.13,-6.2272,-6.3793,-6.5779,-6.6596,-6.7256,-6.7774,-6.7502,-6.693,-6.6102,-6.5691,-6.5476,-6.5431,-6.5858,-6.6219,-6.6554,-6.7375,-6.768,-6.7595,-6.7153,-6.6526,-6.5878,-6.6038,-6.6442,-6.6921,-6.7167,-6.7483,-6.7711,-6.7136,-6.6581,-6.5985,-6.508,-6.4726,-6.4615,-6.4501,-6.4424,-6.423,-6.3731,-6.3597,-6.3514,-6.3177,-6.3548,-6.4029,-6.3888,-6.3598,-6.3239,-6.29,-6.1888,-6.0962,-6.0494,-6.0135,-5.9814,-5.9635,-5.9733,-5.9806,-5.9869,-5.9886,-5.9937,-5.9761,-5.9416,-5.9174,-5.9298,-5.8491,-5.8458,-5.9536,-5.9219,-5.9458,-6.045,-6.0619,-6.0606,-6.0435,-6.0055,-5.9495,-5.8844,-5.8446,-5.8371,-5.8477,-5.9168,-5.9298,-4.1674,0.0,0.0,-4.407,-4.6391,-4.8669,-4.8909,-4.9939,-5.0857,-5.1096,-5.1073,-5.1229,-5.2035,-5.2181,-5.2364,-5.295,-5.4301,-5.5379,-5.5705,-5.6938,-5.7894,-5.8223,-5.8603,-5.9605,-6.1583,-6.1565,-6.1515,-6.1865,-6.2672,-6.2451,-6.0922,-6.1861,-6.2277,-6.1995,-6.2735,-6.384,-6.5314,-6.6701,-6.7571,-6.7952,-6.8069,-6.7806,-6.7249,-6.6855,-6.6457,-6.6165,-6.7137,-6.7725,-6.8068,-6.8116,-6.805,-6.777,-6.7031,-6.6307,-6.5705,-6.5939,-6.6384,-6.6902,-6.7053,-6.7223,-6.7283,-6.6558,-6.604,-6.5592,-6.484,-6.4558,-6.4501,-6.4424,-6.4345,-6.4284,-6.4203,-6.4143,-6.4019,-6.368,-6.4003,-6.4187,-6.3463,-6.3148,-6.2771,-6.2147,-6.143,-6.0813,-6.0452,-6.0386,-6.0262,-6.0078,-6.0549,-6.0668,-6.0014,-6.0357,-6.0566,-6.0239,-5.9861,-5.9872,-6.0239,-5.9659,-5.963,-6.0516,-6.0413,-6.0603,-6.1231,-6.1564,-6.1499,-6.0865,-6.0763,-6.028,-5.955,-5.9218,-5.9335,-5.9906,-5.9911,-5.9946,0.0,0.0,-4.5713,-4.6554,-4.8172,-4.9756,-5.0545,-5.0765,-5.1022,-5.1793,-5.1958,-5.2197,-5.3023,-5.317,-5.3188,-5.3206,-5.3904,-5.4711,-5.5482,-5.6308,-5.7088,-5.7747,-5.7619,-5.7996,0.0,-6.1069,-6.229,-6.2807,-6.3737,-6.3573,-6.2052,-6.3578,-6.3803,-6.223,-6.3956,-6.5066,-6.5375,-6.7304,-6.8796,-6.981,-6.9897,-7.0001,-7.0134,-6.8764,-6.7576,-6.6642,-6.7493,-6.7602,-6.7128,-6.7069,-6.6835,-6.6402,-6.5997,-6.555,-6.5257,-6.6592,-6.6984,-6.7027,-6.7782,-6.735,-6.6436,-6.6334,-6.5606,-6.4689,-6.4501,-6.4405,-6.4405,-6.4405,-6.4345,-6.4284,-6.4284,-6.4203,-6.3977,-6.3519,-6.4012,-6.4143,-6.2615,-6.2585,-6.2479,-6.1099,-6.1051,-6.1064,-6.0767,-6.1562,-6.2185,-6.1882,-6.2543,-6.2527,-6.0852,-6.1579,-6.2212,-6.2015,-6.1313,-6.0637,-6.0087,-5.9531,-5.9778,-6.092,-6.1,-6.1808,-6.3295,-6.3939,-6.4074,-6.3897,-6.2923,-6.1954,-6.0987,-5.9831,-5.9419,-5.97,-5.97,-5.9716,0.0,0.0,-4.6627,-4.7526,-4.909,-5.06,-5.1408,-5.2013,-5.2472,-5.2747,-5.2803,-5.2834,-5.3048,-5.2645,-5.2419,-5.2864,-5.3676,-5.4569,-5.533,-5.6594,-5.7546,-5.7755,-5.7534,0.0,0.0,0.0,0.0,-6.1509,-6.1978,-6.2051,-6.1767,-6.3069,-6.3684,-6.3255,-6.3499,-6.4218,-6.5504,-6.6307,-6.695,-6.746,-6.82,-6.9179,-7.0351,-6.9514,-6.9424,-6.9918,-6.9934,-6.9593,-6.9041,-6.9144,-6.8311,-6.6917,-6.6834,-6.6596,-6.6375,-6.6903,-6.6948,-6.6774,-6.698,-6.6725,-6.622,-6.5565,-6.5061,-6.4688,-6.4614,-6.4558,-6.4501,-6.4424,-6.4345,-6.4244,-6.4061,-6.4061,-6.3977,-6.3382,-6.3427,-6.3523,-6.3197,-6.2622,-6.2179,-6.2068,-6.19,-6.1661,-6.1407,-6.188,-6.2245,-6.2264,-6.2595,-6.2678,-6.2053,-6.2378,-6.2513,-6.2088,-6.2043,-6.2122,-6.203,-6.1184,-6.1166,-6.2381,-6.1731,-6.2026,-6.3534,-6.3547,-6.3285,-6.2525,-6.2191,-6.1312,-5.9685,-5.9637,-5.9612,-5.97,-5.9859,-5.9859,-4.4068,-4.5787,-4.7445,-4.8464,-4.9713,-5.0963,-5.177,-5.2315,-5.2773,-5.3005,-5.284,-5.2621,-5.2517,-5.2139,-5.1938,-5.2382,-5.3237,-5.4239,-5.5339,-5.6337,-5.7152,-5.769,-5.7534,-5.7735,0.0,0.0,0.0,-6.1189,-6.1565,-6.2062,-6.2885,-6.3842,-6.4325,-6.4248,-6.421,-6.4517,-6.5167,-6.593,-6.6611,-6.7133,-6.7903,-6.8797,-6.9802,-6.9919,-7.0271,-7.0857,-7.0987,-7.0566,-6.9736,-6.9519,-6.8376,-6.6784,-6.707,-6.6749,-6.62,-6.713,-6.695,-6.623,-6.6497,-6.6274,-6.5802,-6.5113,-6.4853,-6.4762,-6.467,-6.4615,-6.4501,-6.4501,-6.4403,-6.4244,-6.4102,-6.4061,-6.3977,-6.3447,-6.3317,-6.3239,-6.321,-6.2459,-6.1893,-6.1996,-6.1839,-6.175,-6.1841,-6.2445,-6.3048,-6.331,-6.3309,-6.3251,-6.3056,-6.2973,-6.2941,-6.2965,-6.305,-6.3142,-6.33,-6.2416,-6.223,-6.2785,-6.2322,-6.2321,-6.3209,-6.341,-6.2918,-6.1563,-6.1639,-6.0838,-5.9078,-5.9435,-5.9596,-5.9772,-5.9859,-5.9859,-4.5055,-4.6531,-4.8129,-4.9292,-5.0061,-5.0748,-5.1553,-5.1755,-5.1913,-5.2532,-5.2076,-5.1529,0.0,0.0,-5.1682,-5.1773,-5.2535,-5.3659,-5.5299,-5.5503,-5.5971,0.0,0.0,0.0,0.0,0.0,0.0,-6.1735,0.0,-6.3285,-6.4978,-6.5669,-6.5726,-6.5126,-6.5998,-6.5822,-6.4449,-6.6108,-6.7547,-6.8661,-6.8912,-6.8908,-6.875,-6.998,-7.0126,-6.9584,-7.065,-7.0411,-6.9195,-6.8253,-6.7106,-6.6094,-6.6719,-6.6032,-6.4948,-6.7217,-6.6882,-6.5404,-6.6261,-6.597,-6.5147,-6.4977,-6.4907,-6.4853,-6.4671,-6.4501,-6.4444,-6.4558,-6.4443,-6.4284,-6.4284,-6.4203,-6.3977,-6.3647,-6.3557,-6.3354,-6.2585,-6.2149,-6.1676,-6.0962,-6.1086,-6.1546,-6.2171,-6.3432,-6.455,-6.4929,-6.4619,-6.4252,-6.3878,-6.3291,-6.334,-6.4421,-6.4008,-6.3653,-6.3616,-6.3186,-6.2782,-6.2403,-6.2734,-6.2814,-6.2566,-6.3447,-6.3046,-6.1132,-6.1379,-6.0763,-5.9314,-5.9314,-5.958,-6.0001,-5.9788,-5.9716,-4.491,-4.6154,-4.7423,-4.8908,-4.9419,-4.9766,-5.0568,-5.0751,-5.0806,-5.0964,-5.0836,-5.069,0.0,0.0,0.0,-5.137,-5.1803,0.0,-5.4172,-5.5496,0.0,0.0,0.0,-5.746,-5.6969,-5.7261,0.0,0.0,-6.0147,-6.0796,-6.203,-6.4413,-6.5916,-6.6484,-6.6362,-6.5846,-6.5001,-6.5106,-6.5688,-6.6717,-6.7542,-6.8239,-6.8845,-6.9275,-6.9539,-6.9654,-6.9832,-6.9606,-6.9022,-6.8574,-6.7588,-6.6374,-6.6555,-6.6389,-6.6012,-6.6113,-6.5645,-6.497,-6.4638,-6.4752,-6.5042,-6.4924,-6.4907,-6.4853,-6.4707,-6.467,-6.4596,-6.4482,-6.4405,-6.4306,-6.4061,-6.3934,-6.378,-6.34,-6.3165,-6.2904,-6.2482,-6.2167,-6.1914,-6.1597,-6.2242,-6.3098,-6.3881,-6.4374,-6.4498,-6.4234,-6.4091,-6.3965,-6.3892,-6.3582,-6.3503,-6.3635,-6.3424,-6.3492,-6.4019,-6.3355,-6.3357,-6.431,-6.36,-6.3355,-6.3838,-6.3784,-6.2936,-6.1411,-6.1487,-6.0779,-5.9314,-5.9684,-5.9875,-5.9788,-5.97,-5.9612,-4.453,-4.5697,-4.6833,-4.7441,-4.8075,-4.8647,-4.9125,-4.9446,-4.9749,-5.0198,-4.9998,0.0,0.0,0.0,0.0,0.0,0.0,0.0,-5.388,-5.4974,-5.5613,0.0,-5.6291,0.0,-5.6713,-5.6786,-5.7235,0.0,-5.897,-6.0082,-6.1463,-6.3322,-6.4775,-6.5741,-6.5936,-6.6097,-6.6255,-6.5734,-6.5762,-6.6346,-6.6312,-6.6838,-6.7903,-6.8029,-6.8282,-6.8625,0.0,-6.8527,-6.7664,-6.754,-6.659,-6.528,-6.5804,-6.5487,-6.469,-6.4737,-6.4343,-6.3713,-6.3224,-6.3638,-6.432,-6.4304,-6.4569,-6.4872,-6.4726,-6.4596,-6.4558,-6.4385,-6.4306,-6.4206,-6.3934,-6.378,-6.3602,-6.3213,-6.2904,-6.2603,-6.2291,-6.2024,-6.1782,-6.1776,-6.2408,-6.3188,-6.3953,-6.4218,-6.4234,-6.3802,-6.3673,-6.3617,-6.3526,-6.3377,-6.3422,-6.3538,-6.3514,-6.3684,-6.4354,-6.3925,-6.3948,-6.4669,-6.4072,-6.3761,-6.3943,-6.3557,-6.2708,-6.1503,-6.1289,-6.0654,-5.9684,-5.97,-5.9788,-5.9892,-5.9524,-5.9347,-4.4059,-4.511,-4.6092,-4.5633,-4.6463,-4.7349,-4.7349,-4.7832,-4.8475,-4.9311,0.0,-4.8532,-4.868,0.0,-4.914,-4.9961,0.0,-5.2029,-5.3613,-5.4074,-5.4491,-5.5188,-5.5445,-5.5831,-5.6436,-5.5852,-5.5833,-5.6748,-5.8315,-6.0008,-6.1752,-6.2476,-6.3289,-6.4297,-6.5252,-6.6239,-6.717,-6.6714,-6.6487,-6.6557,-6.5384,-6.5333,-6.6317,-6.6442,-6.6598,-6.6874,-6.7694,-6.7203,-6.586,-6.5914,-6.5021,-6.371,-6.4731,-6.4051,-6.2515,-6.3365,-6.3033,-6.2148,-6.2008,-6.2444,-6.3139,-6.3253,-6.393,-6.4666,-6.4464,-6.4293,-6.4234,-6.4247,-6.4143,-6.4019,-6.3842,-6.3647,-6.3465,-6.3051,-6.2755,-6.2397,-6.2042,-6.1674,-6.1449,-6.1681,-6.2094,-6.2603,-6.3101,-6.3605,-6.3764,-6.3526,-6.3377,-6.3152,-6.2923,-6.2923,-6.3162,-6.3594,-6.3764,-6.4035,-6.4514,-6.4678,-6.4686,-6.4409,-6.4081,-6.3845,-6.3546,-6.304,-6.2329,-6.1375,-6.1035,-6.0534,-6.0066,-5.9596,-5.9596,-5.9979,-5.9347,-5.9104,-4.3914,-4.4295,-4.4657,-4.512,-4.5463,-4.5598,-4.5498,-4.5671,0.0,0.0,0.0,-4.6182,-4.6221,-4.6788,0.0,-4.8279,0.0,0.0,0.0,0.0,-5.3298,0.0,0.0,0.0,0.0,0.0,0.0,0.0,0.0,-5.8213,-5.9971,-6.2327,-6.4016,-6.4986,-6.5366,-6.5363,-6.4954,-6.5118,-6.5285,-6.5378,-6.5427,-6.5175,-6.4698,-6.4717,-6.4738,-6.4734,-6.5342,0.0,-6.508,-6.4989,-6.4436,-6.3698,-6.3786,-6.3274,-6.2468,-6.2482,-6.1854,-6.1032,-6.1087,-6.1128,-6.1225,-6.2087,-6.2935,-6.3596,-6.3369,-6.3272,-6.3324,-6.3813,-6.3958,-6.3891,-6.3691,-6.3465,-6.3165,-6.2755,-6.2397,-6.2042,-6.1728,-6.131,-6.097,-6.1266,-6.188,-6.2451,-6.2788,-6.3283,-6.3526,-6.3134,-6.3059,-6.2923,-6.2537,-6.2632,-6.2744,-6.2645,-6.3396,-6.3834,-6.3798,-6.4752,-6.5156,-6.5008,-6.4145,-6.3529,-6.3394,-6.248,-6.1676,-6.0906,-6.0866,-6.0429,-5.9804,-5.9716,-5.9524,-5.9419,-5.9331,-5.9025,-4.2755,-4.3134,-4.3511,-4.3888,-4.4165,-4.4263,-4.3786,0.0,0.0,0.0,0.0,-4.4874,-4.4565,0.0,0.0,0.0,0.0,0.0,0.0,0.0,0.0,0.0,0.0,0.0,0.0,0.0,0.0,0.0,0.0,-5.8231,-5.9627,-6.2239,-6.3922,-6.4464,-6.5459,-6.5891,-6.5661,-6.5445,-6.5461,-6.5565,-6.4534,-6.4076,-6.4116,-6.3149,-6.2936,-6.3356,-6.3441,-6.3459,-6.3387,-6.3404,-6.2911,-6.2135,-6.2173,-6.1697,-6.0974,-6.0856,-6.0504,-6.0076,-6.0003,-6.021,-6.0472,-6.0511,-6.1412,-6.2464,-6.227,-6.2529,-6.2859,-6.3059,-6.3444,-6.3673,-6.3447,-6.3213,-6.2904,-6.2585,-6.2005,-6.1426,-6.1152,-6.0775,-6.0554,-6.1025,-6.1547,-6.2109,-6.2487,-6.3065,-6.3302,-6.2923,-6.2847,-6.277,-6.2459,-6.2459,-6.2459,-6.2189,-6.3213,-6.3617,-6.3065,-6.393,-6.4252,-6.3817,-6.3064,-6.2597,-6.2522,-6.175,-6.1125,-6.0801,-6.0429,-6.0057,-5.9716,-5.9716,-5.9716,-5.9684,-5.9295,-5.9026,-4.1415,-4.1975,-4.2495,-4.2276,-4.2699,-4.2915,-4.2163,-4.3144,0.0,0.0,-4.3341,-4.3816,-4.3316,0.0,0.0,0.0,0.0,0.0,0.0,0.0,0.0,0.0,0.0,0.0,0.0,0.0,0.0,0.0,0.0,0.0,-6.0296,-6.2424,-6.3647,-6.3823,-6.5328,-6.6269,-6.6623,-6.6104,-6.5936,-6.6082,-6.3968,-6.3249,-6.3669,-6.185,-6.14,-6.2027,-6.1735,-6.1578,-6.1487,-6.163,-6.1198,-6.0453,-6.0632,-6.0217,-5.9581,-5.9493,-5.942,-5.942,-5.9215,-5.9511,-5.9902,-5.9169,-6.0012,-6.1326,-6.1185,-6.1722,-6.2289,-6.2134,-6.275,-6.341,-6.2944,-6.2776,-6.2603,-6.222,-6.1579,-6.0974,-6.0547,-6.028,-6.0136,-6.0552,-6.1171,-6.1726,-6.2082,-6.2741,-6.3076,-6.2787,-6.2632,-6.2554,-6.2398,-6.2381,-6.2285,-6.1997,-6.298,-6.33,-6.2549,-6.3078,-6.3235,-6.2605,-6.2053,-6.1685,-6.1595,-6.0931,-6.0558,-6.0558,-6.0008,-5.9716,-5.9804,-5.9658,-5.9664,-5.9977,-5.9157,-5.8902,-4.0437,-4.1143,-4.152,-4.0651,-4.0969,-4.1286,-4.0515,0.0,0.0,-4.1978,-4.2264,-4.2472,-4.2415,-4.3057,0.0,0.0,0.0,0.0,0.0,0.0,0.0,0.0,0.0,0.0,0.0,0.0,0.0,0.0,0.0,0.0,-6.2097,-6.31,-6.3673,-6.3897,-6.4812,-6.5516,-6.5955,-6.6048,-6.6208,-6.6426,-6.4881,-6.3695,-6.2849,-6.1153,-6.0322,-6.0222,-6.0145,-5.998,0.0,-5.9892,-5.982,-5.9606,-5.9642,-5.9604,-5.9493,-5.9309,-5.9234,-5.9234,-5.9081,-5.894,-5.8851,-5.8777,-5.9436,-6.0245,-6.0078,-6.0568,-6.1148,-6.0995,-6.2059,-6.2999,-6.2004,-6.2087,-6.222,-6.1408,-6.0998,-6.0679,-6.0216,-5.9943,-5.9748,-5.9522,-6.0601,-6.1482,-6.1195,-6.2176,-6.2923,-6.271,-6.2554,-6.2398,-6.2381,-6.2381,-6.2223,-6.179,-6.2446,-6.2749,-6.2264,-6.2908,-6.3078,-6.2661,-6.195,-6.1327,-6.0882,-6.0202,-5.9814,-5.9814,-5.9749,-5.9804,-6.0066,-5.9431,-5.9259,-5.9613,-5.8906,-5.8377,-3.8828,-3.9878,-4.0651,-4.029,-4.0339,-4.0277,-3.9621,0.0,0.0,-4.0099,-4.084,-4.1567,-4.1101,-4.1754,-4.2733,0.0,0.0,0.0,0.0,0.0,0.0,0.0,0.0,0.0,0.0,0.0,0.0,0.0,0.0,0.0,-6.2706,-6.3532,-6.4023,-6.4087,-6.4528,-6.4915,-6.518,-6.5343,-6.527,-6.4851,-6.3651,-6.263,-6.1736,-6.0443,-5.9847,-5.9767,-5.9734,-5.9562,0.0,-5.9417,-5.9346,-5.9119,-5.9177,-5.9196,-5.9196,-5.912,-5.9081,-5.9042,-5.8884,-5.8781,-5.8675,-5.8548,-5.8727,-5.906,-5.956,-6.0589,-6.1579,-6.1421,-6.1882,-6.2211,-6.1618,-6.129,-6.1135,-6.1086,-6.0714,-6.0262,-6.0008,-5.9683,-5.9418,-5.9149,-6.0324,-6.1306,-6.0874,-6.2067,-6.2923,-6.2554,-6.2459,-6.2381,-6.2381,-6.2381,-6.2223,-6.1709,-6.2379,-6.2482,-6.165,-6.2111,-6.2154,-6.1538,-6.0984,-6.0663,-6.056,-5.9719,-5.954,-6.0136,-5.9288,-5.9144,-5.9807,-5.9185,-5.9151,-5.9488,-5.8852,-5.8602,-3.6884,-3.8126,-3.9175,-3.8941,-3.8868,-3.874,0.0,0.0,0.0,-3.8857,-3.986,-4.0836,-4.0352,-4.0985,-4.2069,0.0,0.0,-4.7424,0.0,0.0,0.0,0.0,0.0,0.0,0.0,0.0,0.0,0.0,0.0,0.0,-6.2372,-6.3426,-6.4104,-6.4289,-6.4445,-6.4632,-6.4901,-6.5004,-6.4685,-6.3905,-6.294,-6.1994,-6.1065,-6.0078,-5.9411,-5.9062,-5.9378,-5.9009,0.0,-5.899,-5.895,-5.8505,-5.887,-5.8984,-5.8984,-5.8964,-5.8924,-5.8884,-5.8679,-5.8614,-5.8548,-5.8393,-5.8408,-5.8612,-5.9274,-6.0296,-6.1153,-6.1059,-6.0992,-6.0903,-6.0825,-6.0521,-6.0293,-6.0535,-6.0291,-5.9961,-5.9748,-5.9485,-5.9166,-5.9012,-6.0082,-6.0905,-6.084,-6.1787,-6.2574,-6.2503,-6.2476,-6.2381,-6.2381,-6.2381,-6.2223,-6.187,-6.2178,-6.2131,-6.1152,-6.1398,-6.1363,-6.075,-6.0463,-6.021,-6.0066,-5.9438,-5.9308,-5.9823,-5.8839,-5.8725,-5.953,-5.8701,-5.8652,-5.9345,-5.8571,-5.8355,-3.4655,-3.5859,-3.6747,-3.5951,-3.6134,-3.6376,0.0,0.0,0.0,-3.867,-3.9538,-4.0346,-4.0393,-4.1072,-4.2129,-4.3732,-4.5403,-4.7003,-4.8402,0.0,0.0,0.0,0.0,0.0,0.0,0.0,0.0,0.0,0.0,0.0,-6.0963,-6.264,-6.3911,-6.4558,-6.454,-6.4794,-6.5394,-6.5264,-6.4837,-6.4173,-6.3313,-6.2223,-6.0978,-6.0093,-5.9001,-5.7865,-5.8878,-5.8089,0.0,-5.8331,-5.8536,-5.7605,-5.8607,-5.8984,-5.9003,-5.894,-5.8818,-5.8656,-5.8553,-5.8356,-5.8197,-5.8197,-5.864,-5.9208,-5.9208,-5.9226,-5.9245,-5.9245,-5.9036,-5.8924,-5.931,-5.9761,-6.0014,-5.9544,-5.9618,-5.9748,-5.9603,-5.9319,-5.9012,-5.9012,-5.9668,-6.0374,-6.0916,-6.1417,-6.2019,-6.2591,-6.2554,-6.2381,-6.2381,-6.2381,-6.2285,-6.1997,-6.187,-6.158,-6.1102,-6.1119,-6.1019,-6.0717,-6.0717,-6.0304,-5.9329,-5.9296,-5.9052,-5.8511,-5.8478,-5.8786,-5.9371,-5.7813,-5.78,-5.9293,-5.7814,-5.7397,-3.3101,-3.4,-3.4819,-3.5247,-3.5418,-3.5574,-3.5985,0.0,0.0,-3.7292,-3.8451,-3.9574,-3.969,-4.0956,-4.2435,-4.3938,-4.5151,-4.6408,0.0,0.0,0.0,0.0,0.0,0.0,0.0,0.0,0.0,0.0,0.0,0.0,-6.156,-6.2523,-6.3597,-6.4762,-6.4815,-6.4989,-6.5321,-6.4741,-6.4076,-6.3313,-6.2228,-6.1153,-6.0093,-5.9621,-5.9196,-5.8764,-5.9159,-5.8407,-5.7015,-5.8476,-5.8378,-5.7376,-5.8382,-5.8721,-5.8679,-5.8638,-5.859,-5.848,-5.8312,-5.8223,-5.8197,-5.8088,-5.8226,-5.8492,-5.8948,-5.9498,-5.9876,-5.9212,-5.9255,-5.9478,-5.9542,-5.9402,-5.9459,-6.0178,-6.0194,-5.9961,-5.9748,-5.9569,-5.9386,-5.9386,-5.996,-6.0583,-6.1114,-6.1672,-6.2278,-6.2804,-6.2847,-6.277,-6.2632,-6.2632,-6.2442,-6.2076,-6.148,-6.1157,-6.1284,-6.1318,-6.1019,-6.0439,-6.0406,-6.0156,-5.9488,-5.894,-5.8885,-5.9359,-5.8512,-5.8513,-5.9451,-5.7976,-5.7464,-5.789,-5.8074,-5.8124,0.0,-3.2309,-3.3018,-3.3626,-3.3676,0.0,0.0,0.0,0.0,0.0,-3.7352,-3.8901,-3.9002,-4.0691,-4.2476,-4.3699,-4.4607,-4.5701,-4.7204,0.0,0.0,0.0,0.0,0.0,0.0,0.0,0.0,0.0,0.0,0.0,-6.1713,-6.2122,-6.3066,-6.4595,-6.4743,-6.4699,-6.4581,-6.4095,-6.3289,-6.2166,-6.1443,-6.0543,-5.9508,-5.9346,-5.899,-5.8574,-5.9008,-5.8252,0.0,-5.8356,-5.8275,-5.7309,-5.8317,-5.8614,-5.8511,-5.8511,-5.84,-5.8242,-5.8152,-5.8042,-5.795,-5.7904,-5.7857,-5.7949,-5.8348,-5.9109,-5.964,-5.9049,-5.9051,-5.9302,-5.9472,-5.9383,-5.9474,-6.0262,-6.03,-6.0089,-5.999,-5.9814,-5.9718,-5.9783,-6.0216,-6.0796,-6.145,-6.1952,-6.2468,-6.3131,-6.3134,-6.3076,-6.2864,-6.2515,-6.2251,-6.1924,-6.1093,-6.0684,-6.0918,-6.0809,-6.0645,-6.0558,-6.0291,-5.9884,-5.9362,-5.8917,-5.8807,-5.9252,-5.8574,-5.8453,-5.9046,-5.8323,-5.779,-5.7524,-5.8517,-5.8554,0.0,0.0,0.0,0.0,0.0,0.0,0.0,0.0,0.0,0.0,0.0,0.0,0.0,-4.0303,-4.2187,-4.3013,-4.3914,-4.5078,0.0,0.0,0.0,0.0,0.0,0.0,0.0,0.0,0.0,0.0,0.0,0.0,-6.1499,-6.1553,-6.2382,-6.4113,-6.4268,-6.403,-6.3421,-6.3345,-6.2532,-6.0982,-6.0875,-6.0227,-5.9139,-5.9196,-5.8572,0.0,-5.853,-5.7769,-5.6031,-5.8044,-5.8211,-5.7291,-5.8299,-5.8614,-5.8511,-5.8468,-5.8249,-5.7997,-5.7997,-5.7792,-5.7601,-5.7601,-5.7601,-5.7601,-5.7601,-5.8166,-5.8755,-5.8655,-5.854,-5.8621,-5.933,-5.9703,-5.9933,-5.9969,-6.006,-6.0153,-6.0325,-6.0054,-5.9926,-6.0089,-6.0459,-6.0999,-6.1975,-6.2283,-6.2708,-6.3543,-6.3474,-6.3216,-6.299,-6.2306,-6.1753,-6.1561,-6.0655,-6.0156,-6.0207,-5.9749,-5.994,-6.0718,-6.0206,-5.9557,-5.9038,-5.9067,-5.8927,-5.8492,-5.8651,-5.858,-5.8311,-5.8682,-5.8528,-5.7959,-5.8832,-5.8603,-2.8025,0.0,-3.0005,-3.0754,-3.0878,0.0,0.0,0.0,0.0,0.0,0.0,0.0,0.0,0.0,-4.1537,-4.2378,-4.3756,-4.5304,-4.6957,0.0,0.0,0.0,0.0,0.0,0.0,0.0,0.0,0.0,0.0,-5.957,-6.1274,-6.1217,-6.2005,-6.3925,-6.383,-6.363,-6.3331,-6.2708,-6.1805,-6.0604,-6.002,-5.9441,-5.8821,-5.8921,-5.8646,-5.8129,-5.8357,-5.7808,-5.6798,-5.7975,-5.7987,-5.7381,-5.8196,-5.8486,-5.8375,-5.8179,-5.7978,-5.7839,-5.7745,-5.7649,-5.7601,-5.7601,-5.7553,-5.7455,-5.7455,-5.8019,-5.8655,-5.8605,-5.8888,-5.9348,-6.0106,-6.0172,-6.0174,-6.0683,-6.0754,-6.0635,-6.053,-6.0485,-6.0468,-6.0635,-6.0477,-6.0864,-6.2452,-6.2569,-6.2796,-6.4026,-6.3764,-6.3311,-6.2848,-6.2156,-6.169,-6.1332,-6.0573,-6.035,-6.0861,-6.034,-5.9945,-5.982,-5.9869,-5.9587,-5.9028,-5.8702,-5.8767,-5.9215,-5.9172,-5.8527,-5.7304,-5.8178,-5.8045,-5.7083,-5.7797,-5.8196,-2.6447,-2.7656,-2.887,-2.9734,-2.9999,-3.0169,0.0,0.0,0.0,0.0,0.0,0.0,0.0,0.0,0.0,-4.2333,-4.3126,0.0,0.0,0.0,0.0,0.0,0.0,0.0,0.0,0.0,0.0,0.0,0.0,-5.9255,-6.0518,-6.0549,-6.1168,-6.2606,-6.2885,-6.2854,-6.2483,-6.1916,-6.1052,-5.9815,-5.925,-5.8847,-5.8614,-5.8553,-5.8406,-5.8213,-5.8097,-5.7902,-5.7641,-5.8047,-5.8086,-5.7983,-5.8325,-5.8443,-5.8349,-5.8088,-5.7904,-5.7697,-5.7534,-5.7455,-5.7406,-5.7406,-5.7356,-5.7206,-5.7206,-5.7496,-5.7952,-5.8746,-5.9078,-5.9528,-6.0735,-6.0798,-6.0675,-6.1104,-6.0998,-6.08,-6.0896,-6.0732,-6.0671,-6.0878,-6.1085,-6.1601,-6.2652,-6.3147,-6.3511,-6.3833,-6.3657,-6.3254,-6.251,-6.1933,-6.1444,-6.1086,-6.0392,-6.0165,-6.0649,-6.022,-5.9992,-6.0064,-5.9961,-5.9768,-5.9617,-5.9126,-5.8948,-5.9153,-5.8733,-5.8272,-5.7872,-5.8149,-5.8016,-5.7544,-5.7993,-5.8148,-2.5244,-2.6465,-2.7871,-2.8567,-2.9112,-2.9388,0.0,0.0,0.0,0.0,0.0,0.0,0.0,0.0,0.0,0.0,0.0,0.0,0.0,0.0,0.0,0.0,0.0,0.0,0.0,0.0,0.0,0.0,0.0,-5.9088,-5.9795,-5.9881,-6.0314,-6.1168,-6.1812,-6.1906,-6.1278,-6.1273,-6.0622,-5.9297,-5.886,-5.861,-5.8548,-5.8179,-5.8015,-5.7969,0.0,0.0,-5.8213,-5.8123,-5.8319,-5.8656,-5.8511,-5.84,-5.8305,-5.8042,-5.7792,-5.7553,-5.7406,-5.7307,-5.7206,-5.7206,-5.7087,-5.7003,-5.7003,-5.6899,-5.71,-5.87,-5.9059,-5.9376,-6.1106,-6.1346,-6.1093,-6.1193,-6.1058,-6.0938,-6.1193,-6.0974,-6.0732,-6.1034,-6.1652,-6.2271,-6.2563,-6.3393,-6.3854,-6.3322,-6.3199,-6.2933,-6.2101,-6.1463,-6.0972,-6.0823,-6.0246,-5.9926,-6.0036,-5.9867,-5.9984,-6.0534,-6.0176,-6.0012,-6.0079,-5.9767,-5.9183,-5.8494,-5.8033,-5.807,-5.868,-5.8125,-5.8013,-5.8323,-5.8469,-5.8251,-2.5017,-2.5981,-2.7004,-2.7831,-2.9152,-3.0032,0.0,0.0,0.0,0.0,0.0,0.0,0.0,0.0,0.0,0.0,0.0,0.0,0.0,0.0,0.0,0.0,0.0,0.0,0.0,0.0,0.0,0.0,0.0,-5.9212,-5.999,-5.9966,-6.0314,-6.1168,-6.1229,-6.0877,-6.0152,-6.1466,-6.1582,-6.0515,-5.9712,-5.9154,-5.8732,-5.8103,-5.7679,-5.7338,0.0,-5.7697,-5.8042,-5.7886,-5.8115,-5.8511,-5.8312,-5.8179,-5.8042,-5.7745,-5.7534,-5.7388,-5.7307,-5.7206,-5.7188,-5.7054,-5.7003,-5.7003,-5.6847,-5.6742,-5.6833,-5.7765,-5.8536,-5.9376,-6.0916,-6.1211,-6.1093,-6.0921,-6.0956,-6.1016,-6.0921,-6.0956,-6.1034,-6.1093,-6.1045,-6.1287,-6.1965,-6.2169,-6.2362,-6.271,-6.2364,-6.1905,-6.1476,-6.092,-6.0428,-6.0265,-6.0241,-6.0315,-6.0315,-5.9946,-5.9732,-5.9856,-6.0229,-6.0136,-5.9304,-5.9862,-5.9274,-5.7451,-5.8009,-5.806,-5.7601,-5.7442,-5.7588,-5.8087,-5.7975,-5.806,-2.4531,-2.5642,-2.6753,-2.7161,-2.8889,-3.0354,-2.9807,0.0,0.0,0.0,0.0,0.0,0.0,0.0,0.0,0.0,0.0,0.0,0.0,0.0,0.0,0.0,0.0,0.0,0.0,0.0,0.0,0.0,0.0,0.0,-5.9339,-5.9357,-5.9501,-5.9746,-6.0147,-6.0115,-5.9645,-6.0811,-6.0701,-5.9411,-5.874,-5.8322,-5.805,-5.7668,-5.7388,-5.7188,0.0,-5.7504,-5.7904,-5.7857,-5.8042,-5.8418,-5.8179,-5.8042,-5.795,-5.7601,-5.7406,-5.7289,-5.7188,-5.7188,-5.7206,-5.7156,-5.7003,-5.6899,-5.6794,-5.6653,-5.6671,-5.7475,-5.7958,-5.8512,-5.9638,-5.9866,-5.975,-5.9674,-6.021,-6.0744,-6.0705,-6.0988,-6.1292,-6.1292,-6.1216,-6.1272,-6.1689,-6.1987,-6.2058,-6.1958,-6.1771,-6.1446,-6.085,-6.0715,-6.0591,-6.0512,-6.0671,-6.0694,-6.0445,-6.0012,-5.9621,-5.9193,-5.9612,-5.9445,-5.8556,-5.9024,-5.866,-5.7325,-5.7651,-5.772,-5.7504,-5.7455,-5.7601,-5.7997,-5.807,-5.8249,-2.4152,-2.5427,-2.6743,-2.6723,0.0,-3.0465,-3.0215,0.0,0.0,0.0,0.0,0.0,0.0,0.0,0.0,0.0,0.0,0.0,0.0,0.0,0.0,0.0,0.0,0.0,0.0,0.0,0.0,0.0,0.0,0.0,-5.8716,-5.8777,-5.8675,-5.8486,-5.9072,-5.9316,-5.9117,-5.9707,-5.955,-5.8658,-5.811,-5.7777,-5.7611,-5.7329,-5.7206,-5.7257,-5.7289,-5.7504,-5.7886,-5.7839,-5.8042,-5.8349,-5.8042,-5.7886,-5.7774,-5.7286,-5.7016,-5.6917,-5.6917,-5.6917,-5.6935,-5.7083,-5.6984,-5.6847,-5.6794,-5.66,-5.658,-5.7132,-5.7311,-5.7525,-5.847,-5.872,-5.8663,-5.8663,-5.9519,-6.0356,-6.0354,-6.0765,-6.1175,-6.1297,-6.1216,-6.1157,-6.1288,-6.1671,-6.18,-6.1237,-6.1213,-6.1048,-6.0529,-6.0653,-6.0669,-6.0551,-6.0671,-6.055,-5.9905,-5.9591,-5.9048,-5.8065,-5.8807,-5.8934,-5.823,-5.8402,-5.8173,-5.7553,-5.7553,-5.7601,-5.7745,-5.7745,-5.7886,-5.8179,-5.8319,-5.8553,-2.4115,-2.5466,-2.6859,-2.6801,-2.8569,0.0,-3.0286,0.0,0.0,0.0,0.0,0.0,0.0,0.0,0.0,0.0,0.0,0.0,0.0,0.0,0.0,0.0,0.0,0.0,0.0,0.0,0.0,0.0,0.0,0.0,-5.8716,-5.8505,-5.8437,-5.8393,-5.836,-5.8289,-5.8289,-5.8235,-5.8812,-6.0073,-5.9127,-5.8565,-5.8293,-5.7532,-5.7257,-5.7388,-5.7504,-5.7792,-5.8152,-5.8042,-5.8106,-5.8197,-5.7904,-5.7649,-5.7346,-5.6454,-5.6084,-5.6084,-5.6084,-5.6084,-5.621,-5.6801,-5.7003,-5.6951,-5.6707,-5.66,-5.6564,-5.6527,-5.649,-5.6829,-5.8328,-5.872,-5.8663,-5.8566,-5.9229,-5.9898,-5.9799,-5.9911,-6.0201,-6.0718,-6.0404,-6.0131,-6.0574,-6.0689,-6.0707,-6.0653,-6.0529,-6.0511,-6.0565,-6.0609,-6.0369,-5.9728,-5.9852,-5.9495,-5.8304,-5.8161,-5.7513,-5.6088,-5.8262,-5.9338,-5.8792,-5.8755,-5.8519,-5.7969,-5.795,-5.8042,-5.8152,-5.8152,-5.8331,-5.8656,-5.8656,-5.8762,-2.4007,-2.5134,-2.6284,-2.6804,0.0,0.0,0.0,0.0,0.0,0.0,0.0,0.0,0.0,0.0,0.0,0.0,0.0,0.0,0.0,0.0,0.0,0.0,0.0,0.0,0.0,0.0,0.0,0.0,0.0,0.0,-5.7854,-5.8209,-5.84,-5.8286,-5.8242,-5.8152,-5.8106,-5.795,-5.8103,-5.8592,-5.8203,-5.7959,-5.7724,-5.6926,-5.6612,-5.6643,-5.6372,-5.6584,-5.7217,-5.7262,-5.7556,-5.7895,-5.7102,-5.6418,-5.5789,-5.5432,-5.5323,-5.5323,-5.5323,-5.5256,-5.5315,-5.6093,-5.6245,-5.6199,-5.6685,-5.6742,-5.66,-5.6546,-5.6437,-5.6525,-5.7114,-5.7275,-5.7275,-5.7237,-5.8031,-5.8807,-5.8659,-5.9147,-5.9633,-5.977,-5.9831,-5.9946,-6.0131,-6.0456,-6.0696,-6.0696,-6.0167,-5.9805,-5.9969,-5.9681,-5.9371,-5.9166,-5.9002,-5.8628,-5.8053,-5.7794,-5.7138,-5.6002,-5.7282,-5.7851,-5.72,-5.7832,-5.8055,-5.7904,-5.8042,-5.8152,-5.8197,-5.8312,-5.8486,-5.8698,-5.8821,-5.8984,-2.4118,-2.5189,-2.6339,0.0,0.0,0.0,0.0,0.0,0.0,0.0,0.0,0.0,0.0,0.0,0.0,0.0,0.0,0.0,0.0,0.0,0.0,0.0,0.0,0.0,0.0,0.0,0.0,0.0,0.0,0.0,0.0,-5.7716,-5.801,-5.8133,-5.8152,-5.8088,-5.7997,-5.7904,-5.7839,-5.7792,-5.7186,-5.7061,-5.737,-5.6843,-5.6637,-5.6744,-5.6081,-5.6154,-5.6713,-5.6758,-5.7171,-5.7624,-5.6642,-5.5831,-5.5196,-5.4707,-5.4526,-5.4526,-5.446,-5.4412,-5.4471,-5.5297,-5.5451,-5.544,-5.6031,-5.6039,-5.5954,-5.6152,-5.6116,-5.6079,-5.6384,-5.6437,-5.6401,-5.6401,-5.7245,-5.7981,-5.7891,-5.8358,-5.8862,-5.9021,-5.9197,-5.937,-5.9563,-5.9969,-6.029,-6.0367,-5.9786,-5.9371,-5.9505,-5.9212,-5.8968,-5.8808,-5.8336,-5.788,-5.7523,-5.7302,-5.6776,-5.5946,-5.6667,-5.6867,-5.6339,-5.7068,-5.7629,-5.7932,-5.8179,-5.8331,-5.8375,-5.8529,-5.8739,-5.8884,-5.8781,-5.8934,-2.4459,-2.5774,0.0,0.0,0.0,0.0,0.0,0.0,0.0,0.0,0.0,0.0,0.0,0.0,0.0,0.0,0.0,0.0,0.0,0.0,0.0,0.0,0.0,0.0,0.0,0.0,0.0,0.0,0.0,0.0,0.0,-5.6849,-5.7171,-5.796,-5.7997,-5.7997,-5.7997,-5.7997,-5.8042,-5.8179,-5.6318,-5.6098,-5.7388,-5.7351,-5.7613,-5.7905,-5.6978,-5.674,-5.7,-5.6867,-5.7125,-5.751,-5.6689,-5.6218,-5.5776,-5.4273,-5.3693,-5.3693,-5.3532,-5.3466,-5.3592,-5.4404,-5.4675,-5.4657,-5.4471,-5.4403,-5.4532,-5.5237,-5.5312,-5.5455,-5.6349,-5.6492,-5.6401,-5.6401,-5.6989,-5.7578,-5.7578,-5.7578,-5.7792,-5.856,-5.8301,-5.8196,-5.8856,-5.9057,-5.9149,-5.9367,-5.9222,-5.9149,-5.9349,-5.9509,-5.9307,-5.8678,-5.7977,-5.7273,-5.6489,-5.6528,-5.6319,-5.5629,-5.6423,-5.6775,-5.6603,-5.6793,-5.7313,-5.816,-5.8381,-5.8553,-5.8698,-5.884,-5.904,-5.9271,-5.8483,-5.8667,-2.431,0.0,0.0,0.0,0.0,0.0,0.0,0.0,0.0,0.0,0.0,0.0,0.0,0.0,0.0,0.0,0.0,0.0,0.0,0.0,0.0,0.0,0.0,0.0,0.0,0.0,0.0,0.0,0.0,0.0,0.0,-5.5779,-5.6415,-5.7134,-5.7171,-5.7428,-5.7997,-5.7904,-5.7904,-5.7886,-5.7269,-5.6977,-5.6997,-5.5202,-5.4789,-5.5478,-5.4754,-5.5109,-5.6295,-5.7261,-5.7354,-5.6867,-5.6536,-5.5629,-5.447,-5.4016,-5.3425,-5.286,-5.2795,-5.2748,-5.278,-5.3688,-5.3942,-5.4074,-5.5158,-5.5433,-5.5563,-5.6323,-5.6435,-5.6401,-5.6688,-5.6689,-5.6653,-5.6437,-5.6671,-5.6904,-5.6904,-5.694,-5.7119,-5.7353,-5.7765,-5.8231,-5.8412,-5.8916,-5.9331,-5.9402,-5.8862,-5.8338,-5.8036,-5.8164,-5.8288,-5.8032,-5.7938,-5.7574,-5.674,-5.7317,-5.6956,-5.5073,-5.5891,-5.6376,-5.6245,-5.6927,-5.7159,-5.6807,-5.7568,-5.7987,-5.7947,-5.8762,-5.8953,-5.8464,-5.9037,-5.9137,-2.4447,0.0,0.0,0.0,0.0,0.0,0.0,0.0,0.0,0.0,0.0,0.0,0.0,0.0,0.0,0.0,0.0,0.0,0.0,0.0,0.0,0.0,0.0,0.0,0.0,0.0,0.0,0.0,0.0,0.0,0.0,-5.4969,-5.5588,-5.6308,-5.6326,-5.6565,-5.7042,-5.6997,-5.6933,-5.6997,-5.62,-5.5933,-5.6079,-5.5037,-5.4736,-5.5012,-5.464,-5.5198,-5.6467,-5.7269,-5.7428,-5.7134,-5.6666,-5.5614,-5.4298,-5.4008,-5.3326,-5.2498,-5.2452,-5.2358,-5.2383,-5.2965,-5.3279,-5.3695,-5.4683,-5.5189,-5.5523,-5.6335,-5.6431,-5.6399,-5.6757,-5.6847,-5.6742,-5.66,-5.66,-5.6689,-5.6689,-5.6742,-5.6794,-5.6794,-5.7295,-5.7724,-5.7776,-5.7955,-5.8184,-5.8286,-5.7869,-5.7429,-5.7134,-5.7609,-5.795,-5.795,-5.7794,-5.7413,-5.662,-5.6762,-5.6372,-5.4973,-5.5524,-5.5939,-5.5939,-5.6442,-5.659,-5.6366,-5.7099,-5.7641,-5.7847,-5.8613,-5.8756,-5.8321,-5.9001,-5.9127,0.0,0.0,0.0,0.0,0.0,0.0,0.0,0.0,0.0,0.0,0.0,0.0,0.0,0.0,0.0,0.0,0.0,0.0,0.0,0.0,0.0,0.0,0.0,0.0,0.0,0.0,0.0,0.0,0.0,0.0,0.0,-5.4289,-5.4656,-5.5464,-5.5482,-5.5482,-5.5482,-5.5556,-5.5643,-5.5656,-5.4057,-5.387,-5.4914,-5.5932,-5.6103,-5.5625,-5.5789,-5.6293,-5.699,-5.6897,-5.7269,-5.7703,-5.6859,-5.5842,-5.4825,-5.4181,-5.3326,-5.248,-5.2358,-5.2311,-5.2311,-5.2311,-5.2798,-5.3424,-5.3514,-5.4038,-5.4796,-5.5681,-5.5779,-5.5839,-5.6786,-5.6951,-5.6829,-5.6757,-5.6793,-5.6794,-5.6847,-5.6793,-5.6739,-5.6739,-5.6789,-5.6837,-5.6989,-5.649,-5.6182,-5.6492,-5.6556,-5.6603,-5.6584,-5.74,-5.7994,-5.8086,-5.7624,-5.7052,-5.6329,-5.5705,-5.5339,-5.5249,-5.549,-5.5632,-5.5616,-5.5538,-5.5823,-5.6442,-5.682,-5.7375,-5.8135,-5.84,-5.857,-5.8635,-5.8723,-5.8817,0.0,0.0,0.0,0.0,0.0,0.0,0.0,0.0,0.0,0.0,0.0,0.0,0.0,0.0,0.0,0.0,0.0,0.0,0.0,0.0,0.0,0.0,0.0,0.0,0.0,0.0,0.0,0.0,0.0,0.0,-5.3534,-5.3534,-5.3879,-5.462,-5.4656,-5.4594,-5.4488,-5.5218,-5.5306,-5.4724,-5.4356,-5.4409,-5.47,-5.3736,-5.3632,-5.4253,-5.502,-5.5371,-5.5432,-5.5937,-5.6178,-5.6257,-5.5923,-5.5202,-5.4355,-5.4082,-5.339,-5.2581,-5.248,-5.2452,-5.2452,-5.2452,-5.256,-5.2814,-5.3465,-5.3772,-5.4189,-5.5564,-5.5962,-5.6125,-5.6939,-5.7156,-5.6993,-5.6477,-5.6653,-5.7003,-5.7087,-5.6599,-5.6247,-5.643,-5.5843,-5.5377,-5.5438,-5.5329,-5.5438,-5.6164,-5.6368,-5.6463,-5.6603,-5.647,-5.667,-5.7334,-5.7501,-5.75,-5.745,-5.7957,-5.7567,-5.5795,-5.63,-5.6176,-5.5132,-5.5503,-5.5583,-5.5259,-5.5965,-5.6734,-5.7554,-5.8306,-5.8741,-5.884,-5.9528,-5.9588,0.0,0.0,0.0,0.0,0.0,0.0,0.0,0.0,0.0,0.0,0.0,0.0,0.0,0.0,0.0,0.0,0.0,0.0,0.0,0.0,0.0,0.0,0.0,0.0,0.0,0.0,0.0,0.0,0.0,-5.2257,-5.2257,-5.2177,-5.2338,-5.272,-5.2716,-5.2656,-5.2637,-5.3078,-5.312,-5.2821,-5.2803,-5.2843,-5.3003,-5.3006,-5.353,-5.4502,-5.4911,-5.5261,-5.5569,-5.5794,-5.5895,-5.5828,-5.568,-5.5009,-5.4162,-5.4054,-5.3435,-5.2608,-5.2581,-5.2526,-5.2544,-5.2618,-5.2854,-5.3207,-5.3689,-5.4117,-5.4607,-5.5389,-5.5625,-5.5716,-5.6134,-5.6261,-5.6152,-5.5782,-5.6194,-5.6536,-5.6187,-5.5819,-5.5529,-5.568,-5.5547,-5.5462,-5.5636,-5.5749,-5.5832,-5.5814,-5.5925,-5.6036,-5.6017,-5.6337,-5.6742,-5.7186,-5.7513,-5.777,-5.7941,-5.8035,-5.7655,-5.6578,-5.6932,-5.6892,-5.6234,-5.6554,-5.6383,-5.5626,-5.6083,-5.6711,-5.7506,-5.8453,-5.8959,-5.9016,-5.9941,-6.0177,0.0,0.0,0.0,0.0,0.0,0.0,0.0,0.0,0.0,0.0,0.0,0.0,0.0,0.0,0.0,0.0,0.0,0.0,0.0,0.0,0.0,0.0,0.0,0.0,0.0,0.0,0.0,0.0,0.0,-5.1137,-5.1137,-5.1003,-5.0925,-5.0885,-5.0824,-5.0769,-5.0643,-5.075,-5.083,-5.0857,-5.0947,-5.1006,-5.1102,-5.2622,-5.383,-5.4745,-5.4631,-5.5076,-5.5816,-5.5447,-5.5341,-5.541,-5.5257,-5.4723,-5.4005,-5.3898,-5.3353,-5.2654,-5.2635,-5.2581,-5.2572,-5.2735,-5.3172,-5.3654,-5.3763,-5.4282,-5.4811,-5.4957,-5.4994,-5.503,-5.5158,-5.5212,-5.5176,-5.503,-5.5567,-5.5909,-5.5382,-5.5116,-5.508,-5.5214,-5.5565,-5.5988,-5.6179,-5.6511,-5.6475,-5.5706,-5.5705,-5.5794,-5.5705,-5.6369,-5.6959,-5.7089,-5.7409,-5.7754,-5.8089,-5.7691,-5.7435,-5.7567,-5.7611,-5.7658,-5.7654,-5.7749,-5.7529,-5.6882,-5.6866,-5.7191,-5.7901,-5.8781,-5.935,-5.963,-6.0257,-6.0661,0.0,0.0,0.0,0.0,0.0,0.0,0.0,0.0,0.0,0.0,0.0,0.0,0.0,0.0,0.0,0.0,0.0,0.0,0.0,0.0,0.0,0.0,0.0,0.0,0.0,0.0,0.0,0.0,-5.1232,-5.1194,-5.1194,-5.1118,-5.1021,-5.0885,-5.0824,-5.0413,-4.9618,-5.0457,-5.0536,-4.9914,-5.0861,-5.1008,-5.0445,-5.1323,-5.2159,-5.2958,-5.2995,-5.3404,-5.3973,-5.3114,-5.3145,-5.3631,-5.3542,-5.3463,-5.3329,-5.3163,-5.3028,-5.2937,-5.2806,-5.2761,-5.2761,-5.2806,-5.2878,-5.2925,-5.297,-5.3043,-5.328,-5.3972,-5.4173,-5.4337,-5.503,-5.5212,-5.503,-5.4491,-5.493,-5.5679,-5.6264,-5.5658,-5.532,-5.6328,-5.5962,-5.545,-5.5358,-5.5988,-5.6455,-5.6438,-5.653,-5.6702,-5.679,-5.5863,-5.5513,-5.6262,-5.661,-5.7136,-5.8102,-5.8899,-5.9124,-5.8634,-5.8669,-5.8405,-5.7787,-5.7796,-5.8118,-5.8827,-5.8157,-5.8221,-5.9077,-5.9217,-6.0117,-6.1675,-6.1041,-6.1189,0.0,0.0,0.0,0.0,0.0,0.0,0.0,0.0,0.0,0.0,0.0,0.0,0.0,0.0,0.0,0.0,0.0,0.0,0.0,0.0,0.0,0.0,0.0,0.0,0.0,0.0,0.0,0.0,-4.9951,-4.9879,-4.9861,-4.9843,-4.9713,-4.9562,-4.9542,-4.9299,-4.8893,-4.934,-4.9416,-4.9067,-4.9694,-4.9729,-4.9395,-5.0212,-5.1065,-5.1972,-5.1917,-5.2011,-5.2269,-5.1745,-5.1661,-5.1948,-5.2385,-5.2467,-5.2462,-5.2877,-5.2663,-5.2291,-5.2641,-5.2425,-5.2045,-5.2634,-5.2806,-5.2806,-5.2912,-5.2955,-5.309,-5.3438,-5.3548,-5.3621,-5.3987,-5.4078,-5.403,-5.3726,-5.3847,-5.4279,-5.5192,-5.5295,-5.5477,-5.6392,-5.599,-5.5778,-5.663,-5.718,-5.739,-5.7063,-5.7032,-5.6953,-5.6594,-5.6462,-5.6437,-5.6442,-5.7454,-5.8165,-5.8302,-5.9213,-5.9701,-5.9604,-5.9596,-5.956,-5.9381,-5.9381,-5.9587,-6.0035,-5.9179,-5.893,-5.93,-5.9873,-6.0786,-6.2021,-6.1228,-6.1585,0.0,0.0,0.0,0.0,0.0,0.0,0.0,0.0,0.0,0.0,0.0,0.0,0.0,0.0,0.0,0.0,0.0,0.0,0.0,0.0,0.0,0.0,0.0,0.0,0.0,0.0,0.0,0.0,-4.8763,-4.8839,-4.8822,-4.8751,-4.8642,-4.8532,-4.8494,-4.8457,-4.8457,-4.8457,-4.8513,-4.8587,-4.8697,-4.8697,-4.8605,-4.9252,-5.0009,-5.0765,-5.0843,-5.0972,-5.1101,-5.0745,-5.0701,-5.0857,-5.1683,-5.1935,-5.1907,-5.2468,-5.2389,-5.201,-5.2412,-5.2215,-5.1863,-5.2641,-5.2912,-5.2912,-5.2999,-5.3103,-5.3206,-5.3206,-5.3206,-5.3206,-5.3206,-5.3206,-5.3206,-5.323,-5.3292,-5.3543,-5.4252,-5.4979,-5.5668,-5.6145,-5.6098,-5.636,-5.7555,-5.8139,-5.8258,-5.7714,-5.7687,-5.7431,-5.6697,-5.7243,-5.7359,-5.6462,-5.7958,-5.8761,-5.8178,-5.9185,-5.9918,-6.0159,-6.0246,-6.0379,-6.0604,-6.0604,-6.0655,-6.071,-6.0027,-5.9676,-5.9676,-6.0426,-6.1223,-6.2031,-6.1273,-6.1726,0.0,0.0,0.0,0.0,0.0,0.0,0.0,0.0,0.0,0.0,0.0,0.0,0.0,0.0,0.0,0.0,0.0,0.0,0.0,0.0,0.0,0.0,0.0,0.0,0.0,0.0,0.0,0.0,-4.8412,-4.8822,-4.8909,-4.8642,-4.8532,-4.8587,-4.842,-4.8306,-4.8306,-4.8457,-4.8513,-4.8587,-4.8587,-4.8587,-4.8587,-4.8642,-4.8716,-4.8808,-4.9621,-5.0322,-5.0872,-5.0078,-5.0165,-5.0875,-5.1683,-5.1995,-5.1995,-5.187,-5.2304,-5.2816,-5.2102,-5.2322,-5.2944,-5.3146,-5.3164,-5.3164,-5.3164,-5.3206,-5.3206,-5.3206,-5.3206,-5.3206,-5.3206,-5.3206,-5.3206,-5.3277,-5.3889,-5.4417,-5.4424,-5.5147,-5.5804,-5.5889,-5.6522,-5.7039,-5.7113,-5.7907,-5.8492,-5.86,-5.8743,-5.8567,-5.7884,-5.7866,-5.7359,-5.5886,-5.7253,-5.8,-5.7394,-5.8989,-6.0026,-6.0099,-6.0323,-6.0525,-6.0604,-6.0604,-6.0655,-6.08,-6.0671,-6.0652,-6.0723,-6.0762,-6.1293,-6.2174,-6.1383,-6.1522,0.0,0.0,0.0,0.0,0.0,0.0,0.0,0.0,0.0,0.0,0.0,0.0,0.0,0.0,0.0,0.0,0.0,0.0,0.0,0.0,0.0,0.0,0.0,0.0,0.0,0.0,0.0,0.0,0.0,-4.7299,-4.7159,-4.7124,-4.7294,-4.7758,-4.7224,-4.6983,-4.7,-4.6966,-4.6984,-4.7073,-4.7554,-4.7776,-4.7794,-4.8311,-4.8532,-4.8569,-4.8919,-4.9196,-4.9341,-4.8952,-4.893,-4.9237,-5.0123,-5.0395,-5.0409,-5.0941,-5.1307,-5.148,-5.1718,-5.1932,-5.2199,-5.2747,-5.2999,-5.3103,-5.3188,-5.323,-5.3295,-5.3378,-5.3378,-5.3378,-5.3378,-5.3378,-5.3378,-5.34,-5.4049,-5.4658,-5.4695,-5.5323,-5.6208,-5.7303,-5.6921,-5.6802,-5.7942,-5.8006,-5.7962,-5.818,-5.8686,-5.8839,-5.82,-5.8576,-5.8554,-5.7529,-5.8503,-5.891,-5.8145,-5.9254,-6.0057,-6.0159,-6.0342,-6.0499,-6.0655,-6.066,-6.0729,-6.0846,-6.0846,-6.0823,-6.08,-6.0846,-6.1315,-6.2131,-6.1346,-6.1485,0.0,0.0,0.0,0.0,0.0,0.0,0.0,0.0,0.0,0.0,0.0,0.0,0.0,0.0,0.0,0.0,0.0,0.0,0.0,0.0,0.0,0.0,0.0,0.0,0.0,0.0,0.0,0.0,0.0,0.0,-4.6255,-4.6221,-4.641,-4.6819,-4.6358,-4.6116,-4.6168,-4.61,-4.6211,-4.6505,-4.6781,-4.7169,-4.7703,-4.7997,-4.8274,-4.8532,-4.8569,-4.8569,-4.8494,-4.8438,-4.8363,-4.8396,-4.9281,-4.9572,-4.9526,-5.0116,-5.0464,-5.0698,-5.1247,-5.1614,-5.1901,-5.2767,-5.3109,-5.3193,-5.3254,-5.3318,-5.34,-5.3481,-5.3499,-5.3499,-5.3499,-5.3539,-5.3558,-5.3558,-5.4044,-5.4528,-5.4865,-5.5469,-5.6242,-5.7159,-5.6945,-5.6915,-5.7832,-5.8064,-5.822,-5.8372,-5.8934,-5.9082,-5.8377,-5.9072,-5.9201,-5.8221,-5.9176,-5.9417,-5.8293,-5.9368,-6.0004,-5.9788,-6.0189,-6.0506,-6.0685,-6.0685,-6.0757,-6.0911,-6.0622,-6.058,-6.0823,-6.0911,-6.1224,-6.1728,-6.1213,-6.1331,0.0,0.0,0.0,0.0,0.0,0.0,0.0,0.0,0.0,0.0,0.0,0.0,0.0,0.0,0.0,0.0,0.0,0.0,0.0,0.0,0.0,0.0,0.0,0.0,0.0,0.0,0.0,0.0,-4.5871,-4.6231,-4.6231,-4.6115,-4.601,-4.5865,-4.5883,-4.5883,-4.5901,-4.5865,-4.6269,-4.704,-4.6396,-4.6929,-4.8439,-4.7757,-4.7848,-4.8587,-4.8587,-4.8587,-4.8494,-4.8569,-4.8569,-4.8586,-4.936,-4.9634,-4.9536,-4.9417,-4.9933,-5.0674,-5.0769,-5.136,-5.225,-5.3164,-5.3481,-5.3499,-5.3499,-5.3499,-5.3499,-5.3499,-5.3499,-5.3499,-5.3481,-5.3598,-5.3714,-5.3714,-5.3868,-5.4243,-5.4892,-5.5572,-5.5925,-5.5341,-5.6496,-5.7393,-5.6762,-5.8091,-5.9234,-5.9253,-5.9434,-5.9273,-5.8561,-5.9204,-5.9157,-5.7685,-5.8988,-5.9342,-5.7815,-5.9282,-5.9951,-5.9092,-5.9958,-6.0578,-6.0685,-6.0685,-6.0757,-6.0911,-6.0044,-6.0025,-6.0891,-6.0957,-6.098,-6.1002,-6.1002,-6.108,-2.4379,0.0,0.0,0.0,0.0,0.0,0.0,0.0,0.0,0.0,0.0,0.0,0.0,0.0,0.0,0.0,0.0,0.0,0.0,0.0,0.0,0.0,0.0,0.0,0.0,0.0,0.0,0.0,-4.453,-4.4578,-4.4484,-4.4973,-4.5252,-4.5268,-4.5821,-4.5928,-4.549,-4.5337,-4.5395,-4.5651,-4.6004,-4.6759,-4.7864,-4.8251,-4.8529,-4.8732,-4.8804,-4.8768,-4.8715,-4.8642,-4.8587,-4.8587,-4.8809,-4.8901,-4.8864,-4.8827,-4.9342,-5.0043,-5.0081,-5.1021,-5.2296,-5.2557,-5.3019,-5.3539,-5.3616,-5.3656,-5.3637,-5.3697,-5.3736,-5.3736,-5.3831,-5.3869,-5.3926,-5.3963,-5.4485,-5.5007,-5.5175,-5.5864,-5.6386,-5.6124,-5.6537,-5.7136,-5.7585,-5.7674,-5.7858,-5.8549,-5.8167,-5.7763,-5.7654,-5.7843,-5.8097,-5.8418,-5.8855,-5.9209,-5.9395,-5.9989,-6.0265,-6.0036,-6.0365,-6.0604,-6.0685,-6.0685,-6.0757,-6.0911,-6.0044,-6.0049,-6.0981,-6.0422,-6.0422,-6.1002,-6.1099,-6.1155,0.0,0.0,0.0,0.0,0.0,0.0,-2.5527,-2.735,0.0,0.0,0.0,0.0,0.0,0.0,0.0,0.0,0.0,0.0,0.0,0.0,0.0,0.0,0.0,0.0,0.0,-4.3258,-4.333,-4.3485,-4.3503,-4.3608,-4.3786,-4.4113,-4.437,-4.4402,-4.4863,-4.4967,-4.4689,-4.4572,-4.4705,-4.5053,-4.5183,-4.5867,-4.7064,-4.7599,-4.8023,-4.8357,-4.8725,-4.8874,-4.8857,-4.875,-4.8714,-4.8678,-4.8678,-4.8642,-4.8587,-4.8587,-4.8938,-4.9455,-5.0176,-5.1045,-5.2027,-5.2693,-5.323,-5.3658,-5.3754,-5.3811,-5.385,-5.3926,-5.3907,-5.3944,-5.4,-5.4037,-5.4037,-5.4091,-5.4501,-5.4856,-5.4801,-5.5302,-5.5787,-5.6015,-5.6425,-5.6851,-5.7108,-5.7137,-5.7427,-5.8358,-5.7772,-5.7389,-5.7908,-5.7599,-5.7592,-5.822,-5.8631,-5.8927,-5.912,-5.9941,-6.0291,-5.9928,-6.0341,-6.0629,-6.0685,-6.0685,-6.0753,-6.0846,-6.0044,-5.9936,-6.0539,-6.0036,-6.023,-6.1041,-6.1155,-6.121,0.0,0.0,0.0,0.0,0.0,0.0,-2.5056,-2.6344,-2.7831,0.0,0.0,0.0,0.0,0.0,0.0,0.0,0.0,0.0,0.0,0.0,0.0,0.0,0.0,0.0,-4.1801,-4.1801,-4.2015,-4.2612,-4.2667,-4.2891,-4.349,-4.3343,-4.3364,-4.3615,-4.3615,-4.3738,-4.3966,-4.3985,-4.4336,-4.5038,-4.4364,-4.4842,-4.6323,-4.6535,-4.7014,-4.7757,-4.8556,-4.8909,-4.8909,-4.8909,-4.8874,-4.8822,-4.8822,-4.8732,-4.8623,-4.8623,-4.8732,-4.9045,-5.0565,-5.125,-5.1676,-5.32,-5.3758,-5.3851,-5.3982,-5.4019,-5.4019,-5.4091,-5.4091,-5.4091,-5.4127,-5.4127,-5.4127,-5.4127,-5.4235,-5.4271,-5.4181,-5.4371,-5.4731,-5.5363,-5.6152,-5.6541,-5.5979,-5.662,-5.7453,-5.8218,-5.763,-5.7446,-5.8356,-5.7666,-5.7218,-5.7424,-5.8253,-5.8491,-5.7853,-5.9366,-5.9982,-5.9128,-5.9869,-6.0405,-6.0575,-6.0479,-6.0503,-6.0646,-5.9931,-5.961,-5.9745,-5.9882,-6.0345,-6.1099,-6.1173,-6.1245,0.0,0.0,0.0,0.0,0.0,0.0,-2.5235,-2.6403,-2.8003,0.0,0.0,0.0,0.0,0.0,0.0,0.0,0.0,0.0,0.0,0.0,0.0,0.0,0.0,0.0,-4.1801,-4.1745,-4.1762,-4.1813,-4.1772,-4.1755,-4.1773,-4.1696,-4.2322,-4.373,-4.3767,-4.4165,-4.5013,-4.5032,-4.5106,-4.5254,-4.5087,-4.5514,-4.6479,-4.721,-4.7601,-4.7738,-4.8661,-4.8996,-4.8909,-4.8909,-4.8909,-4.8874,-4.8874,-4.8874,-4.882,-4.882,-4.8927,-4.9164,-5.0147,-5.0946,-5.1724,-5.2767,-5.3513,-5.4055,-5.4055,-5.4055,-5.4091,-5.4091,-5.4091,-5.4127,-5.4235,-5.4254,-5.4271,-5.4405,-5.4439,-5.4472,-5.4576,-5.4608,-5.4729,-5.4912,-5.5592,-5.6134,-5.5996,-5.6254,-5.6565,-5.6717,-5.6015,-5.555,-5.575,-5.5548,-5.5689,-5.6491,-5.7329,-5.7844,-5.7796,-5.8884,-5.9198,-5.8374,-5.8592,-5.9065,-5.97,-5.9104,-5.9065,-5.9742,-5.9025,-5.8683,-5.878,-6.0171,-6.0925,-6.1099,-6.1227,-6.1297,0.0,0.0,0.0,-2.5975,0.0,0.0,0.0,-2.7065,-2.7987,0.0,0.0,0.0,0.0,0.0,0.0,0.0,0.0,0.0,0.0,0.0,0.0,0.0,0.0,0.0,-4.0439,-3.9759,-3.9742,-4.0903,-4.1327,-4.1459,-4.1391,-4.1298,-4.1686,-4.2612,-4.2649,-4.2946,-4.3509,-4.3899,-4.4135,-4.4165,-4.4594,-4.5003,-4.5432,-4.6675,-4.701,-4.668,-4.7979,-4.8245,-4.7787,-4.8196,-4.8364,-4.8401,-4.8829,-4.8996,-4.8996,-4.9046,-4.9098,-4.9262,-5.0064,-5.09,-5.1737,-5.2615,-5.3437,-5.4091,-5.4181,-5.4217,-5.4252,-5.4252,-5.4252,-5.4252,-5.434,-5.4375,-5.4424,-5.4472,-5.4538,-5.4622,-5.4692,-5.4723,-5.4767,-5.4829,-5.5193,-5.5508,-5.5508,-5.5597,-5.5865,-5.6331,-5.5636,-5.5237,-5.5739,-5.5332,-5.518,-5.5703,-5.653,-5.7082,-5.7148,-5.81,-5.8706,-5.8706,-5.8827,-5.9281,-6.0108,-5.9338,-5.8918,-5.8965,-5.9008,-5.8877,-5.8548,-5.9842,-6.0499,-6.0499,-6.0571,-6.0838,0.0,0.0,0.0,0.0,0.0,-2.7132,0.0,0.0,0.0,0.0,0.0,0.0,0.0,0.0,0.0,0.0,0.0,0.0,0.0,0.0,0.0,0.0,0.0,0.0,-3.8104,-3.7035,-3.7158,-3.9287,-4.0129,-4.0563,-4.0533,-4.0732,-4.0972,-4.1297,-4.1267,-4.1412,-4.1706,-4.234,-4.2779,-4.3015,-4.3706,-4.4136,-4.4341,-4.5828,-4.6115,-4.5574,-4.7105,-4.7335,-4.6675,-4.7327,-4.7667,-4.7942,-4.8766,-4.9101,-4.9135,-4.9164,-4.923,-4.9342,-5.0146,-5.0968,-5.1791,-5.265,-5.3508,-5.4181,-5.4289,-5.4359,-5.4409,-5.4409,-5.439,-5.4424,-5.4424,-5.4491,-5.4538,-5.4538,-5.4622,-5.4705,-5.4755,-5.4767,-5.4829,-5.4901,-5.4971,-5.5028,-5.5028,-5.5066,-5.5396,-5.6137,-5.5587,-5.5423,-5.6236,-5.5595,-5.5121,-5.5157,-5.5965,-5.6423,-5.6278,-5.7245,-5.8054,-5.8558,-5.8692,-5.9165,-6.0031,-5.9553,-5.8982,-5.8412,-5.8933,-5.9012,-5.8604,-5.9145,-5.9571,-5.9899,-5.9895,-6.028,0.0,0.0,0.0,0.0,-2.8191,0.0,0.0,0.0,-2.8868,-2.8964,0.0,0.0,0.0,0.0,0.0,0.0,0.0,0.0,0.0,0.0,0.0,0.0,0.0,0.0,0.0,-3.4543,-3.4833,-3.5884,-3.6719,-3.7109,-3.7054,-3.845,-3.9637,-4.0513,-4.0407,-4.0799,-4.1773,-4.1828,-4.2238,-4.2986,-4.3108,-4.3557,-4.4352,-4.5308,-4.5634,-4.5536,-4.6513,-4.685,-4.6682,-4.6775,-4.726,-4.8044,-4.8818,-4.9116,-4.9197,-4.9197,-4.9244,-4.942,-5.03,-5.1139,-5.2011,-5.2874,-5.3699,-5.4356,-5.4375,-5.439,-5.4409,-5.4409,-5.4458,-5.4505,-5.4505,-5.459,-5.4673,-5.4736,-5.4767,-5.4799,-5.4841,-5.4871,-5.4901,-5.4971,-5.5038,-5.5094,-5.5094,-5.5149,-5.5222,-5.5317,-5.526,-5.5222,-5.5344,-5.5206,-5.5094,-5.5121,-5.5938,-5.6202,-5.5492,-5.6365,-5.6678,-5.6053,-5.6082,-5.6511,-5.7396,-5.8096,-5.8408,-5.8393,-5.7815,-5.7853,-5.8604,-5.7927,-5.8391,-5.9899,-5.9895,-5.9968,0.0,0.0,0.0,0.0,0.0,0.0,-2.9251,0.0,-2.913,0.0,0.0,0.0,0.0,0.0,0.0,0.0,-2.6714,0.0,0.0,0.0,0.0,0.0,0.0,0.0,0.0,0.0,0.0,-3.3889,-3.4234,-3.4596,-3.5084,-3.6684,-3.8016,-3.8915,-3.938,-4.0114,-4.1091,-4.1091,-4.18,-4.3166,-4.3166,-4.3624,-4.4449,-4.5283,-4.5396,-4.4963,-4.5809,-4.5873,-4.5391,-4.5859,-4.6569,-4.743,-4.8265,-4.8864,-4.9276,-4.9345,-4.9377,-4.9465,-4.9821,-5.0522,-5.1393,-5.2322,-5.315,-5.3795,-5.3809,-5.3809,-5.3795,-5.3809,-5.3855,-5.3855,-5.3855,-5.4295,-5.4786,-5.4799,-5.4829,-5.489,-5.4941,-5.496,-5.5,-5.5094,-5.5149,-5.5176,-5.5241,-5.5313,-5.5313,-5.5313,-5.5313,-5.5313,-5.5313,-5.5286,-5.5267,-5.5281,-5.5632,-5.576,-5.5427,-5.5849,-5.6399,-5.7075,-5.7623,-5.7879,-5.779,-5.8599,-5.841,-5.7024,-5.7622,-5.7911,-5.7849,-5.7482,-5.7944,-5.9162,-5.9644,-5.9932,-3.1155,0.0,0.0,0.0,0.0,0.0,0.0,0.0,0.0,0.0,0.0,0.0,0.0,0.0,0.0,0.0,0.0,-2.5855,0.0,0.0,0.0,0.0,0.0,0.0,0.0,0.0,-3.0525,-3.1449,-3.166,-3.214,-3.3032,-3.4895,-3.643,-3.7567,-3.8439,-3.945,-4.0614,-4.0667,-4.1571,-4.3294,-4.3294,-4.3726,-4.4533,-4.5097,-4.5059,-4.4533,-4.5115,-4.5012,-4.4468,-4.5048,-4.5798,-4.6623,-4.7264,-4.7995,-4.8752,-4.9333,-4.9551,-4.9551,-4.9551,-5.009,-5.0979,-5.1888,-5.2718,-5.3295,-5.3113,-5.3208,-5.3276,-5.3113,-5.31,-5.3138,-5.3364,-5.3955,-5.4546,-5.4773,-5.4871,-5.496,-5.5,-5.5028,-5.5066,-5.5176,-5.5183,-5.5229,-5.5377,-5.5403,-5.5403,-5.5403,-5.5403,-5.5403,-5.5403,-5.5403,-5.5409,-5.5383,-5.5408,-5.5432,-5.5527,-5.5573,-5.6134,-5.7424,-5.8127,-5.8366,-5.8064,-5.8834,-5.847,-5.6714,-5.8143,-5.849,-5.7656,-5.7673,-5.7865,-5.8286,-5.8925,-5.9235,0.0,0.0,0.0,-3.1618,0.0,0.0,0.0,0.0,-3.0182,0.0,0.0,0.0,0.0,0.0,0.0,0.0,0.0,0.0,0.0,0.0,0.0,0.0,0.0,0.0,0.0,-2.668,-2.705,-2.7988,-2.8732,-2.9522,-3.0475,-3.2847,-3.5002,-3.6789,-3.7627,-3.8898,-4.0675,-4.072,-4.1571,-4.3294,-4.3294,-4.3726,-4.4515,-4.4533,-4.4533,-4.4515,-4.4533,-4.4533,-4.4515,-4.4505,-4.5021,-4.5735,-4.5772,-4.6346,-4.7391,-4.9079,-4.9692,-4.9692,-4.9692,-5.0239,-5.1021,-5.1918,-5.2748,-5.3258,-5.2465,-5.2786,-5.3239,-5.2465,-5.23,-5.2511,-5.3275,-5.3629,-5.3935,-5.4712,-5.496,-5.5,-5.5,-5.5038,-5.5121,-5.5203,-5.5183,-5.5229,-5.5377,-5.5403,-5.5403,-5.5403,-5.5403,-5.5403,-5.5403,-5.5403,-5.5409,-5.5383,-5.5408,-5.5456,-5.5573,-5.5596,-5.5638,-5.578,-5.5942,-5.6367,-5.7117,-5.8027,-5.8491,-5.8414,-5.9359,-5.9435,-5.8546,-5.8559,-5.817,-5.7453,-5.7473,-5.7505,0.0,0.0,-3.3242,-3.2477,0.0,0.0,0.0,0.0,0.0,0.0,0.0,0.0,0.0,0.0,0.0,0.0,0.0,0.0,0.0,0.0,0.0,0.0,0.0,0.0,0.0,0.0,0.0,-2.6176,-2.6384,-2.6878,-2.7837,-3.0331,-3.2757,-3.5014,-3.6559,-3.8651,-4.1407,-4.0457,-4.1353,-4.4083,-4.2975,-4.3163,-4.4515,-4.4515,-4.4515,-4.4515,-4.4515,-4.4515,-4.4515,-4.4515,-4.5012,-4.5782,-4.5875,-4.6411,-4.7306,-4.839,-4.8786,-4.8919,-4.9542,-4.992,-5.0232,-5.0572,-5.1187,-5.1782,-5.1613,-5.1679,-5.1782,-5.1594,-5.1575,-5.1821,-5.2579,-5.331,-5.404,-5.4781,-5.5028,-5.5066,-5.5121,-5.5149,-5.5203,-5.5313,-5.5339,-5.5358,-5.5403,-5.5403,-5.5403,-5.5403,-5.5403,-5.5403,-5.5403,-5.539,-5.5402,-5.5456,-5.5504,-5.5573,-5.5724,-5.6305,-5.6674,-5.6695,-5.6695,-5.6869,-5.7216,-5.7486,-5.7389,-5.6865,-5.777,-5.8097,-5.7804,-5.7257,-5.7172,-5.7455,-5.6873,-5.6893,-3.4274,-3.4239,0.0,-3.3312,-3.3468,0.0,-3.2924,0.0,-3.2457,0.0,0.0,0.0,0.0,0.0,0.0,0.0,0.0,0.0,0.0,-2.4689,0.0,0.0,0.0,0.0,0.0,0.0,-2.3983,-2.4905,-2.4586,-2.4897,0.0,-2.8606,-3.1024,-3.3282,-3.5403,-3.8097,-4.1343,-4.0183,-4.1098,-4.4064,-4.2675,-4.275,-4.4083,-4.4083,-4.4233,-4.4515,-4.4515,-4.4515,-4.4515,-4.4515,-4.4843,-4.5377,-4.5469,-4.5817,-4.6447,-4.756,-4.8192,-4.8626,-4.9532,-4.9835,-4.9843,-4.9898,-5.0467,-5.1064,-5.0827,-5.0921,-5.1092,-5.0835,-5.0814,-5.1087,-5.2172,-5.2929,-5.3669,-5.4734,-5.5066,-5.5149,-5.5183,-5.5248,-5.5294,-5.5384,-5.5403,-5.5403,-5.5403,-5.5403,-5.5403,-5.5403,-5.5403,-5.5403,-5.539,-5.5402,-5.5432,-5.5527,-5.5573,-5.564,-5.5787,-5.6387,-5.6773,-5.6753,-5.6734,-5.6888,-5.7253,-5.7253,-5.6982,-5.6476,-5.7362,-5.7688,-5.7415,-5.6866,-5.6931,-5.748,-5.664,-5.6509]}]]